[[[{"header":{"parameterUnit":"kt","parameterCategory":2,"dx":1,"dy":1,"la1":29.285339999999998,"la2":30.599998999999997,"lo1":-89.70041500000002,"lo2":-87.6738589999976,"nx":112,"ny":82,"refTime":"2022-10-01T18:00:00:Z","depth":0,"parameterNumber":1,"parameterNumberName":"U-component_of_WINDS"},"data":[7.2091,7.2959,0.0,7.1414,7.3189,0.0,7.4171,0.0,0.0,0.0,0.0,0.0,0.0,0.0,0.0,0.0,0.0,0.0,0.0,7.7377,0.0,0.0,0.0,0.0,0.0,0.0,0.0,0.0,0.0,0.0,0.0,0.0,9.5042,9.8407,9.8557,9.8557,9.8557,9.8557,9.8557,9.8557,9.8557,9.8557,9.8557,9.8557,9.8557,9.8557,9.8557,9.8594,9.8744,9.9155,9.9335,9.9447,9.9762,9.9926,9.9926,9.9926,9.9926,9.9926,9.9926,9.9926,9.9926,9.9926,9.9926,9.9926,9.9926,9.9926,9.9926,9.9926,9.9926,9.9926,9.9926,9.9926,9.9926,9.9926,9.9926,9.9926,9.9926,9.9926,9.9926,9.9926,9.9926,9.9926,9.9926,9.9926,9.9926,9.9926,9.9926,9.9926,9.9926,9.9926,9.9926,9.9926,9.9926,9.9926,9.9926,9.9926,9.9926,9.9926,9.9926,9.9926,9.9926,9.9926,9.966,9.909,9.9622,9.966,9.909,9.966,9.9926,9.9926,9.9926,9.9926,0.0,0.0,7.1578,6.9112,0.0,0.0,0.0,0.0,0.0,0.0,0.0,0.0,0.0,0.0,0.0,0.0,0.0,0.0,0.0,0.0,0.0,0.0,0.0,0.0,0.0,0.0,0.0,0.0,0.0,0.0,0.0,9.3509,9.5042,9.8407,9.8557,9.8557,9.8557,9.8557,9.8557,9.8557,9.8557,9.8557,9.8557,9.8557,9.8557,9.8557,9.8557,9.8632,9.8856,9.9192,9.9411,9.9549,9.98,9.9926,9.9926,9.9926,9.9926,9.9926,9.9926,9.9926,9.9926,9.9926,9.9926,9.9926,9.9926,9.9926,9.9926,9.9926,9.9926,9.9926,9.9926,9.9926,9.9926,9.9926,9.9926,9.9926,9.9926,9.9926,9.9926,9.9926,9.9926,9.9926,9.9926,9.9926,9.9926,9.9926,9.9926,9.9926,9.9926,9.9926,9.9926,9.9926,9.9926,9.9926,9.9926,9.9926,9.9926,9.9926,9.9926,9.9926,9.9926,9.9926,9.9926,9.9926,9.9926,9.9926,9.9926,9.9926,9.9926,9.9926,9.9926,9.9926,0.0,0.0,0.0,6.7487,0.0,0.0,0.0,0.0,7.5682,0.0,0.0,0.0,0.0,0.0,0.0,0.0,0.0,0.0,0.0,0.0,0.0,0.0,0.0,0.0,0.0,0.0,0.0,0.0,0.0,0.0,9.3098,9.3472,9.5042,9.8333,9.852,9.8557,9.8557,9.8557,9.8557,9.8557,9.8557,9.8557,9.8557,9.8557,9.8557,9.8557,9.8557,9.8856,9.9305,9.9343,9.9552,9.9888,9.9926,9.9926,9.9926,9.9926,9.9926,9.9926,9.9926,9.9926,9.9926,9.9926,9.9926,9.9926,9.9926,9.9926,9.9926,9.9926,9.9926,9.9926,9.9926,9.9926,9.9926,9.9926,9.9926,9.9926,9.9926,9.9926,9.9926,9.9926,9.9926,9.9926,9.9926,9.9926,9.9926,9.9926,9.9926,9.9926,9.9926,9.9926,9.9926,9.9926,9.9926,9.9926,9.9926,9.9926,9.9926,9.9926,9.9926,9.9926,9.9926,9.9926,9.9926,9.9926,9.9926,9.9926,9.9926,9.9926,9.9926,9.9926,9.9926,9.9926,6.5549,0.0,0.0,0.0,0.0,0.0,0.0,0.0,0.0,0.0,0.0,0.0,0.0,0.0,0.0,0.0,0.0,0.0,0.0,0.0,0.0,0.0,0.0,0.0,0.0,0.0,0.0,0.0,0.0,0.0,9.1565,9.2874,9.4482,9.665,9.7884,9.8557,9.8557,9.8557,9.8557,9.8557,9.8557,9.8557,9.8557,9.8557,9.8557,9.8557,9.8557,9.8782,9.9043,9.9249,9.9432,9.966,9.985,9.9926,9.9926,9.9926,9.9926,9.9926,9.9926,9.9926,9.9926,9.9926,9.9926,9.9926,9.9926,9.9926,9.9926,9.9926,9.9926,9.9926,9.9926,9.9926,9.9926,9.9926,9.9926,9.9926,9.9926,9.9926,9.9926,9.9926,9.9926,9.9926,9.9926,9.9926,9.9926,9.9926,9.9926,9.9926,9.9926,9.9926,9.9926,9.9926,9.9926,9.9926,9.9926,9.9926,9.9926,9.9926,9.9926,9.9926,9.9926,9.9926,9.9926,9.9926,9.9926,9.9926,9.9926,9.9926,9.9926,9.9926,9.9926,9.9926,0.0,0.0,0.0,0.0,0.0,0.0,7.0866,0.0,6.9778,0.0,0.0,0.0,0.0,0.0,0.0,0.0,0.0,0.0,0.0,0.0,0.0,0.0,0.0,0.0,0.0,0.0,0.0,0.0,0.0,8.7602,9.1004,9.2014,9.3584,9.594,9.6987,9.7809,9.8557,9.8557,9.8557,9.8557,9.8557,9.8557,9.8557,9.8557,9.8557,9.8557,9.8557,9.8782,9.9118,9.927,9.9485,9.9698,9.985,9.9926,9.9926,9.9926,9.9926,9.9926,9.9926,9.9926,9.9926,9.9926,9.9926,9.9926,9.9926,9.9926,9.9926,9.9926,9.9926,9.9926,9.9926,9.9926,9.9926,9.9926,9.9926,9.9926,9.9926,9.9926,9.9926,9.9926,9.9926,9.9926,9.9926,9.9926,9.9926,9.9926,9.9926,9.9926,9.9926,9.9926,9.9926,9.9926,9.9926,9.9926,9.9926,9.9926,9.9926,9.9926,9.9926,9.9926,9.9926,9.9926,9.9926,9.9926,9.9926,9.9926,9.9926,9.9926,9.9926,9.9926,9.9926,9.9926,0.0,0.0,0.0,0.0,7.01,0.0,0.0,0.0,0.0,0.0,0.0,0.0,0.0,0.0,0.0,0.0,0.0,0.0,0.0,0.0,0.0,0.0,0.0,0.0,0.0,0.0,0.0,8.8499,8.7228,8.7714,9.0743,9.1079,9.25,9.5379,9.5641,9.6538,9.822,9.8258,9.8333,9.8557,9.8557,9.8557,9.8557,9.8557,9.8557,9.8557,9.8557,9.8856,9.9342,9.9345,9.9561,9.9926,9.9926,9.9926,9.9926,9.9926,9.9926,9.9926,9.9926,9.9926,9.9926,9.9926,9.9926,9.9926,9.9926,9.9926,9.9926,9.9926,9.9926,9.9926,9.9926,9.9926,9.9926,9.9926,9.9926,9.9926,9.9926,9.9926,9.9926,9.9926,9.9926,9.9926,9.9926,9.9926,9.9926,9.9926,9.9926,9.9926,9.9926,9.9926,9.9926,9.9926,9.9926,9.9926,9.9926,9.9926,9.9926,9.9926,9.9926,9.9926,9.9926,9.9926,9.9926,9.9926,9.9926,9.9926,9.9926,9.9926,9.9736,9.9356,9.9356,9.9356,0.0,0.0,0.0,0.0,0.0,6.9672,0.0,0.0,0.0,0.0,0.0,0.0,0.0,0.0,0.0,0.0,0.0,0.0,0.0,0.0,0.0,0.0,0.0,0.0,0.0,0.0,8.8275,8.8612,8.8312,8.8425,8.906,9.0444,9.1453,9.2089,9.3323,9.4818,9.6501,9.6501,9.7174,9.8557,9.8557,9.8557,9.8557,9.8557,9.8557,9.8557,9.8557,9.8856,9.9342,9.9345,9.9561,9.9926,9.9926,9.9926,9.9926,9.9926,9.9926,9.9926,9.9926,9.9926,9.9926,9.9926,9.9926,9.9926,9.9926,9.9926,9.9926,9.9926,9.9926,9.9926,9.9926,9.9926,9.9926,9.9926,9.9926,9.9926,9.9926,9.9926,9.9926,9.9926,9.9926,9.9926,9.9926,9.9926,9.9926,9.9926,9.9926,9.9926,9.9926,9.9926,9.9926,9.9926,9.9926,9.9926,9.9926,9.9926,9.9926,9.9926,9.9926,9.9926,9.9926,9.9926,9.9926,9.9926,9.9926,9.9926,9.9926,9.9926,9.8559,9.5977,9.5977,9.5977,0.0,0.0,0.0,6.8973,0.0,0.0,0.0,0.0,6.6675,0.0,0.0,0.0,0.0,0.0,0.0,0.0,0.0,0.0,0.0,0.0,0.0,0.0,0.0,0.0,0.0,0.0,8.8612,8.8612,8.8612,8.8612,8.8612,8.9434,9.0294,9.1154,9.1939,9.3098,9.4743,9.4781,9.5192,9.6015,9.6874,9.7286,9.7286,9.8146,9.8557,9.8557,9.8557,9.8856,9.9342,9.9345,9.9561,9.9926,9.9926,9.9926,9.9926,9.9926,9.9926,9.9926,9.9926,9.9926,9.9926,9.9926,9.9926,9.9926,9.9926,9.9926,9.9926,9.9926,9.9926,9.9926,9.9926,9.9926,9.9926,9.9926,9.9926,9.9926,9.9926,9.9926,9.9926,9.9926,9.9926,9.9926,9.9926,9.9926,9.9926,9.9926,9.9926,9.9926,9.9926,9.9926,9.9926,9.9926,9.9926,9.9926,9.9926,9.9926,9.9926,9.9926,9.9926,9.9926,9.9926,9.9926,9.9926,9.9926,9.9128,9.8749,9.8749,9.7875,9.666,9.5066,9.5066,9.499,0.0,0.0,0.0,0.0,0.0,0.0,6.515,6.4443,6.4883,0.0,0.0,0.0,0.0,0.0,0.0,0.0,0.0,0.0,0.0,0.0,0.0,0.0,0.0,0.0,0.0,0.0,8.8612,8.8612,8.8612,8.8612,8.8612,8.8612,8.9247,9.0631,9.0668,9.1453,9.3023,9.3061,9.321,9.3509,9.4893,9.5528,9.5566,9.6949,9.7734,9.8071,9.8071,9.8557,9.9342,9.9345,9.9561,9.9926,9.9926,9.9926,9.9926,9.9926,9.9926,9.9926,9.9926,9.9926,9.9926,9.9926,9.9926,9.9926,9.9926,9.9926,9.9926,9.9926,9.9926,9.9926,9.9926,9.9926,9.9926,9.9926,9.9926,9.9926,9.9926,9.9926,9.9926,9.9926,9.9926,9.9926,9.9926,9.9926,9.9926,9.9926,9.9926,9.9926,9.9926,9.9926,9.9926,9.9926,9.9926,9.9926,9.9926,9.9926,9.9774,9.947,9.947,9.9318,9.8976,9.8976,9.8976,9.8976,9.7718,9.7105,9.7067,9.5283,9.422,9.3916,9.3916,9.3802,6.1722,6.3416,6.523,0.0,0.0,0.0,7.1286,7.0427,0.0,0.0,0.0,0.0,0.0,0.0,0.0,0.0,0.0,0.0,0.0,0.0,0.0,0.0,0.0,0.0,0.0,0.0,8.8612,8.8612,8.8612,8.8612,8.8612,8.8612,8.8686,8.8911,8.8911,8.9733,9.1416,9.1416,9.2126,9.3509,9.3696,9.3771,9.3809,9.3958,9.4893,9.6276,9.6276,9.7435,9.9342,9.9345,9.9561,9.9926,9.9926,9.9926,9.9926,9.9926,9.9926,9.9926,9.9926,9.9926,9.9926,9.9926,9.9926,9.9926,9.9926,9.9926,9.9926,9.9926,9.9926,9.9926,9.9926,9.9926,9.9926,9.9926,9.9926,9.9926,9.9926,9.9926,9.9926,9.9926,9.9926,9.9926,9.9926,9.9926,9.9926,9.9926,9.9926,9.9926,9.9926,9.9926,9.9926,9.9926,9.9926,9.9926,9.9926,9.9926,9.9318,9.7913,9.7837,9.7154,9.5673,9.5597,9.5597,9.5597,9.5412,9.5312,9.5312,9.3176,9.1344,8.9868,8.9868,8.9868,6.0733,6.1671,6.251,6.3665,0.0,0.0,6.7948,6.8915,0.0,0.0,0.0,0.0,0.0,0.0,0.0,0.0,0.0,0.0,0.0,0.0,0.0,0.0,0.0,0.0,0.0,0.0,0.0,0.0,8.8612,8.8612,8.8612,8.8612,8.8612,8.8612,8.8612,8.8948,8.9696,8.9696,9.0032,9.0668,9.1677,9.2163,9.2201,9.3098,9.3883,9.4556,9.4706,9.594,9.7804,9.6963,9.6789,9.7078,9.7078,9.7686,9.8559,9.8559,9.9128,9.9926,9.9926,9.9926,9.9926,9.9926,9.9926,9.9926,9.9926,9.9926,9.9926,9.9926,9.9926,9.9926,9.9926,9.9926,9.9926,9.9926,9.9926,9.9926,9.9926,9.9926,9.9926,9.9926,9.9926,9.9926,9.9926,9.9926,9.9926,9.9926,9.9926,9.9926,9.9926,9.9926,9.9926,9.9926,9.9926,9.9546,9.8635,9.8559,9.7837,9.6205,9.6091,9.5787,9.5104,9.5066,9.499,9.4838,9.4836,9.4266,9.315,9.1202,8.9947,8.9205,8.9205,8.9168,5.9231,0.0,0.0,0.0,0.0,0.0,0.0,0.0,0.0,0.0,0.0,0.0,0.0,0.0,0.0,0.0,0.0,0.0,0.0,0.0,0.0,0.0,0.0,0.0,0.0,0.0,0.0,0.0,8.8612,8.8612,8.8612,8.8612,8.8612,8.8612,8.8612,8.8612,8.8612,8.8612,8.8612,8.8649,8.9883,9.0481,9.0518,9.164,9.2425,9.2874,9.3098,9.4021,9.5314,9.4388,9.4383,9.5066,9.5066,9.5825,9.6888,9.6888,9.761,9.8635,9.909,9.928,9.9318,9.9774,9.9926,9.9926,9.9926,9.9926,9.9926,9.9926,9.9926,9.9926,9.9926,9.9926,9.9926,9.9926,9.9926,9.9926,9.9926,9.9926,9.9926,9.9926,9.9926,9.9926,9.9926,9.9926,9.9926,9.9926,9.9926,9.9926,9.9926,9.9926,9.9736,9.9318,9.928,9.8597,9.7002,9.6888,9.6167,9.4458,9.4345,9.4117,9.3585,9.3547,9.3431,9.3183,9.3163,9.2475,9.1029,8.9682,8.9057,8.9057,8.9057,8.9019,0.0,0.0,0.0,6.2448,6.4113,6.6537,7.2013,7.3386,7.4373,0.0,0.0,0.0,0.0,0.0,0.0,0.0,0.0,0.0,0.0,0.0,0.0,0.0,0.0,0.0,0.0,0.0,0.0,0.0,0.0,8.8612,8.8612,8.8612,8.8612,8.8612,8.8612,8.8612,8.8612,8.8612,8.8612,8.8612,8.8686,8.8686,8.8686,8.8761,8.9696,9.1266,9.1378,9.1594,9.1907,9.212,9.3324,9.5066,9.5066,9.5104,9.5142,9.5142,9.5142,9.5408,9.7078,9.7648,9.7875,9.9432,9.9926,9.9926,9.9926,9.9926,9.9926,9.9926,9.9926,9.9926,9.9926,9.9926,9.9926,9.9926,9.9926,9.9926,9.9926,9.9926,9.9926,9.9926,9.9926,9.9926,9.9926,9.9926,9.9926,9.9926,9.9926,9.9926,9.9926,9.9926,9.9318,9.7799,9.7648,9.6964,9.5256,9.5142,9.4421,9.2712,9.2598,9.1763,8.9827,8.9751,8.9644,8.9405,8.9376,8.9356,8.9278,8.887,8.8649,8.8649,8.8649,8.8649,5.7882,5.8677,5.9775,6.2284,6.4724,6.7482,7.1201,7.3565,7.5525,0.0,0.0,0.0,0.0,0.0,0.0,0.0,0.0,0.0,0.0,0.0,0.0,0.0,0.0,0.0,0.0,0.0,0.0,0.0,0.0,0.0,8.8612,8.8612,8.8612,8.8612,8.8612,8.8612,8.8612,8.8612,8.8612,8.8612,8.8612,8.8612,8.8612,8.8612,8.8948,8.9471,8.9696,9.0008,9.0371,9.0594,9.11,9.1687,9.1687,9.2408,9.3395,9.3395,9.4079,9.5142,9.5711,9.5901,9.5977,9.6509,9.7458,9.8369,9.8369,9.909,9.9926,9.9926,9.9926,9.9926,9.9926,9.9926,9.9926,9.9926,9.9926,9.9926,9.9926,9.9926,9.9926,9.9926,9.9926,9.9926,9.9926,9.9926,9.9926,9.9926,9.9926,9.9546,9.8483,9.8369,9.7724,9.6091,9.5901,9.5218,9.3509,9.3206,9.2408,9.07,9.0417,9.0023,8.9379,8.9356,8.9284,8.9123,8.9076,8.9019,8.8832,8.8686,8.8612,8.8612,8.8612,8.8612,5.7863,5.8108,5.8519,6.154,6.4456,6.7275,6.9981,7.2857,7.5398,0.0,0.0,0.0,0.0,0.0,0.0,0.0,0.0,0.0,0.0,0.0,0.0,0.0,0.0,0.0,0.0,0.0,0.0,0.0,0.0,0.0,8.8612,8.8612,8.8612,8.8612,8.8612,8.8612,8.8612,8.8612,8.8612,8.8612,8.8612,8.8612,8.8612,8.8724,8.8795,8.8795,8.9036,8.9284,8.9637,8.9785,8.9941,9.0016,9.0016,9.0662,9.1611,9.1611,9.2294,9.332,9.3927,9.4155,9.4269,9.4876,9.5787,9.666,9.666,9.7799,9.909,9.909,9.947,9.9926,9.9926,9.9926,9.9926,9.9926,9.9926,9.9926,9.9926,9.9926,9.9926,9.9926,9.9926,9.9736,9.9166,9.909,9.8862,9.8255,9.8179,9.7799,9.6812,9.666,9.6015,9.4345,9.4155,9.3433,9.1649,9.1307,9.0724,8.9557,8.9319,8.9204,8.9166,8.9156,8.9057,8.8907,8.8907,8.8832,8.8612,8.8612,8.8612,8.8612,8.8612,8.8612,5.6603,5.6542,5.6683,6.0353,6.3304,6.6043,6.8493,7.1482,7.3927,0.0,0.0,0.0,0.0,0.0,0.0,0.0,0.0,0.0,0.0,0.0,0.0,0.0,0.0,0.0,0.0,0.0,0.0,0.0,0.0,0.0,8.8612,8.8612,8.8612,8.8612,8.8612,8.8612,8.8612,8.8612,8.8612,8.8612,8.8612,8.8612,8.8612,8.8907,8.9053,8.9071,8.9201,8.941,8.9637,8.9637,8.9789,9.0016,9.0016,9.0016,9.0016,9.0016,9.0016,9.0244,9.1839,9.2408,9.2674,9.4269,9.4876,9.4914,9.4914,9.6091,9.7458,9.7458,9.8521,9.9698,9.9774,9.9812,9.9812,9.9888,9.9926,9.9926,9.9926,9.9774,9.966,9.966,9.966,9.9204,9.7686,9.7458,9.6888,9.5294,9.5066,9.5028,9.4952,9.4914,9.4269,9.256,9.237,9.161,8.975,8.9597,8.9455,8.9231,8.9206,8.9132,8.9019,8.9019,8.8907,8.8612,8.8612,8.8612,8.8612,8.8612,8.8612,8.8612,8.8612,8.8612,5.7245,5.7959,5.9068,6.1977,6.3281,6.4468,6.7213,6.9175,7.0837,0.0,0.0,0.0,0.0,0.0,0.0,0.0,0.0,0.0,0.0,0.0,0.0,0.0,0.0,0.0,0.0,0.0,0.0,0.0,0.0,0.0,8.8612,8.8612,8.8612,8.8612,8.8612,8.8612,8.8612,8.8612,8.8612,8.8612,8.8612,8.8612,8.8612,8.8907,8.9184,8.9476,8.9715,8.9857,8.9903,8.9903,8.9941,9.0016,9.0016,9.0016,9.0016,9.0016,9.0016,9.0054,9.0472,9.0624,9.0738,9.1155,9.2143,9.3168,9.3168,9.4345,9.5711,9.5711,9.5977,9.6585,9.7837,9.8179,9.8483,9.966,9.9926,9.9926,9.9926,9.8027,9.6281,9.6281,9.6281,9.6167,9.5787,9.5711,9.5559,9.5104,9.5066,9.461,9.332,9.2978,9.2219,9.051,9.0175,8.9862,8.9369,8.9221,8.9151,8.909,8.8907,8.8795,8.8724,8.8724,8.8686,8.8612,8.8612,8.8612,8.8612,8.8612,8.8612,8.8612,8.8612,8.8612,5.6857,5.7506,5.9126,6.1715,6.2355,6.2903,6.508,6.7015,6.8866,7.0175,0.0,0.0,0.0,0.0,0.0,0.0,0.0,0.0,0.0,0.0,0.0,0.0,0.0,0.0,0.0,0.0,0.0,0.0,0.0,0.0,8.8612,8.8612,8.8612,8.8612,8.8612,8.8612,8.8612,8.8612,8.8612,8.8612,8.8612,8.8686,8.8832,8.9019,8.9293,8.9637,8.9865,9.0016,9.0016,9.0016,9.0016,9.0016,9.0016,9.0016,9.0016,9.0016,9.0016,9.0016,9.0016,9.0016,9.0016,9.0016,9.0624,9.1421,9.1421,9.2598,9.3927,9.3927,9.4458,9.5256,9.6205,9.6471,9.6698,9.7572,9.7761,9.7761,9.7761,9.6319,9.5066,9.5066,9.5066,9.4838,9.4079,9.3927,9.3699,9.294,9.2826,9.2484,9.1535,9.1193,9.0644,8.9721,8.9372,8.9208,8.9133,8.9051,8.8982,8.887,8.8686,8.8612,8.8612,8.8612,8.8612,8.8612,8.8612,8.8612,8.8612,8.8612,8.8612,8.8612,8.8612,8.8612,5.6946,5.7265,5.8525,6.0697,6.1195,6.1457,6.2704,6.4907,6.7213,0.0,0.0,0.0,0.0,0.0,0.0,0.0,0.0,0.0,0.0,0.0,0.0,0.0,0.0,0.0,0.0,0.0,0.0,0.0,0.0,0.0,0.0,8.8612,8.8612,8.8612,8.8612,8.8612,8.8612,8.8612,8.8612,8.8612,8.8612,8.8795,8.9019,8.9132,8.9325,8.9553,8.9847,8.9953,8.9957,8.9977,9.0016,9.0016,9.0016,9.0016,9.0016,9.0016,9.0016,9.0016,9.0016,9.0016,9.0016,9.0016,9.0016,9.0016,9.0016,9.1042,9.2181,9.2181,9.3244,9.4421,9.4648,9.4724,9.48,9.499,9.4686,9.4421,9.4648,9.4534,9.4458,9.4648,9.4534,9.3889,9.2446,9.2181,9.1687,9.0206,9.0016,8.9979,8.9979,8.9711,8.9552,8.952,8.9319,8.9094,8.8982,8.8982,8.887,8.8649,8.8612,8.8612,8.8612,8.8612,8.8612,8.8612,8.8612,8.8612,8.8612,8.8612,8.8612,8.8612,8.8612,8.8612,6.1827,6.1266,6.0823,6.1123,6.1195,6.1224,6.1457,6.2816,6.4332,6.5621,6.7886,0.0,0.0,0.0,0.0,0.0,0.0,0.0,0.0,0.0,0.0,0.0,0.0,0.0,0.0,0.0,0.0,0.0,0.0,0.0,0.0,0.0,8.8612,8.8612,8.8612,8.8612,8.8612,8.8612,8.8612,8.8612,8.8612,8.8795,8.9019,8.9057,8.9157,8.9315,8.9572,8.9677,8.9683,8.9909,9.0016,9.0016,9.0016,9.0016,9.0016,9.0016,9.0016,9.0016,9.0016,9.0016,9.0016,9.0016,9.0016,9.0016,9.0016,9.0206,9.0434,9.0434,9.0624,9.1193,9.2598,9.294,9.332,9.4724,9.2902,9.1269,9.2674,9.1877,9.1269,9.2674,9.1839,9.0776,9.0472,9.0434,9.032,9.0054,9.0016,8.9941,8.9713,8.9446,8.9243,8.9156,8.8907,8.8724,8.8686,8.8686,8.8649,8.8612,8.8612,8.8612,8.8612,8.8612,8.8612,8.8612,8.8612,8.8612,8.8612,8.8612,8.8612,8.8612,8.8612,8.8612,6.2344,6.2295,6.261,6.1419,6.1168,6.1195,6.1195,6.2297,6.3576,6.4856,6.6232,6.8091,0.0,0.0,0.0,0.0,0.0,0.0,0.0,0.0,0.0,0.0,0.0,0.0,0.0,0.0,0.0,0.0,0.0,0.0,0.0,0.0,0.0,0.0,8.8612,8.8612,8.8612,8.8612,8.8612,8.8612,8.8612,8.8686,8.8832,8.8982,8.9171,8.9446,8.9552,8.9694,8.9815,8.9957,9.0016,9.0016,9.0016,9.0016,9.0016,9.0016,9.0016,9.0016,9.0016,9.0016,9.0016,9.0016,9.0016,9.0016,9.0016,9.0016,9.0016,9.0016,9.0016,9.0206,9.1004,9.1193,9.1421,9.2219,9.1193,9.0206,9.1042,9.0548,9.0244,9.1042,9.0548,9.0016,9.0016,9.0016,9.0016,9.0016,8.9865,8.9751,8.9637,8.9338,8.9113,8.9016,8.8795,8.8612,8.8612,8.8612,8.8612,8.8612,8.8612,8.8612,8.8612,8.8612,8.8612,8.8612,8.8612,8.8612,8.8612,8.8612,8.8612,8.8612,8.8612,8.8612,6.2646,6.3438,6.4968,6.2487,6.1853,6.1853,6.1608,6.214,6.3043,6.4069,6.466,6.6123,6.9915,0.0,0.0,0.0,0.0,0.0,0.0,0.0,0.0,0.0,0.0,0.0,0.0,0.0,0.0,0.0,0.0,0.0,0.0,0.0,0.0,0.0,0.0,8.8612,8.8612,8.8612,8.8612,0.0,8.8612,8.8612,8.8612,8.887,8.9132,8.9502,8.9582,8.9729,8.9941,8.9979,9.0016,9.0016,9.0016,9.0016,9.0016,9.0016,9.0016,9.0016,9.0016,9.0016,9.0016,9.0016,9.0016,9.0016,9.0016,9.0016,9.0016,9.0016,9.0016,9.0016,9.0016,9.0016,9.0016,9.0016,9.0016,9.0016,9.0016,9.0016,9.0016,9.0016,9.0016,9.0016,9.0016,9.0016,9.0016,9.0016,8.9789,8.9595,8.9544,8.9242,8.9019,8.8945,8.8724,8.8612,8.8612,8.8612,8.8612,8.8612,8.8612,8.8612,8.8612,8.8612,8.8612,8.8612,8.8612,8.8612,8.8612,8.8612,8.8612,8.8612,8.8612,8.8612,6.5776,6.7334,6.8801,6.5141,6.4259,6.3989,6.3026,6.1989,6.1241,6.136,6.2432,6.431,6.7257,6.8866,0.0,0.0,0.0,0.0,0.0,0.0,0.0,0.0,0.0,0.0,0.0,0.0,0.0,0.0,0.0,0.0,0.0,0.0,0.0,0.0,0.0,0.0,8.8612,8.8612,8.8612,0.0,8.8612,8.8612,8.8612,8.8649,8.8832,8.9086,8.947,8.9633,8.9675,8.9903,9.0016,9.0016,9.0016,9.0016,9.0016,9.0016,9.0016,9.0016,9.0016,9.0016,9.0016,9.0016,9.0016,9.0016,9.0016,9.0016,9.0016,9.0016,9.0016,9.0016,9.0016,9.0016,9.0016,9.0016,9.0016,9.0016,9.0016,9.0016,9.0016,9.0016,9.0016,9.0016,9.0016,9.0016,9.0016,9.0016,8.9789,8.953,8.9273,8.9119,8.8945,8.8686,8.8649,8.8612,8.8612,8.8612,8.8612,8.8612,8.8612,8.8612,8.8612,8.8612,8.8612,8.8612,8.8612,8.8612,8.8612,8.8612,8.8612,8.8612,8.8612,8.8612,6.6303,6.7906,6.9871,6.6987,6.7394,6.7821,6.5096,6.5085,6.5336,6.4363,6.5054,6.6317,6.8243,6.9017,0.0,0.0,0.0,0.0,0.0,0.0,0.0,0.0,0.0,0.0,0.0,0.0,0.0,0.0,0.0,0.0,0.0,0.0,0.0,0.0,0.0,0.0,8.8612,8.8612,8.8612,8.8612,8.8612,8.8686,8.887,8.887,8.8982,8.9156,8.9486,8.9599,8.9637,8.9865,9.0016,9.0016,9.0016,9.0016,9.0016,9.0016,9.0016,9.0016,9.0016,9.0016,9.0016,9.0016,9.0016,9.0016,9.0016,9.0016,9.0016,9.0016,9.0016,9.0016,9.0016,9.0016,9.0016,9.0016,9.0016,9.0016,9.0016,9.0016,9.0016,9.0016,9.0016,9.0016,9.0016,9.0016,9.0016,9.0016,8.9899,8.9686,8.9296,8.8982,8.8724,8.8649,8.8612,8.8612,8.8612,8.8612,8.8612,8.8612,8.8612,8.8612,8.8612,8.8251,8.8061,8.8061,8.766,8.745,8.745,8.745,8.745,8.745,8.745,8.745,6.6603,6.8339,7.063,6.8278,6.9452,7.0057,6.6222,6.6905,6.7765,6.5713,6.6072,6.7246,6.8523,6.9067,0.0,0.0,0.0,0.0,0.0,0.0,0.0,0.0,0.0,0.0,0.0,0.0,0.0,0.0,0.0,0.0,0.0,0.0,0.0,0.0,0.0,0.0,8.8612,8.8612,8.8612,8.8612,8.8612,8.8795,8.9019,8.9089,8.9205,8.9317,8.9544,8.9637,8.9751,8.9941,9.0016,9.0016,9.0016,9.0016,9.0016,9.0016,9.0016,9.0016,9.0016,9.0016,9.0016,9.0016,9.0016,9.0016,9.0016,9.0016,9.0016,9.0016,9.0016,9.0016,9.0016,9.0016,9.0016,9.0016,9.0016,9.0016,9.0016,9.0016,9.0016,9.0016,9.0016,9.0016,9.0016,9.0016,9.0016,9.0016,8.9941,8.9752,8.9301,8.8927,8.8686,8.8612,8.8612,8.8612,8.8612,8.8612,8.8612,8.8612,8.8612,8.8577,8.8399,8.7703,8.7362,8.7362,8.6904,8.6656,8.6656,8.6656,8.6656,8.6656,8.6656,8.6656,6.6949,6.9201,7.1509,6.9045,6.9665,6.9898,6.5815,6.647,6.6869,6.3484,6.4136,6.5706,6.7054,6.8394,6.9865,7.1299,0.0,0.0,0.0,0.0,0.0,0.0,0.0,0.0,0.0,0.0,0.0,0.0,0.0,0.0,0.0,0.0,0.0,0.0,0.0,0.0,8.8612,8.8612,8.8612,8.8612,8.8612,8.8795,8.9053,8.9174,8.9341,8.9599,8.9599,8.9751,9.0016,9.0016,9.0016,9.0016,9.0016,9.0016,9.0016,9.0016,9.0016,9.0016,9.0016,9.0016,9.0016,9.0016,9.0016,9.0016,9.0016,9.0016,9.0016,9.0016,9.0016,9.0016,9.0016,9.0016,9.0016,9.0016,9.0016,9.0016,9.0016,9.0016,9.0016,9.0016,9.0016,9.0016,9.0016,9.0016,9.0016,9.0016,8.9789,8.9523,8.9258,8.9092,8.8945,8.8649,8.8612,8.8612,8.8612,8.8612,8.8612,8.8612,8.8612,8.8325,8.7703,8.7048,8.6706,8.6706,8.6706,8.6656,8.6656,8.6656,8.6656,8.6656,8.6656,8.6656,6.7307,7.0178,7.2928,7.1123,7.243,7.3035,6.8811,6.8699,6.9784,7.0947,6.9709,6.8735,6.9939,6.9693,6.9424,0.0,7.1702,0.0,0.0,0.0,0.0,0.0,0.0,0.0,0.0,0.0,0.0,0.0,0.0,0.0,0.0,0.0,0.0,0.0,0.0,0.0,8.8612,8.8612,8.8612,8.8612,8.8832,8.9096,8.9428,8.9468,8.9623,8.9865,8.9865,8.9941,9.0016,9.0016,9.0016,9.0016,9.0016,9.0016,9.0016,9.0016,9.0016,9.0016,9.0016,9.0016,9.0016,9.0016,9.0016,9.0016,9.0016,9.0016,9.0016,9.0016,9.0016,9.0016,9.0016,9.0016,9.0016,9.0016,9.0016,9.0016,9.0016,9.0016,9.0016,9.0016,9.0016,9.0016,9.0016,9.0016,8.9941,8.9751,8.967,8.947,8.9132,8.9071,8.8945,8.8649,8.8612,8.8612,8.8612,8.8612,8.8612,8.8612,8.8214,8.7904,8.766,8.6517,8.587,8.587,8.5478,8.5247,8.5247,8.5247,8.5247,8.5247,8.5247,8.5247,6.8947,7.0647,7.2095,7.2515,7.342,7.3216,6.9292,6.8526,6.9027,7.0373,7.0191,6.9785,6.9953,7.0332,7.0576,7.0661,7.2043,7.2946,0.0,0.0,0.0,0.0,0.0,0.0,0.0,0.0,0.0,0.0,0.0,0.0,0.0,0.0,0.0,0.0,0.0,8.8612,8.8612,8.8612,8.8686,8.887,8.9121,8.9381,8.9599,8.9713,8.9827,9.0016,9.0016,9.0016,9.0016,9.0016,9.0016,9.0016,9.0016,9.0016,9.0016,9.0016,9.0016,9.0016,9.0016,9.0016,9.0016,9.0016,9.0016,9.0016,9.0016,9.0016,9.0016,9.0016,9.0016,9.0016,9.0016,9.0016,9.0016,9.0016,9.0016,9.0016,9.0016,9.0016,9.0016,9.0016,9.0016,9.0016,9.0016,8.9941,8.9789,8.9637,8.9507,8.9319,8.9057,8.8945,8.8832,8.8649,8.8612,8.8612,8.8612,8.8612,8.8612,8.8612,8.7823,8.7142,8.6867,8.5756,8.5149,8.5149,8.4746,8.4552,8.4552,8.4552,8.4552,8.4552,8.4552,8.4552,7.0969,7.0573,7.004,7.286,7.2636,7.0933,6.7938,6.6549,6.5553,6.4285,6.7005,6.9223,6.8127,7.0391,7.2556,7.2803,7.3921,7.426,0.0,0.0,0.0,0.0,0.0,0.0,0.0,0.0,0.0,0.0,0.0,0.0,0.0,0.0,0.0,0.0,0.0,8.835,8.8462,8.8462,8.8604,8.8915,8.9249,8.9447,8.9485,8.9827,9.0016,9.0016,9.0016,9.0016,9.0016,9.0016,9.0016,9.0016,9.0016,9.0016,9.0016,9.0016,9.0016,9.0016,9.0016,9.0016,9.0016,9.0016,9.0016,9.0016,9.0016,9.0016,9.0016,9.0016,9.0016,9.0016,9.0016,9.0016,9.0016,9.0016,9.0016,9.0016,9.0016,9.0016,9.0016,9.0016,9.0016,9.0016,8.9979,8.9751,8.9599,8.9556,8.9259,8.9019,8.9019,8.8795,8.8612,8.8612,8.8612,8.8612,8.8612,8.8612,8.8612,8.8577,8.7362,8.6291,8.5561,8.4905,8.4552,8.4552,8.4552,8.4552,8.4552,8.4552,8.4552,8.4552,8.4552,8.4552,6.6777,6.9646,7.2086,6.9383,6.9369,6.9823,6.9124,6.6564,6.5053,6.7631,6.7925,6.8622,7.1639,7.1266,7.0465,7.0545,7.4462,7.692,7.5347,0.0,0.0,0.0,0.0,0.0,0.0,0.0,0.0,0.0,0.0,0.0,0.0,0.0,0.0,0.0,8.4723,8.5583,8.6962,8.7,8.6599,8.5804,8.7086,8.7777,8.8004,8.9371,9.0016,9.0016,9.0016,9.0016,9.0016,9.0016,9.0016,9.0016,9.0016,9.0016,9.0016,9.0016,9.0016,9.0016,9.0016,9.0016,9.0016,9.0016,9.0016,9.0016,9.0016,9.0016,9.0016,9.0016,9.0016,9.0016,9.0016,9.0016,9.0016,9.0016,9.0016,9.0016,9.0016,9.0016,9.0016,9.0016,9.0016,8.9941,8.9713,8.9637,8.9519,8.9181,8.9089,8.8945,8.8724,8.8649,8.8612,8.8612,8.8612,8.8612,8.8612,8.8612,8.8435,8.7904,8.6568,8.5699,8.5524,8.4905,8.4552,8.4552,8.4552,8.4552,8.4552,8.4552,8.4552,8.4552,8.4552,8.4552,6.722,6.9869,7.16,6.705,6.7132,6.8137,6.7505,6.6266,6.5484,6.6211,6.7394,6.9138,7.1774,7.2245,7.2379,7.2524,7.4509,7.5834,7.5027,7.461,7.4897,0.0,0.0,0.0,0.0,0.0,0.0,0.0,0.0,0.0,0.0,0.0,0.0,0.0,8.3377,8.4307,8.5349,8.4808,8.4646,8.4853,8.5688,8.6182,8.6334,8.7245,8.7663,8.7663,0.0,8.8118,8.884,8.884,8.9295,9.0016,9.0016,9.0016,9.0016,9.0016,9.0016,9.0016,9.0016,9.0016,9.0016,9.0016,9.0016,9.0016,9.0016,9.0016,9.0016,9.0016,9.0016,9.0016,9.0016,9.0016,9.0016,9.0016,9.0016,9.0016,9.0016,9.0016,9.0016,9.0016,8.9903,8.9789,8.9637,8.9476,8.9299,8.9076,8.8945,8.8795,8.8649,8.8612,8.8612,8.8612,8.8612,8.8612,8.8612,8.8612,8.8399,8.7703,8.6324,8.5382,8.5086,8.4746,8.4552,8.4552,8.4552,8.4552,8.4552,8.4552,8.4552,8.4552,8.4552,8.4552,6.8108,6.9495,6.9703,6.5876,6.6002,6.6817,6.5752,6.6109,6.5988,6.3465,6.6202,6.9297,7.0055,7.2351,7.4501,7.5577,7.4392,7.348,7.3857,7.2249,7.1952,7.4356,0.0,0.0,0.0,0.0,0.0,0.0,0.0,0.0,0.0,0.0,0.0,8.0872,8.2293,8.3128,8.331,8.232,8.2651,8.4208,8.4436,8.4549,8.4549,8.4815,8.4929,0.0,0.0,8.5764,8.7093,8.7093,8.7928,8.9219,8.9219,8.9219,8.9257,8.9523,8.9599,8.9637,8.9903,9.0016,9.0016,9.0016,9.0016,9.0016,9.0016,9.0016,9.0016,9.0016,9.0016,9.0016,9.0016,9.0016,9.0016,9.0016,9.0016,8.9979,8.9941,8.9941,8.994,8.9897,8.9705,8.955,8.953,8.9217,8.9019,8.8982,8.8795,8.8612,8.8612,8.8612,8.8612,8.8612,8.8612,8.8612,8.8612,8.8543,8.8176,8.7406,8.6201,8.5236,8.4583,8.4552,8.4552,8.4552,8.4552,8.4552,8.4552,8.4552,8.4449,8.4313,8.4313,8.4209,6.2426,6.4771,6.7251,6.6812,6.6956,6.7532,6.8732,6.6887,6.4874,6.4723,6.5257,6.6228,6.8069,6.88,7.0511,7.4668,7.4028,7.3458,7.4811,7.3928,7.3481,7.4385,7.3679,0.0,0.0,0.0,0.0,0.0,0.0,0.0,0.0,0.0,0.0,7.9115,7.9594,7.9994,8.0341,8.018,8.0335,8.0829,8.2158,8.2803,8.2841,8.4284,0.0,0.0,0.0,0.0,8.5347,8.5347,8.5499,8.5726,8.5726,8.5726,8.5916,8.7321,8.7852,8.8042,8.9485,9.0016,9.0016,9.0016,9.0016,9.0016,9.0016,9.0016,9.0016,9.0016,9.0016,9.0016,9.0016,9.0016,9.0016,9.0016,9.0016,8.9941,8.9713,8.9675,8.9626,8.9382,8.9315,8.9241,8.9168,8.9071,8.8945,8.8724,8.8649,8.8612,8.8612,8.8612,8.8612,8.8612,8.8612,8.8612,8.8612,8.8138,8.7234,8.5926,8.5641,8.5236,8.4583,8.4552,8.4552,8.4552,8.4552,8.4552,8.4552,8.4552,8.4071,8.3247,8.3247,8.2727,6.1186,6.1748,6.2959,6.4044,6.5076,6.6021,6.6853,6.708,6.6779,6.5829,6.5999,6.7046,6.9394,6.8856,6.9869,7.5562,7.5883,7.5383,7.5241,7.289,7.1306,7.1866,7.1766,0.0,0.0,0.0,0.0,0.0,0.0,0.0,0.0,0.0,7.8958,7.8958,7.9108,7.9364,7.969,7.9842,7.9956,8.007,8.0791,8.1171,8.1171,8.1968,0.0,0.0,0.0,0.0,8.36,8.36,8.4094,8.4929,8.4929,8.4929,8.5043,8.5802,8.6106,8.622,8.6979,8.7245,8.7397,8.8346,8.865,8.8802,8.9713,8.9371,8.865,8.865,8.9295,9.0016,9.0016,9.0016,9.0016,9.0016,8.9865,8.9751,8.9637,8.9486,8.9355,8.9234,8.9183,8.9113,8.9049,8.8907,8.8795,8.8649,8.8612,8.8612,8.8612,8.8612,8.8612,8.8612,8.8612,8.847,8.8138,8.7105,8.6218,8.5583,8.5211,8.4905,8.4619,8.4552,8.4552,8.4552,8.4552,8.4313,8.3719,8.3719,8.3103,8.2036,8.2036,8.1762,5.9816,0.0,5.8703,6.0882,6.2401,6.3608,0.0,6.6749,6.8131,6.6445,6.6814,6.8006,6.9858,6.8994,6.962,7.4527,7.5954,7.5919,7.4349,7.1687,7.005,7.0296,7.0583,7.1574,0.0,0.0,0.0,0.0,0.0,0.0,0.0,0.0,7.8493,7.8531,7.8335,7.8517,7.9196,7.9386,7.969,8.007,8.007,8.007,8.007,8.007,0.0,0.0,0.0,0.0,8.1892,8.1892,8.2651,8.379,8.379,8.379,8.3866,8.4208,8.436,8.4398,8.4815,8.4929,8.5157,8.6448,8.6865,8.7131,8.8422,8.789,8.6827,8.6741,8.7684,8.8788,8.9168,8.9282,8.9354,8.9733,8.9658,8.9497,8.9461,8.9309,8.9169,8.9094,8.9019,8.8945,8.8945,8.8795,8.8612,8.8612,8.8612,8.8612,8.8612,8.8612,8.8612,8.8612,8.8505,8.8213,8.7703,8.6324,8.5442,8.5297,8.484,8.4552,8.4552,8.4552,8.4449,8.4209,8.414,8.3683,8.2574,8.2574,8.1957,8.0821,8.0821,8.0736,0.0,5.4925,5.572,5.8884,5.9859,6.0846,6.4025,6.5851,0.0,6.6186,6.6814,6.7316,6.6896,6.7487,6.8158,6.8622,7.1245,7.2672,7.1102,7.1873,7.2422,7.1969,7.1565,0.0,0.0,0.0,0.0,0.0,0.0,0.0,0.0,0.0,7.6646,7.6742,7.5585,7.5857,7.7678,7.7716,7.8513,8.007,8.007,8.007,8.007,8.007,0.0,0.0,0.0,0.0,0.0,8.0259,8.0335,8.0449,8.0449,8.0449,8.0601,8.2082,8.2575,8.2841,8.4398,8.4929,8.4967,8.5081,8.5119,8.5157,8.5271,8.5157,8.4886,8.4646,8.4682,8.5136,8.6702,8.7119,8.7483,8.8929,8.9269,8.9224,8.9103,8.9049,8.8982,8.8724,8.8649,8.8649,8.8649,8.8649,8.8612,8.8612,8.8612,8.8612,8.8612,8.8612,8.8612,8.8612,8.8099,8.774,8.766,8.6324,8.5297,8.465,8.4583,8.4552,8.4552,8.4552,8.4071,8.3173,8.3099,8.2539,8.1355,8.1355,8.0736,7.9599,7.9599,7.912,5.4805,5.4583,5.4897,5.6175,5.7953,5.9815,6.1229,6.4233,6.6667,6.6681,6.7155,6.7485,6.7114,6.6776,6.7249,6.9283,7.0639,7.1699,7.2422,7.2979,7.2443,6.988,6.8826,0.0,0.0,0.0,0.0,0.0,0.0,0.0,0.0,0.0,7.473,7.3933,7.4403,7.5069,7.5969,7.5969,7.6311,7.6956,7.8019,7.8513,7.8551,7.9614,0.0,0.0,0.0,0.0,0.0,8.007,7.9994,7.9842,7.9842,7.9747,7.9685,8.0254,8.0481,8.0575,8.1418,8.167,8.1724,8.1868,8.2576,8.3372,8.3372,8.2424,8.1565,8.2509,8.3538,8.4517,8.5181,8.532,8.5745,8.7362,8.7663,8.7779,8.8824,8.8907,8.8724,8.8649,8.8612,8.8612,8.8612,8.8612,8.8612,8.8612,8.8612,8.8612,8.8612,8.8612,8.8612,8.8612,8.8061,8.7531,8.7132,8.5735,8.4775,8.4619,8.4552,8.4552,8.4552,8.3931,8.3394,8.2989,8.2307,8.1682,8.1273,8.0565,7.9633,7.8564,7.8564,7.8311,5.2992,5.2994,5.3085,5.3639,5.5335,5.7264,5.8548,6.2121,6.5364,6.6096,6.7126,6.7796,6.7513,6.6642,6.6617,6.8695,6.9426,7.0144,7.124,7.1824,7.1093,6.8367,6.7389,6.7316,0.0,0.0,0.0,0.0,0.0,0.0,0.0,7.3058,7.2859,7.1559,7.2534,7.3463,7.4223,7.4223,7.4489,7.5058,7.6197,7.6766,7.6804,7.7867,0.0,0.0,0.0,0.0,0.0,7.9848,7.9734,7.9577,7.9598,7.9482,7.9309,7.9309,7.9309,7.9343,7.9506,7.9581,7.9591,7.978,8.0559,8.1444,8.1444,8.044,7.9473,8.0631,8.175,8.2716,8.324,8.3366,8.382,8.5536,8.5765,8.6102,8.7748,8.7939,8.7976,8.8537,8.8612,8.8612,8.8612,8.8612,8.8612,8.8612,8.8612,8.8612,8.8612,8.8612,8.8612,8.8612,8.7864,8.7179,8.6706,8.5394,8.4552,8.4552,8.4552,8.4381,8.4071,8.3394,8.2651,8.1877,8.1107,8.0565,8.0166,7.9395,7.8626,7.7891,7.7891,7.7661,4.9583,4.9459,4.9775,5.1468,5.1801,5.2664,5.6317,5.9546,6.2344,6.4169,6.6603,6.8223,6.7555,6.6914,6.6282,6.5747,6.6964,6.7639,6.6618,6.7822,6.8565,6.8034,6.7989,6.7593,6.6526,0.0,0.0,0.0,0.0,0.0,0.0,7.0777,7.1107,6.9818,6.9781,7.0654,7.2476,7.2476,7.3312,7.4982,7.4982,7.502,7.4982,7.4754,7.5552,0.0,0.0,0.0,0.0,7.9258,7.9296,7.9302,7.9314,7.9295,7.9295,7.9295,7.9295,7.9295,7.9295,7.9301,7.9296,7.9296,7.9296,7.9296,7.9296,7.9181,7.9108,7.9108,7.8921,7.9115,8.0797,8.1246,8.1657,8.334,8.3751,8.42,8.5733,8.6107,8.663,8.8275,8.8612,8.8612,8.8612,8.8612,8.8612,8.8612,8.8612,8.8612,8.8612,8.8612,8.8612,8.8612,8.745,8.6656,8.6656,8.5394,8.4552,8.4552,8.4516,8.4071,8.3024,8.3024,8.1877,7.9509,7.9509,7.8934,7.7891,7.7891,7.7891,7.7924,7.7924,7.7097,4.9255,4.9062,4.9072,4.9585,5.0505,5.2019,5.4724,5.8803,6.2446,6.4175,6.6399,6.7521,6.5976,6.4902,6.4239,6.4074,6.3849,6.4028,6.5207,6.6083,6.5857,6.3748,6.5545,6.5898,0.0,0.0,0.0,0.0,0.0,0.0,0.0,6.8788,6.8437,6.8148,6.9287,7.016,7.073,7.073,7.0958,7.1489,7.2666,7.3198,7.316,7.4185,7.4842,7.5236,0.0,0.0,0.0,7.7174,7.755,7.75,7.8709,7.907,7.8921,7.8921,7.8921,7.8921,7.9108,7.9178,7.919,7.9265,7.9303,7.904,7.7688,7.8007,7.8846,7.8846,7.8808,7.8816,7.9339,7.9451,7.99,8.162,8.1994,8.248,8.4125,8.5321,8.6256,8.6742,8.7826,8.8612,8.8612,8.8612,8.8612,8.8612,8.8612,8.8612,8.8612,8.8612,8.8612,8.8612,8.745,8.6656,8.6656,8.5394,8.4552,8.4552,8.3861,8.3321,8.3024,8.1438,8.0185,7.9509,7.8781,7.7759,7.632,7.632,7.5768,7.481,7.481,7.4593,4.8998,4.8716,4.8565,4.8694,4.9422,5.0923,5.3938,5.7426,6.0931,6.392,6.5443,6.5972,6.5059,6.3755,6.2474,6.1661,6.1116,6.0882,6.1024,6.2028,6.198,5.985,6.1916,6.2776,0.0,0.0,0.0,0.0,0.0,0.0,0.0,6.673,6.6364,6.644,6.811,6.8984,6.8984,6.9629,6.9971,7.0009,7.0996,7.1451,7.1337,7.2173,7.2872,7.3365,0.0,0.0,0.0,7.5321,7.5658,7.5592,7.6639,7.6909,7.6759,7.6759,7.6759,7.6797,7.6946,7.705,7.705,7.7125,7.7163,7.6938,7.575,7.6498,7.7769,7.7769,7.8217,7.8704,7.8704,7.8704,7.8965,8.0012,8.0236,8.0723,8.2405,8.3527,8.4387,8.506,8.648,8.7602,8.7602,8.8163,8.8612,8.8612,8.8612,8.8612,8.8612,8.8612,8.8612,8.8612,8.745,8.6656,8.6656,8.5394,8.4552,8.4552,8.354,8.2762,8.2307,8.0479,7.927,7.8874,7.7661,7.6525,7.5631,7.4994,7.4344,7.352,7.352,7.315,4.8792,4.8472,4.8261,4.8497,4.8617,4.9607,5.3489,5.5842,5.8469,6.3115,6.3849,6.3844,6.4324,6.2689,6.0653,5.8734,5.8556,5.7907,5.5533,5.6755,5.7561,5.6473,5.7841,5.8887,5.8887,6.042,0.0,0.0,0.0,0.0,0.0,6.4541,6.4693,6.4693,6.6326,6.7199,6.7199,6.8908,6.9743,6.9743,6.9895,6.9895,6.9739,6.9506,7.0179,7.146,0.0,0.0,0.0,7.3581,7.3619,7.3656,7.3806,7.3814,7.3785,7.3843,7.3814,7.3785,7.3843,7.388,7.388,7.388,7.3768,7.3656,7.359,7.4719,7.6132,7.6281,7.7365,7.8486,7.8666,7.8704,7.8704,7.8704,7.8704,7.9152,8.0685,8.1134,8.1695,8.3265,8.4835,8.592,8.6107,8.7378,8.8462,8.8612,8.8612,8.8612,8.8612,8.8612,8.8612,8.8612,8.745,8.6656,8.6656,8.5394,8.4552,8.4552,8.3432,8.2385,8.1239,8.0044,7.8968,7.7989,7.6423,7.5526,7.542,7.3903,7.315,7.3067,7.3067,7.2348,4.8415,4.8269,4.8215,4.8261,4.8519,4.9445,5.2029,5.504,5.7934,6.0109,6.1954,6.2562,6.0685,5.8813,5.7189,5.6103,5.4973,5.4442,5.509,5.5127,5.5024,5.4775,5.6121,5.7093,5.7093,5.8663,0.0,0.0,0.0,0.0,6.0663,6.217,6.3099,6.3099,6.4617,6.5453,6.5453,6.7123,6.7996,6.7996,6.9249,6.9723,6.9459,6.9343,6.9394,6.9591,6.9516,0.0,0.0,7.1375,7.1899,7.2011,7.3357,7.3629,7.3295,7.3689,7.3629,7.3332,7.3756,7.388,7.388,7.388,7.2983,7.1805,7.1393,7.2449,7.408,7.5381,7.6013,7.6673,7.8306,7.8704,7.8704,7.8704,7.8704,7.8816,7.919,8.0311,8.1396,8.1732,8.3153,8.4686,8.5882,8.6406,8.7079,8.8425,8.8612,8.8612,8.8612,8.8612,8.8612,8.8612,8.745,8.6656,8.6656,8.5394,8.4552,8.4552,8.2733,8.1519,8.1273,7.9337,7.815,7.7989,7.6423,7.5101,7.3935,7.2433,7.1115,6.9897,6.9897,6.9803,4.826,4.8064,4.7977,4.8305,4.8596,4.9372,5.1591,5.3552,5.5799,5.885,5.8845,5.8463,5.8998,5.6371,5.3955,5.3349,5.2461,5.1921,5.2096,5.2741,5.3221,5.3221,5.4625,5.5934,5.6697,5.7497,5.8319,0.0,0.0,0.0,5.8545,6.0324,6.1404,6.139,6.2861,6.3687,6.3782,6.5415,6.663,6.7389,6.8186,6.8835,6.9297,6.9248,6.9132,6.8993,6.8751,0.0,6.8701,6.9226,6.9457,6.9569,7.0422,7.0617,7.04,7.0687,7.0617,7.0437,7.0687,7.0958,7.1121,7.0893,7.0199,6.9424,6.9144,7.0178,7.1692,7.2579,7.3392,7.4503,7.6673,7.7219,7.7476,7.8486,7.8143,7.7806,7.8554,7.9414,8.005,8.005,8.1396,8.3078,8.4723,8.562,8.6705,8.8387,8.8612,8.8612,8.8612,8.8612,8.8612,8.8612,8.745,8.6656,8.6656,8.5394,8.4552,8.4552,8.2469,8.1273,8.1273,7.9094,7.7562,7.6863,7.5346,7.3903,7.2318,7.0875,6.9773,6.9015,6.8008,6.7564,4.8288,4.8057,4.7881,4.8509,4.8792,4.9408,5.1238,5.1995,5.3389,5.7401,5.5567,5.4197,5.7254,5.425,5.119,5.0787,5.0512,4.9925,4.8923,5.0438,5.1637,5.1637,5.3173,5.4689,5.5997,5.6297,0.0,0.0,0.0,0.0,5.6948,5.8304,5.9253,5.9561,6.0732,6.1568,6.2067,6.3623,6.5068,6.6358,6.6876,6.7725,6.8758,6.9057,6.9132,6.8993,0.0,0.0,6.8205,6.7633,6.744,6.744,6.744,6.74,6.732,6.74,6.736,6.732,6.74,6.7745,6.7997,6.7442,6.736,6.744,6.732,6.8199,6.9302,6.9558,7.0662,7.2259,7.4466,7.5059,7.5501,7.7353,7.6744,7.6214,7.7582,7.8105,7.8367,7.8666,7.9863,8.1358,8.3041,8.4648,8.6256,8.7939,8.8425,8.8612,8.8612,8.8612,8.8612,8.8612,8.745,8.6656,8.6656,8.5394,8.4552,8.4552,8.2469,8.1273,8.1273,7.9094,7.723,7.5631,7.4266,7.2694,7.1174,6.9649,6.8859,6.8449,6.6857,6.585,4.8611,4.8415,4.8275,4.8784,4.9209,4.9571,4.9958,5.115,5.2316,5.2945,5.3067,5.3028,5.29,5.112,4.9554,4.9146,4.8788,4.8603,4.8777,4.9427,4.99,4.99,5.1376,5.2484,5.271,5.4044,5.5031,5.5398,5.5332,5.5189,5.5007,5.5201,5.601,5.7508,5.7703,5.8497,5.9887,6.1562,6.2481,6.2736,6.5457,6.6836,6.7038,6.8422,6.9057,6.8993,0.0,0.0,6.8205,6.7633,6.744,6.744,6.744,6.7119,6.6695,6.7243,6.7119,6.6695,6.7243,6.7479,6.744,6.6827,6.6957,6.736,6.6784,6.676,6.7231,6.8692,6.9283,6.9929,7.2181,7.2785,7.2942,7.3648,7.3678,7.3704,7.4383,7.5675,7.7096,7.8442,7.889,7.9601,8.1283,8.3003,8.4648,8.6219,8.7714,8.8612,8.8612,8.8612,8.8612,8.8612,8.745,8.6656,8.6656,8.5394,8.4552,8.4552,8.2469,8.1273,8.1273,7.9094,7.723,7.5631,7.4266,7.2694,7.1174,6.9649,6.8136,6.6435,6.6275,6.5182,4.8469,4.8512,4.8588,4.8727,4.9125,4.9393,4.927,4.9788,5.0531,5.1206,5.0705,5.0409,5.1413,4.9638,4.831,0.0,0.0,0.0,4.9151,4.956,4.9777,0.0,5.0451,0.0,5.2229,5.2899,5.3716,0.0,5.3896,5.3253,5.3091,5.4063,5.4879,5.5483,5.6586,5.7392,5.7933,5.9701,6.1018,6.1902,6.3305,6.4346,6.5206,6.6851,6.7418,6.7189,0.0,6.7558,6.717,6.6687,6.6495,6.6495,6.6495,6.6307,6.6064,6.5858,6.5943,6.6028,6.5858,6.5248,6.453,6.4687,6.4349,6.3955,6.4579,6.4735,6.5094,6.6725,6.7156,6.7628,6.9892,7.0472,7.0822,7.2313,7.2136,7.201,7.3142,7.351,7.3972,7.5287,7.6334,7.7749,8.0283,8.1607,8.3228,8.5733,8.6742,8.7565,8.8499,8.8612,8.8612,8.8612,8.7786,8.7048,8.6743,8.5735,8.4933,8.4583,8.2469,8.1273,8.1273,7.9094,7.6794,7.4485,7.3824,7.2263,6.9991,6.9363,6.8008,6.6143,6.502,6.3659,4.8286,4.8234,4.8425,4.8354,4.8624,4.8823,4.855,4.8513,4.8753,4.9483,4.8384,4.7779,4.9546,0.0,0.0,4.8603,4.8586,0.0,4.9436,4.9815,0.0,4.9963,0.0,5.0456,5.1709,5.1757,0.0,0.0,5.233,5.1494,5.1242,5.2516,5.3359,5.3578,5.5003,5.6051,5.6703,5.8065,5.956,6.1144,6.1556,6.2303,6.3411,6.498,6.5461,6.513,6.616,6.6331,6.589,6.5722,6.5715,6.568,6.5468,6.5415,6.5326,6.4504,6.4527,6.4961,6.4139,6.3102,6.228,6.286,6.2141,6.1256,6.2433,6.3075,6.361,6.4788,6.5394,6.6121,6.7749,6.8183,6.8662,7.0584,7.0398,7.0173,7.1537,7.1468,7.1338,7.2095,7.3615,7.5614,7.8387,8.0027,8.2014,8.506,8.5845,8.6555,8.7826,8.835,8.8612,8.8612,8.8061,8.7406,8.6756,8.6346,8.5751,8.4778,8.3291,8.2068,8.1471,7.9475,7.6946,7.352,7.352,7.2061,6.9015,6.9015,6.775,6.5317,6.407,6.2126,4.8177,4.7483,4.7522,4.7656,4.7611,4.7575,4.7665,4.7502,4.7208,4.6775,4.6183,4.5862,0.0,0.0,4.6389,4.7192,4.7918,4.8667,4.9436,4.9815,4.9963,0.0,0.0,0.0,0.0,0.0,0.0,4.9998,0.0,4.9634,4.9503,4.9465,5.0176,5.1784,5.1933,5.3466,5.6532,5.6644,5.7541,5.9238,6.0869,6.1654,6.178,6.2985,6.348,6.3531,6.4088,6.4314,6.4334,6.5292,6.5715,6.5627,6.4848,6.462,6.4469,6.3589,6.3273,6.3208,6.2245,6.2083,6.2224,6.2224,6.1693,6.1042,6.1113,6.2183,6.3396,6.3503,6.4574,6.5715,6.5839,6.5874,6.6194,6.7417,6.7662,6.778,6.8323,6.9606,7.0467,7.0023,7.1304,7.3035,7.4641,7.7935,8.1142,8.3536,8.5172,8.6144,8.6219,8.7639,8.8612,8.8612,8.8061,8.7406,8.6756,8.7365,8.6979,8.5205,8.5342,8.4395,8.1925,8.0625,7.7877,7.352,7.352,7.2061,6.9015,6.9015,6.7175,6.3494,6.3356,6.147,5.0414,4.8331,4.6085,4.6125,4.5072,4.4342,4.5383,4.5095,4.4629,4.4798,4.4674,4.4535,4.4535,4.5375,4.6314,4.7117,4.7801,4.8571,4.9463,4.9711,4.9873,4.9952,4.9952,4.9956,0.0,0.0,0.0,4.9629,4.9573,4.9465,4.9259,4.9185,4.9446,5.0044,5.1148,5.227,5.3429,5.5522,5.6868,5.7504,5.9187,5.9815,5.9536,6.106,6.1397,6.0913,6.2126,6.2205,6.1542,6.1922,6.2286,6.2673,6.2437,6.2846,6.3526,6.265,6.265,6.3079,6.2108,6.0585,5.9248,6.036,5.9191,5.7458,5.8496,5.9168,6.0051,6.2135,6.3178,6.3923,6.5325,6.5715,6.5936,6.6651,6.6827,6.6999,6.7595,6.815,6.8404,6.7758,6.9019,7.0374,7.0921,7.3802,7.7292,8.0994,8.2926,8.4488,8.5924,8.7565,8.8612,8.8612,8.8435,8.8272,8.8174,8.8445,8.8092,8.668,8.6069,8.501,8.3314,8.1222,7.8467,7.4909,7.3924,7.2061,6.9015,6.9015,6.7044,6.3356,6.3356,6.147,5.1218,4.9044,4.6551,4.5697,4.4307,4.3388,4.419,4.3904,4.3511,4.3728,4.3744,4.3795,4.3981,4.496,4.6078,4.7084,4.778,4.8536,4.937,4.9596,4.9724,4.9839,4.9868,0.0,0.0,0.0,0.0,4.9498,4.9505,4.9428,4.9185,4.9185,4.9185,4.9185,5.0288,5.1111,5.1709,5.384,5.5485,5.6569,5.7728,5.836,5.8617,5.9403,5.9438,5.8929,6.024,6.0303,5.9646,5.993,6.0319,6.0706,6.0607,6.1142,6.1968,6.1554,6.1579,6.1654,6.1006,5.9286,5.7581,5.8972,5.7505,5.542,5.6437,5.7155,5.7945,5.9885,6.1362,6.2728,6.4189,6.513,6.5835,6.6376,6.6479,6.657,6.6999,6.7119,6.695,6.6366,6.7124,6.8074,6.8578,7.1015,7.4067,7.7526,8.0311,8.2778,8.5064,8.7266,8.8612,8.8612,8.8612,8.8732,8.9018,8.9537,8.9156,8.7672,8.7335,8.6332,8.4179,8.1475,7.8646,7.5625,7.3717,7.1472,6.9015,6.9015,6.7044,6.3356,6.3356,6.147,5.0393,4.9403,4.8958,4.6575,4.5494,4.4959,4.4382,4.4199,4.4031,4.3465,4.3335,4.3518,4.4048,4.4701,4.5591,4.6981,4.7775,4.848,4.9255,4.9488,4.9574,4.9574,4.9702,4.9746,0.0,4.9642,4.9493,4.9402,4.9365,4.9316,4.9185,4.9185,4.9185,4.9185,4.9185,4.9989,5.1597,5.1671,5.3316,5.6495,5.6532,5.7467,5.9052,5.8144,5.7758,5.7729,5.8427,5.8687,5.8665,5.9594,5.9909,5.9885,5.9652,5.9539,5.9672,6.0272,5.98,5.8821,5.8885,5.8228,5.7386,5.8214,5.6977,5.5144,5.5144,5.621,5.7297,5.6714,5.9328,6.2301,6.2371,6.4029,6.5835,6.6376,6.6479,6.6433,6.6479,6.6479,6.6282,6.5835,6.5715,6.6179,6.7695,6.9796,7.1765,7.3372,7.7335,8.0994,8.3387,8.6518,8.8499,8.8612,8.8612,8.8769,8.9055,9.0473,9.0385,8.8057,8.9337,8.8509,8.4606,8.164,7.8694,7.5687,7.267,7.0421,6.9015,6.8888,6.7016,6.3356,6.3356,6.1327,5.1238,5.018,4.8252,4.8063,4.6461,4.5235,4.6392,4.59,4.509,4.434,4.3963,4.3813,4.3947,4.5006,4.6119,4.7084,4.7785,4.8489,4.9275,4.9425,4.9473,4.9698,4.967,4.9612,4.9617,4.9574,4.949,4.9385,4.9353,4.9316,4.9185,4.9185,4.9185,4.9185,4.9185,4.9409,4.9857,5.1073,5.2793,5.4887,5.6008,5.7467,5.9089,5.8434,5.7822,5.7365,5.8289,5.7728,5.6216,5.7134,5.7142,5.6497,5.5853,5.6454,5.759,5.777,5.7156,5.6466,5.8255,5.7342,5.5591,5.7154,5.5865,5.3653,5.3653,5.3925,5.4505,5.545,5.7723,6.028,6.1944,6.4029,6.5835,6.6376,6.6175,6.6015,6.6423,6.6175,6.585,6.5732,6.5715,6.5822,6.6286,6.7801,6.9826,7.2313,7.5009,7.7838,8.0882,8.3476,8.5994,8.8387,8.8612,8.9216,9.0633,9.1096,9.0854,8.9664,8.9921,8.8985,8.6153,8.219,7.9139,7.7175,7.3245,7.0421,6.9015,6.7564,6.5745,6.3356,6.1985,6.008,5.1505,5.1242,4.922,4.8772,4.7871,4.7111,4.7196,4.7146,4.6742,4.5554,4.5104,4.4975,4.5235,4.5987,4.6811,0.0,4.8114,4.8571,4.9221,4.9316,4.9391,4.9578,4.9494,4.9451,4.9535,4.9453,4.9376,4.9278,4.9316,4.9259,4.9185,4.9185,4.9185,4.9185,4.9185,4.9185,4.9185,5.0176,5.1858,5.4251,5.5149,5.6831,5.9052,5.8784,5.8263,5.7696,5.8639,5.8519,5.7564,5.6832,5.6257,5.5695,5.4491,5.4405,5.5029,5.4591,5.4777,5.5516,5.7463,5.7506,5.6776,5.7222,5.6058,5.4329,5.3362,5.3073,5.3242,5.4179,5.6611,5.9297,6.1011,6.3533,6.5783,6.6114,6.5915,6.5783,6.6114,6.5901,6.5715,6.5715,6.5715,6.5715,6.5715,6.721,6.9171,7.1277,7.3242,7.6044,8.0318,8.2689,8.5251,8.8462,8.8795,8.9514,9.1167,9.1352,9.1236,9.1029,9.0527,8.9348,8.7469,8.2615,7.9181,7.7823,7.3315,7.0428,6.9015,6.6988,6.5155,6.3356,6.2267,6.1184,5.1422,5.2185,5.0941,4.9262,4.9649,4.9811,0.0,0.0,4.8852,4.7364,4.6905,4.6989,4.7505,4.7639,4.7851,4.8522,4.8617,4.8745,4.9128,4.9185,4.9222,4.9391,4.9277,4.9276,4.9555,4.9324,4.9189,4.9185,4.9185,4.9185,4.9185,4.9185,4.9185,4.9185,4.9185,4.9185,4.9185,4.9185,5.0886,5.4214,5.4214,5.5934,5.9089,5.9089,5.8921,5.8618,5.9268,6.0249,6.1161,5.8169,5.683,5.6338,5.452,5.317,5.2145,5.1529,5.2822,5.4993,5.6501,5.819,5.9269,5.7923,5.7007,5.604,5.3718,5.3013,5.2952,5.3073,5.5732,5.8881,5.98,6.2754,6.5501,6.5747,6.5732,6.5715,6.5783,6.5732,6.5715,6.5715,6.5715,6.5732,6.5783,6.7399,6.9144,7.0428,7.2181,7.5396,8.0939,8.321,8.5578,8.872,8.9019,8.9553,9.0949,9.124,9.1561,9.2145,9.0886,8.9695,8.8433,8.2776,7.9051,7.7736,7.3292,7.0137,6.8732,6.6726,6.4885,6.3356,6.3106,6.3275,0.0,0.0,0.0,0.0,0.0,0.0,0.0,5.1109,5.0904,5.0614,5.0298,5.0042,5.0071,5.004,4.9749,4.8744,4.8617,4.8745,4.9128,4.9185,4.9259,4.9503,4.9299,4.9287,4.9575,4.9315,4.9183,4.9166,4.9185,4.9185,4.9185,4.9185,4.9185,4.9185,4.9185,4.9185,4.9185,4.9185,5.0886,5.4214,5.4214,5.5934,5.9089,5.9089,5.9554,6.0314,6.0065,6.1298,6.3314,6.0562,5.8283,5.6235,5.3187,5.1037,4.9811,5.0707,5.1498,5.2699,5.5671,5.7341,5.8309,5.8435,5.7164,5.5302,5.3572,5.2645,5.2238,5.2891,5.4948,5.7474,5.952,6.1939,6.4211,6.5899,6.6015,6.5835,6.6271,6.6015,6.5715,6.5715,6.5715,6.5799,6.6271,6.6676,6.785,7.0474,7.2721,7.596,8.1139,8.3292,8.5568,8.8712,8.9019,8.9066,8.9145,9.0546,9.1561,9.2145,9.0886,8.9695,8.8433,8.2776,7.9051,7.7736,7.3292,6.956,6.6698,6.475,6.3796,6.3356,6.1844,6.2739,0.0,0.0,0.0,0.0,0.0,0.0,0.0,0.0,0.0,0.0,0.0,5.0476,0.0,0.0,5.0187,5.0328,4.9583,4.9045,4.9259,4.9222,4.9259,4.954,4.9379,4.9379,4.9633,4.9503,4.9391,4.9391,4.9316,4.9259,4.9259,4.9222,4.9185,4.9185,4.9185,4.9185,4.9185,4.9222,5.0961,5.4309,5.4396,5.6114,5.9187,5.9187,5.9914,6.1227,6.1228,6.2484,6.4463,6.3304,6.0821,5.7452,5.442,5.2015,5.0291,5.0705,5.2158,5.4166,5.6444,5.9011,6.1081,6.0188,5.8623,5.6789,5.4807,5.3936,5.3811,5.4635,5.6487,5.8832,6.1093,6.2537,6.3804,6.5656,6.5901,6.5783,6.6015,6.5901,6.5715,6.5715,6.5901,6.6175,6.6469,6.7023,6.8323,7.0937,7.3104,7.6278,8.1372,8.3551,8.522,8.6728,8.7531,8.7493,8.6376,8.8646,9.0554,9.171,9.0738,8.9976,8.9348,8.4579,8.0607,7.7767,7.4736,7.0831,6.6143,6.5155,6.4207,6.3356,6.4216,6.6313,0.0,0.0,0.0,0.0,0.0,0.0,0.0,0.0,0.0,0.0,0.0,0.0,0.0,0.0,0.0,5.1895,5.0565,4.9388,4.9353,4.9316,4.9353,4.9578,4.9491,4.9497,4.9745,4.9633,4.9573,4.9573,4.946,4.9408,4.9391,4.9259,0.0,4.9185,4.9185,4.9185,4.9185,4.9316,5.1075,5.4428,0.0,0.0,5.9339,5.9306,6.0346,6.2129,6.229,6.3551,6.5414,6.561,6.3355,5.9505,5.7094,5.4692,5.2594,5.1616,5.343,5.6514,5.7786,6.103,6.4326,6.2311,6.0755,5.9204,5.6628,5.596,0.0,5.6613,5.8338,6.0581,6.2766,6.3411,6.3953,6.5492,6.585,6.585,6.585,6.5783,6.5715,6.5715,6.6126,6.6524,6.6651,6.7701,6.9158,7.1008,7.3203,7.6349,8.1208,8.3622,8.5094,8.5599,8.6653,8.6685,8.5105,8.7086,8.9264,9.1242,9.0529,8.9947,8.9772,8.5608,8.1427,7.7393,7.5349,7.1667,6.6143,6.6351,6.5767,6.4451,6.7508,7.0218,0.0,0.0,0.0,0.0,0.0,0.0,0.0,0.0,0.0,0.0,0.0,0.0,0.0,0.0,0.0,0.0,5.065,4.9516,4.9409,4.9465,4.9578,4.9727,4.9642,4.9625,4.9746,4.9639,4.9582,4.9582,4.9544,4.949,4.9372,0.0,0.0,0.0,0.0,4.9185,4.9185,4.9316,5.1073,5.4451,5.4559,5.6309,5.9457,5.9325,6.0958,6.3797,6.2806,6.421,6.7104,6.6126,6.4542,6.2643,6.0781,5.8748,5.6523,5.3557,5.4439,0.0,0.0,0.0,0.0,6.41,6.3311,6.2019,5.8383,5.7873,5.8361,5.761,5.8717,6.0581,6.2766,6.3729,6.447,6.6025,6.6387,6.6387,6.6387,6.6015,6.5715,6.5715,6.6126,6.6659,6.7243,6.8308,6.9259,6.9587,7.2394,0.0,7.9804,8.2904,8.5881,8.8773,0.0,0.0,8.8492,8.7517,8.8233,9.1169,9.0087,8.9031,8.8333,8.3103,7.8766,7.5874,7.2968,6.9647,6.6143,6.7478,6.8027,6.7911,6.9637,7.1126,0.0,0.0,0.0,0.0,0.0,0.0,0.0,0.0,0.0,0.0,0.0,0.0,0.0,0.0,0.0,0.0,5.2297,5.1452,5.2302,5.169,5.082,4.9876,4.9733,4.9721,4.9871,4.9824,4.9819,4.9819,4.9722,4.9634,4.9502,4.9423,4.9316,4.9185,4.9185,4.9185,4.9185,5.0345,5.2151,5.4581,5.5758,5.7464,5.9608,5.9452,6.1149,0.0,6.3246,6.4616,6.74,6.6505,6.5068,0.0,0.0,0.0,0.0,0.0,5.7804,5.9693,6.0328,6.317,6.6478,6.6155,6.4953,6.335,6.1743,6.1322,6.1322,6.0944,6.1369,6.2398,6.4273,6.446,6.447,6.5718,6.6271,6.6423,6.6114,6.585,6.5715,6.5715,0.0,0.0,6.8613,6.9082,7.0291,7.3136,7.4121,7.6546,0.0,8.3928,8.5295,8.6753,8.7453,8.7444,8.6401,8.7316,0.0,0.0,0.0,9.0425,8.9346,8.5451,0.0,0.0,0.0,0.0,0.0,0.0,0.0,0.0,7.0538,7.1589,0.0,0.0,0.0,0.0,0.0,0.0,0.0,0.0,0.0,0.0,0.0,0.0,0.0,0.0,0.0,0.0,0.0,5.3545,5.5129,5.4367,5.3372,5.2696,5.1367,5.0722,5.1292,5.0494,5.0153,5.0608,5.0566,5.0659,5.0987,5.0878,5.0756,5.0624,5.0587,5.0587,5.0624,5.2047,5.3653,5.5385,5.6826,5.833,5.977,5.9623,6.1263,6.4221,6.3547,6.4831,6.74,6.674,6.5586,6.4243,6.4481,6.3676,6.2211,6.0764,6.0908,6.1811,6.237,6.4835,6.7633,6.7633,6.6523,6.5001,6.4405,6.4278,6.4241,6.3773,6.3956,6.4468,6.5614,6.5358,6.4967,6.5549,6.6078,6.6329,6.5835,6.5715,6.5715,6.5715,6.6776,6.8039,6.9219,6.977,7.1087,7.4145,0.0,0.0,8.2637,8.4494,8.5585,8.6157,8.7015,8.7028,8.5807,8.7279,8.9154,0.0,9.1046,9.066,9.0219,8.7054,8.2391,7.5991,7.383,7.0156,0.0,0.0,0.0,0.0,0.0,0.0,0.0,0.0,0.0,0.0,0.0,0.0,0.0,0.0,0.0,0.0,0.0,0.0,0.0,0.0,0.0,0.0,0.0,0.0,5.7033,5.7119,5.7656,5.9523,5.5392,5.3038,5.4708,5.1899,5.0646,5.2279,5.2392,5.3085,5.4578,5.4522,5.439,5.4255,5.4122,5.4122,5.4255,5.4422,5.5451,5.7252,5.7442,5.8429,6.0059,5.9818,6.1453,6.4471,6.3685,6.4911,6.74,6.674,6.6443,6.6352,6.5829,6.5342,6.4691,6.3627,6.2939,6.2853,6.488,6.6718,6.8205,6.8205,6.8168,6.773,6.5537,6.601,6.6997,6.5313,6.5608,6.6397,6.6433,6.6433,6.6257,6.5799,6.6078,6.6329,6.5835,6.5715,6.5715,6.5715,6.7078,6.8261,6.8435,7.0234,7.1169,6.9819,7.4949,0.0,7.9444,8.3784,8.7498,8.9296,8.9285,8.912,8.9049,8.7635,8.8086,9.1169,8.9011,8.8379,9.0116,8.6084,8.1899,7.7736,7.3459,6.9792,6.6775,0.0,0.0,0.0,0.0,0.0,0.0,0.0,0.0,0.0,0.0,0.0,0.0,0.0,0.0,0.0,0.0,0.0,0.0,0.0,0.0,0.0,0.0,0.0,0.0,0.0,5.7955,5.9865,5.7556,5.6493,5.8201,5.6303,5.4746,5.4177,5.4139,5.3849,5.3172,5.4083,5.4587,5.4425,5.4309,5.4289,5.4417,5.5659,5.6659,5.7366,5.8619,5.953,6.0061,5.9802,6.1464,6.4513,6.406,6.5409,6.7962,6.7708,6.7634,6.7634,6.7437,6.6776,6.5925,6.5582,6.4595,6.3767,6.5582,6.6617,6.726,6.8378,6.8751,6.8611,6.7859,6.7789,6.7851,6.7295,6.7117,6.7036,6.6606,6.7046,6.7287,6.6001,6.6412,6.6864,6.5936,6.5965,6.6223,6.6223,6.817,6.9816,6.9965,7.1819,7.3088,7.2578,7.627,7.9893,8.2131,8.5008,8.7588,8.9427,8.9395,8.9196,8.9236,8.9588,9.0233,9.1279,9.0028,8.9546,9.0219,8.4351,8.0433,7.914,7.465,7.0868,6.7703,0.0,0.0,0.0,0.0,0.0,0.0,0.0,0.0,0.0,0.0,0.0,0.0,0.0,0.0,0.0,0.0,0.0,0.0,0.0,0.0,0.0,0.0,0.0,0.0,0.0,0.0,6.1577,5.9264,0.0,5.991,5.7974,5.6683,5.6797,5.6835,5.6584,5.5968,5.677,5.695,5.6238,5.6046,5.6024,5.6226,5.7406,5.81,5.8353,5.9492,6.0062,6.0061,5.9876,6.1568,6.461,6.4405,6.5805,6.8319,6.8442,6.8498,6.8498,6.8498,6.8052,6.7375,6.7375,6.6702,6.5917,6.7001,6.7375,6.7562,6.8683,6.8609,6.8197,6.8833,6.837,6.7717,6.8349,6.8137,6.7633,6.7206,6.7366,6.7366,6.6541,6.6732,6.695,6.6449,6.6597,6.706,6.7782,6.9993,7.1642,7.1188,7.2678,7.3989,7.4075,7.7412,8.0866,8.3559,8.6107,8.8183,8.9348,8.9332,8.9196,8.9236,9.054,9.1352,9.1352,9.0641,8.9978,8.9462,8.3723,7.9883,7.8257,7.4729,7.1584,0.0,0.0,0.0,0.0,0.0,0.0,0.0,0.0,0.0,0.0,0.0,0.0,0.0,0.0,0.0,0.0,0.0,0.0,0.0,0.0,0.0,0.0,0.0,0.0,0.0,0.0,0.0,6.4692,6.0783,0.0,0.0,0.0,0.0,5.9834,6.0062,6.0707,6.2264,6.2126,6.126,5.9546,5.9336,5.9299,5.9486,5.9494,5.9684,6.0059,6.0061,6.0062,6.0062,6.0176,6.1837,6.4714,6.4693,6.6111,6.8473,6.8863,6.9057,6.9057,6.9057,6.8982,6.8908,6.8982,6.8982,6.8908,6.8982,6.8993,6.902,6.8908,6.7786,6.6776,6.8309,6.7711,0.0,0.0,6.8552,6.8271,6.8238,6.7406,6.6747,6.732,6.7036,6.674,6.7283,6.7552,6.8185,0.0,7.23,7.3282,7.1721,0.0,7.3759,7.3695,7.8007,8.1844,8.3452,8.6925,8.9224,8.9205,8.9206,8.9196,8.9236,9.0466,9.1279,9.1352,9.05,8.9393,8.8106,8.4019,7.9762,7.5704,7.3393,0.0,0.0,0.0,0.0,0.0,0.0,0.0,0.0,0.0,0.0,0.0,0.0,0.0,0.0,0.0,0.0,0.0,0.0,0.0,0.0,0.0,0.0,0.0,0.0,0.0,0.0,6.2004,6.2707,6.4692,6.3782,6.3213,0.0,0.0,0.0,0.0,0.0,0.0,5.8885,6.0919,6.1368,5.9673,6.0593,6.0593,5.9486,5.9494,5.9595,5.9791,5.9972,6.0062,6.01,6.1352,6.2973,6.4805,6.5908,6.7405,6.9012,6.9115,6.9169,6.9169,6.9282,6.8459,6.7412,6.8683,6.8272,6.73,6.8571,6.9095,6.8945,6.7562,0.0,6.644,6.5667,0.0,0.0,0.0,0.0,6.8722,6.8303,0.0,6.8201,6.7595,6.7633,6.7745,6.7479,6.8666,7.002,0.0,7.159,7.1123,6.8443,0.0,0.0,0.0,0.0,8.1519,8.1882,8.6181,8.9224,8.9205,8.9206,8.9196,8.9236,8.9477,9.0107,9.1279,8.8562,8.7226,8.8037,8.1053,7.6491,7.5109,0.0,0.0,0.0,0.0,0.0,0.0,0.0,0.0,0.0,0.0,0.0,0.0,0.0,0.0,0.0,0.0,0.0,0.0,0.0,0.0,0.0,0.0,0.0,0.0,0.0,0.0,0.0,6.082,6.1646,6.3667,6.3896,6.4162,0.0,0.0,0.0,0.0,0.0,0.0,0.0,0.0,0.0,6.0803,6.0773,6.0736,6.0691,5.991,5.9661,5.9848,5.9996,6.0062,6.01,6.1049,6.2709,6.4868,6.5605,6.7283,6.9468,6.9356,6.9273,6.9273,0.0,0.0,0.0,0.0,0.0,6.7636,6.7909,0.0,0.0,0.0,0.0,0.0,0.0,0.0,0.0,0.0,0.0,0.0,0.0,0.0,0.0,6.8205,6.8205,6.8205,6.8171,6.8447,6.8842,0.0,6.9805,6.9516,6.7023,0.0,0.0,0.0,0.0,0.0,8.2181,8.6368,8.9224,8.9205,8.9206,8.9196,8.9236,8.9107,8.9427,9.0253,8.7466,8.554,8.5144,7.9375,7.5169,0.0,0.0,0.0,0.0,0.0,0.0,0.0,0.0,0.0,0.0,0.0,0.0,0.0,0.0,0.0,0.0,0.0,0.0,0.0,0.0,0.0,0.0,0.0,0.0,0.0,0.0,0.0,0.0,0.0,6.0275,6.2338,0.0,0.0,0.0,0.0,0.0,0.0,0.0,0.0,0.0,0.0,0.0,0.0,0.0,0.0,6.2533,6.086,6.025,6.0669,6.0479,6.0403,6.0403,6.0859,6.2453,6.4921,6.4894,0.0,7.0093,6.9897,0.0,0.0,0.0,0.0,0.0,0.0,0.0,0.0,0.0,0.0,0.0,0.0,0.0,0.0,0.0,0.0,0.0,0.0,0.0,0.0,0.0,0.0,6.8027,6.8304,6.8172,6.8058,0.0,6.7337,6.6403,6.6178,0.0,0.0,0.0,0.0,0.0,0.0,0.0,0.0,8.2854,8.6705,8.9253,8.9253,8.9236,8.9196,8.9236,8.8922,8.8804,8.9024,8.6515,8.3935,8.1393,7.852,0.0,0.0,0.0,0.0,0.0,0.0,0.0,0.0,0.0,0.0,0.0,0.0,0.0,0.0,0.0,0.0,0.0,0.0,0.0,0.0,0.0,0.0,0.0,0.0,0.0,0.0,0.0,0.0,0.0,0.0,0.0,0.0,0.0,0.0,0.0,0.0,0.0,0.0,0.0,0.0,0.0,0.0,0.0,0.0,0.0,0.0,0.0,0.0,0.0,0.0,0.0,6.215,6.2226,6.4959,6.5718,6.4996,6.6243,6.8711,7.1871,0.0,0.0,0.0,0.0,0.0,0.0,0.0,0.0,0.0,0.0,0.0,0.0,0.0,0.0,0.0,0.0,0.0,0.0,0.0,0.0,0.0,0.0,0.0,0.0,0.0,6.5828,6.6399,0.0,0.0,0.0,0.0,0.0,0.0,0.0,0.0,0.0,0.0,0.0,0.0,7.9875,8.5396,8.9296,8.953,8.9353,8.9196,8.9236,8.7931,8.7646,8.8951,8.4231,8.1183,0.0,0.0,0.0,0.0,0.0,0.0,0.0,0.0,0.0,0.0,0.0,0.0,0.0,0.0,0.0,0.0,0.0,0.0,0.0,0.0,0.0,0.0,0.0,0.0,0.0,0.0,0.0,0.0,0.0,0.0,0.0,0.0,0.0,0.0,0.0,0.0,0.0,0.0,0.0,0.0,0.0,0.0,0.0,0.0,0.0,0.0,0.0,0.0,0.0,0.0,0.0,0.0,0.0,0.0,0.0,0.0,0.0,0.0,0.0,7.0903,0.0,0.0,0.0,0.0,0.0,0.0,0.0,0.0,0.0,0.0,0.0,0.0,0.0,0.0,0.0,0.0,0.0,0.0,0.0,0.0,0.0,0.0,0.0,0.0,0.0,0.0,0.0,0.0,0.0,0.0,0.0,0.0,0.0,0.0,0.0,0.0,0.0,0.0,0.0,0.0,8.1444,8.6061,8.93,8.9595,8.9362,8.9196,8.9236,8.7672,8.6619,8.6509,8.2685,0.0,0.0,0.0,0.0,0.0,0.0,0.0,0.0,0.0,0.0,0.0,0.0,0.0,0.0,0.0,0.0,0.0,0.0,0.0,0.0,0.0,0.0,0.0,0.0,0.0,0.0,0.0,0.0,0.0,0.0,0.0,0.0,0.0,0.0,0.0,0.0,0.0,0.0,0.0,0.0,0.0,0.0,0.0,0.0,0.0,0.0,0.0,0.0,0.0,0.0,0.0,0.0,0.0,0.0,0.0,0.0,0.0,0.0,0.0,7.0085,0.0,0.0,0.0,0.0,0.0,0.0,0.0,0.0,0.0,0.0,0.0,0.0,0.0,0.0,0.0,0.0,0.0,0.0,0.0,0.0,0.0,0.0,0.0,0.0,0.0,0.0,0.0,0.0,0.0,0.0,0.0,0.0,0.0,0.0,0.0,0.0,0.0,0.0,0.0,0.0,0.0,8.3237,8.6948,8.941,8.9674,8.94,8.9196,8.9236,8.7672,8.6009,8.4285,0.0,0.0,0.0,0.0,0.0,0.0,0.0,0.0,0.0,0.0,0.0,0.0,0.0,0.0,0.0,0.0,0.0,0.0,0.0,0.0,0.0,0.0,0.0,0.0,0.0,0.0,0.0,0.0,0.0,0.0,0.0,0.0,0.0,0.0,0.0,0.0,0.0,0.0,0.0,0.0,0.0,0.0,0.0,0.0,0.0,0.0,0.0,0.0,0.0,0.0,0.0,0.0,0.0,0.0,0.0,0.0,0.0,0.0,0.0,0.0,0.0,0.0,0.0,0.0,0.0,0.0,0.0,0.0,0.0,0.0,0.0,0.0,0.0,0.0,0.0,0.0,0.0,0.0,0.0,0.0,0.0,0.0,0.0,0.0,0.0,0.0,0.0,0.0,0.0,0.0,0.0,0.0,0.0,0.0,0.0,0.0,0.0,0.0,0.0,0.0,0.0,0.0,8.2167,8.6598,8.9673,8.9941,8.9514,8.9196,8.9236,8.7672,8.6009,8.4285,0.0,0.0,0.0,0.0,0.0,0.0,0.0,0.0,0.0,0.0,0.0,0.0,0.0,0.0,0.0,0.0,0.0,0.0,0.0,0.0,0.0,0.0,0.0,0.0,0.0,0.0,0.0,0.0,0.0,0.0,0.0,0.0,0.0,0.0,0.0,0.0,0.0,0.0,0.0,0.0,0.0,0.0,0.0,0.0,0.0,0.0,0.0,0.0,0.0,0.0,0.0,0.0,0.0,0.0,0.0,0.0,0.0,0.0,0.0,0.0,0.0,0.0,0.0,0.0,0.0,0.0,0.0,0.0,0.0,0.0,0.0,0.0,0.0,0.0,0.0,0.0,0.0,0.0,0.0,0.0,0.0,0.0,0.0,0.0,0.0,0.0,0.0,0.0,0.0,0.0,0.0,0.0,0.0,0.0,0.0,0.0,0.0,0.0,0.0,0.0,0.0,0.0,8.3389,8.7166,8.9713,8.9979,8.9514,8.9196,8.9236,8.7672,8.5569,8.289,0.0,0.0,0.0,0.0,0.0,0.0,0.0,0.0,0.0,0.0,0.0,0.0,0.0,0.0,0.0,0.0,0.0,0.0,0.0,0.0,0.0,0.0,0.0,0.0,0.0,0.0,0.0,0.0,0.0,0.0,0.0,0.0,0.0,0.0,0.0,0.0,0.0,0.0,0.0,0.0,0.0,0.0,0.0,0.0,0.0,0.0,0.0,0.0,0.0,0.0,0.0,0.0,0.0,0.0,0.0,0.0,0.0,0.0,0.0,0.0,0.0,0.0,0.0,0.0,0.0,0.0,0.0,0.0,0.0,0.0,0.0,0.0,0.0,0.0,0.0,0.0,0.0,0.0,0.0,0.0,0.0,0.0,0.0,0.0,0.0,0.0,0.0,0.0,0.0,0.0,0.0,0.0,0.0,0.0,0.0,0.0,0.0,0.0,0.0,0.0,0.0,0.0,0.0,8.7701,8.9789,8.9979,8.9514,8.9196,8.9236,8.7672,8.5312,8.2057,0.0,0.0,0.0,0.0,0.0,0.0,0.0,0.0,0.0,0.0,0.0,0.0,0.0,0.0,0.0,0.0,0.0,0.0,0.0,0.0,0.0,0.0,0.0,0.0,0.0,0.0,0.0,0.0,0.0,0.0,0.0,0.0,0.0,0.0,0.0,0.0,0.0,0.0,0.0,0.0,0.0,0.0,0.0,0.0,0.0,0.0,0.0,0.0,0.0,0.0,0.0,0.0,0.0,0.0,0.0,0.0,0.0,0.0,0.0,0.0,0.0,0.0,0.0,0.0,0.0,0.0,0.0,0.0,0.0,0.0,0.0,0.0,0.0,0.0,0.0,0.0,0.0,0.0,0.0,0.0,0.0,0.0,0.0,0.0,0.0,0.0,0.0,0.0,0.0,0.0,0.0,0.0,0.0,0.0,0.0,0.0,0.0,0.0,0.0,0.0,0.0,0.0,8.4504,8.789,9.0016,9.0016,8.9514,8.9196,8.9236,8.7672,8.5312,0.0,0.0,0.0,0.0,0.0,0.0,0.0,0.0,0.0,0.0,0.0,0.0,0.0,0.0,0.0,0.0,0.0,0.0,0.0,0.0,0.0,0.0,0.0,0.0,0.0,0.0,0.0,0.0,0.0,0.0,0.0,0.0,0.0,0.0,0.0,0.0,0.0,0.0,0.0,0.0,0.0,0.0,0.0,0.0,0.0,0.0,0.0,0.0,0.0,0.0,0.0,0.0,0.0,0.0,0.0,0.0,0.0,0.0,0.0,0.0,0.0,0.0,0.0,0.0,0.0,0.0,0.0,0.0,0.0,0.0,0.0,0.0,0.0,0.0,0.0,0.0,0.0,0.0,0.0,0.0,0.0,0.0,0.0,0.0,0.0,0.0,0.0,0.0,0.0,0.0,0.0,0.0,0.0,0.0,0.0,0.0,0.0,0.0,0.0,0.0,0.0,0.0,0.0,8.4352,8.6903,8.8726,0.0,8.9514,8.9196,8.9236,8.7672,8.5312,8.2057,0.0,0.0,0.0,0.0,0.0,0.0,0.0,0.0,0.0,0.0,0.0,0.0,0.0,0.0,0.0,0.0,0.0,0.0,0.0,0.0,0.0,0.0,0.0,0.0,0.0,0.0,0.0,0.0,0.0,0.0,0.0,0.0,0.0,0.0,0.0,0.0,0.0,0.0,0.0,0.0,0.0,0.0,0.0,0.0,0.0,0.0,0.0,0.0,0.0,0.0,0.0,0.0,0.0,0.0,0.0,0.0,0.0,0.0,0.0,0.0,0.0,0.0,0.0,0.0,0.0,0.0,0.0,0.0,0.0,0.0,0.0,0.0,0.0,0.0,0.0,0.0,0.0,0.0,0.0,0.0,0.0,0.0,0.0,0.0,0.0,0.0,0.0,0.0,0.0,0.0,0.0,0.0,0.0,0.0,0.0,0.0,0.0,0.0,0.0,0.0,0.0,0.0,0.0,8.6954,8.884,0.0,8.9514,8.9196,8.9236,8.7925,8.5554,8.2057,0.0,0.0,0.0,0.0,0.0,0.0,0.0,0.0,0.0,0.0,0.0,0.0,0.0,0.0,0.0,0.0,0.0,0.0,0.0,0.0,0.0,0.0,0.0,0.0,0.0,0.0,0.0,0.0,0.0,0.0,0.0,0.0,0.0,0.0,0.0,0.0,0.0,0.0,0.0,0.0,0.0,0.0,0.0,0.0,0.0,0.0,0.0,0.0,0.0,0.0,0.0,0.0,0.0,0.0,0.0,0.0,0.0,0.0,0.0,0.0,0.0,0.0,0.0,0.0,0.0,0.0,0.0,0.0,0.0,0.0,0.0,0.0,0.0,0.0,0.0,0.0,0.0,0.0,0.0,0.0,0.0,0.0,0.0,0.0,0.0,0.0,0.0,0.0,0.0,0.0,0.0,0.0,0.0,0.0,0.0,0.0,0.0,0.0,0.0,0.0,0.0,0.0,0.0,8.7776,8.9861,8.9979,8.9514,8.9196,8.9236,8.8284,8.6001,8.2104,8.1229,0.0,0.0,0.0,0.0,0.0,0.0,0.0,0.0,0.0,0.0,0.0,0.0,0.0,0.0,0.0,0.0,0.0,0.0,0.0,0.0,0.0,0.0,0.0,0.0,0.0,0.0,0.0,0.0,0.0,0.0,0.0,0.0,0.0,0.0,0.0,0.0,0.0,0.0,0.0,0.0,0.0,0.0,0.0,0.0,0.0,0.0,0.0,0.0,0.0,0.0,0.0,0.0,0.0,0.0,0.0,0.0,0.0,0.0,0.0,0.0,0.0,0.0,0.0,0.0,0.0,0.0,0.0,0.0,0.0,0.0,0.0,0.0,0.0,0.0,0.0,0.0,0.0,0.0,0.0,0.0,0.0,0.0,0.0,0.0,0.0,0.0,0.0,0.0,0.0,0.0,0.0,0.0,0.0,0.0,0.0,0.0,0.0,0.0,0.0,0.0,0.0,0.0,8.7272,8.8355,8.9861,8.9514,8.9196,8.9236,8.8284,8.6001,8.2104,8.1229,0.0,0.0,0.0,0.0,0.0,0.0,0.0,0.0,0.0,0.0,0.0,0.0,0.0,0.0,0.0,0.0,0.0,0.0,0.0,0.0,0.0,0.0,0.0,0.0,0.0,0.0,0.0,0.0,0.0,0.0,0.0,0.0,0.0,0.0,0.0,0.0,0.0,0.0,0.0,0.0,0.0,0.0,0.0,0.0,0.0,0.0,0.0,0.0,0.0,0.0,0.0,0.0,0.0,0.0,0.0,0.0,0.0,0.0,0.0,0.0,0.0,0.0,0.0,0.0,0.0,0.0,0.0,0.0,0.0,0.0,0.0,0.0,0.0,0.0,0.0,0.0,0.0,0.0,0.0,0.0,0.0,0.0,0.0,0.0,0.0,0.0,0.0,0.0,0.0,0.0,0.0,0.0,0.0,0.0,0.0,0.0,0.0,0.0,0.0,0.0,0.0,0.0,8.5321,8.69,8.9705,8.9514,8.9196,8.9236,8.8549,8.6415,8.2546,8.1967,0.0,0.0,0.0,0.0,0.0,0.0,0.0,0.0,0.0,0.0,0.0,0.0,0.0,0.0,0.0,0.0,0.0,0.0,0.0,0.0,0.0,0.0,0.0,0.0,0.0,0.0,0.0,0.0,0.0,0.0,0.0,0.0,0.0,0.0,0.0,0.0,0.0,0.0,0.0,0.0,0.0,0.0,0.0,0.0,0.0,0.0,0.0,0.0,0.0,0.0,0.0,0.0,0.0,0.0,0.0,0.0,0.0,0.0,0.0,0.0,0.0,0.0,0.0,0.0,0.0,0.0,0.0,0.0,0.0,0.0,0.0,0.0,0.0,0.0,0.0,0.0,0.0,0.0,0.0,0.0,0.0,0.0,0.0,0.0,0.0,0.0,0.0,0.0,0.0,0.0,0.0,0.0,0.0,0.0,0.0,0.0,0.0,0.0,0.0,0.0,0.0,0.0,0.0,8.5972,8.9194,8.9341,8.9196,8.9199,8.887,8.6943,8.3032,0.0,0.0,0.0,0.0,0.0,0.0,0.0,0.0,0.0,0.0,0.0,0.0,0.0,0.0,0.0,0.0,0.0,0.0,0.0,0.0,0.0,0.0,0.0,0.0,0.0,0.0,0.0,0.0,0.0,0.0,0.0,0.0,0.0,0.0,0.0,0.0,0.0,0.0,0.0,0.0,0.0,0.0,0.0,0.0,0.0,0.0,0.0,0.0,0.0,0.0,0.0,0.0,0.0,0.0,0.0,0.0,0.0,0.0,0.0,0.0,0.0,0.0,0.0,0.0,0.0,0.0,0.0,0.0,0.0,0.0,0.0,0.0,0.0,0.0,0.0,0.0,0.0,0.0,0.0,0.0,0.0,0.0,0.0,0.0,0.0,0.0,0.0,0.0,0.0,0.0,0.0,0.0,0.0,0.0,0.0,0.0,0.0,0.0,0.0,0.0,0.0,0.0,0.0,0.0,0.0,8.7308,8.849,8.9158,8.9049,8.8795,8.6943,8.3032,0.0,0.0,0.0,0.0,0.0,0.0,0.0,0.0,0.0,0.0,0.0,0.0,0.0,0.0]}],[{"header":{"parameterUnit":"kt","parameterCategory":2,"dx":1,"dy":1,"la1":29.285339999999998,"la2":30.599998999999997,"lo1":-89.70041500000002,"lo2":-87.6738589999976,"nx":112,"ny":82,"refTime":"2022-10-01T18:00:00:Z","depth":0,"parameterNumber":2,"parameterNumberName":"V-component_of_WINDS"},"data":[4.058,4.2123,0.0,4.1231,3.9532,0.0,3.4981,0.0,0.0,0.0,0.0,0.0,0.0,0.0,0.0,0.0,0.0,0.0,0.0,2.4397,0.0,0.0,0.0,0.0,0.0,0.0,0.0,0.0,0.0,0.0,0.0,0.0,1.6759,1.7352,1.7378,1.7378,1.7378,1.7378,1.7378,1.7378,1.7378,1.7378,1.7378,1.7378,1.7378,1.7378,1.7378,1.7385,1.6967,1.3274,0.9346,0.5212,0.1524,0.0,0.0,0.0,0.0,0.0,0.0,0.0,0.0,0.0,0.0,0.0,0.0,0.0,0.0,0.0,0.0,0.0,0.0,0.0,0.0,0.0,0.0,0.0,0.0,0.0,0.0,0.0,0.0,0.0,0.0,0.0,0.0,0.0,0.0,0.0,0.0,0.0,0.0,0.0,0.0,0.0,0.0,0.0,0.0,0.0,0.0,0.0,0.0,0.0,0.0,0.0,0.0,0.0,0.0,0.0,0.0,0.0,0.0,0.0,0.0,0.0,4.1326,3.9902,0.0,0.0,0.0,0.0,0.0,0.0,0.0,0.0,0.0,0.0,0.0,0.0,0.0,0.0,0.0,0.0,0.0,0.0,0.0,0.0,0.0,0.0,0.0,0.0,0.0,0.0,0.0,1.6488,1.6759,1.7352,1.7378,1.7378,1.7378,1.7378,1.7378,1.7378,1.7378,1.7378,1.7378,1.7378,1.7378,1.7378,1.7378,1.7391,1.6987,1.3279,0.9353,0.5435,0.1524,0.0,0.0,0.0,0.0,0.0,0.0,0.0,0.0,0.0,0.0,0.0,0.0,0.0,0.0,0.0,0.0,0.0,0.0,0.0,0.0,0.0,0.0,0.0,0.0,0.0,0.0,0.0,0.0,0.0,0.0,0.0,0.0,0.0,0.0,0.0,0.0,0.0,0.0,0.0,0.0,0.0,0.0,0.0,0.0,0.0,0.0,0.0,0.0,0.0,0.0,0.0,0.0,0.0,0.0,0.0,0.0,0.0,0.0,0.0,0.0,0.0,0.0,3.8768,0.0,0.0,0.0,0.0,3.0578,0.0,0.0,0.0,0.0,0.0,0.0,0.0,0.0,0.0,0.0,0.0,0.0,0.0,0.0,0.0,0.0,0.0,0.0,0.0,0.0,0.0,1.6416,1.6482,1.6759,1.7339,1.7372,1.7378,1.7378,1.7378,1.7378,1.7378,1.7378,1.7378,1.7378,1.7378,1.7378,1.7378,1.7378,1.7209,1.7287,1.707,1.0244,0.0,0.0,0.0,0.0,0.0,0.0,0.0,0.0,0.0,0.0,0.0,0.0,0.0,0.0,0.0,0.0,0.0,0.0,0.0,0.0,0.0,0.0,0.0,0.0,0.0,0.0,0.0,0.0,0.0,0.0,0.0,0.0,0.0,0.0,0.0,0.0,0.0,0.0,0.0,0.0,0.0,0.0,0.0,0.0,0.0,0.0,0.0,0.0,0.0,0.0,0.0,0.0,0.0,0.0,0.0,0.0,0.0,0.0,0.0,0.0,0.0,3.5221,0.0,0.0,0.0,0.0,0.0,0.0,0.0,0.0,0.0,0.0,0.0,0.0,0.0,0.0,0.0,0.0,0.0,0.0,0.0,0.0,0.0,0.0,0.0,0.0,0.0,0.0,0.0,0.0,0.0,1.6145,1.6376,1.666,1.7042,1.726,1.7378,1.7378,1.7378,1.7378,1.7378,1.7378,1.7378,1.7378,1.7378,1.7378,1.7378,1.7378,1.7196,1.7019,1.2846,0.6735,0.0,0.0,0.0,0.0,0.0,0.0,0.0,0.0,0.0,0.0,0.0,0.0,0.0,0.0,0.0,0.0,0.0,0.0,0.0,0.0,0.0,0.0,0.0,0.0,0.0,0.0,0.0,0.0,0.0,0.0,0.0,0.0,0.0,0.0,0.0,0.0,0.0,0.0,0.0,0.0,0.0,0.0,0.0,0.0,0.0,0.0,0.0,0.0,0.0,0.0,0.0,0.0,0.0,0.0,0.0,0.0,0.0,0.0,0.0,0.0,0.0,0.0,0.0,0.0,0.0,0.0,0.0,3.5526,0.0,3.2724,0.0,0.0,0.0,0.0,0.0,0.0,0.0,0.0,0.0,0.0,0.0,0.0,0.0,0.0,0.0,0.0,0.0,0.0,0.0,0.0,1.5447,1.6047,1.6225,1.6501,1.6917,1.7101,1.7246,1.7378,1.7378,1.7378,1.7378,1.7378,1.7378,1.7378,1.7378,1.7378,1.7378,1.7378,1.7196,1.6809,1.1091,0.5214,0.0,0.0,0.0,0.0,0.0,0.0,0.0,0.0,0.0,0.0,0.0,0.0,0.0,0.0,0.0,0.0,0.0,0.0,0.0,0.0,0.0,0.0,0.0,0.0,0.0,0.0,0.0,0.0,0.0,0.0,0.0,0.0,0.0,0.0,0.0,0.0,0.0,0.0,0.0,0.0,0.0,0.0,0.0,0.0,0.0,0.0,0.0,0.0,0.0,0.0,0.0,0.0,0.0,0.0,0.0,0.0,0.0,0.0,0.0,0.0,0.0,0.0,0.0,0.0,0.0,3.8061,0.0,0.0,0.0,0.0,0.0,0.0,0.0,0.0,0.0,0.0,0.0,0.0,0.0,0.0,0.0,0.0,0.0,0.0,0.0,0.0,0.0,0.0,1.5605,1.5381,1.5466,1.6,1.606,1.631,1.6818,1.6864,1.7022,1.7319,1.7326,1.7339,1.7378,1.7378,1.7378,1.7378,1.7378,1.7378,1.7378,1.7378,1.7209,1.6847,1.1099,0.5218,0.0,0.0,0.0,0.0,0.0,0.0,0.0,0.0,0.0,0.0,0.0,0.0,0.0,0.0,0.0,0.0,0.0,0.0,0.0,0.0,0.0,0.0,0.0,0.0,0.0,0.0,0.0,0.0,0.0,0.0,0.0,0.0,0.0,0.0,0.0,0.0,0.0,0.0,0.0,0.0,0.0,0.0,0.0,0.0,0.0,0.0,0.0,0.0,0.0,0.0,0.0,0.0,0.0,0.0,0.0,0.0,0.0,0.0,0.0,0.0,0.0,0.0,0.0,0.0,0.0,0.0,3.685,0.0,0.0,0.0,0.0,0.0,0.0,0.0,0.0,0.0,0.0,0.0,0.0,0.0,0.0,0.0,0.0,0.0,0.0,0.0,0.0,1.5565,1.5625,1.5572,1.5592,1.5704,1.5948,1.6126,1.6238,1.6455,1.6719,1.7016,1.7016,1.7134,1.7378,1.7378,1.7378,1.7378,1.7378,1.7378,1.7378,1.7378,1.7209,1.6847,1.1099,0.5218,0.0,0.0,0.0,0.0,0.0,0.0,0.0,0.0,0.0,0.0,0.0,0.0,0.0,0.0,0.0,0.0,0.0,0.0,0.0,0.0,0.0,0.0,0.0,0.0,0.0,0.0,0.0,0.0,0.0,0.0,0.0,0.0,0.0,0.0,0.0,0.0,0.0,0.0,0.0,0.0,0.0,0.0,0.0,0.0,0.0,0.0,0.0,0.0,0.0,0.0,0.0,0.0,0.0,0.0,0.0,0.0,0.0,0.0,0.0,0.0,0.0,0.0,0.0,0.0,3.4389,0.0,0.0,0.0,0.0,3.6013,0.0,0.0,0.0,0.0,0.0,0.0,0.0,0.0,0.0,0.0,0.0,0.0,0.0,0.0,0.0,0.0,0.0,1.5625,1.5625,1.5625,1.5625,1.5625,1.577,1.5921,1.6073,1.6211,1.6416,1.6706,1.6712,1.6785,1.693,1.7082,1.7154,1.7154,1.7306,1.7378,1.7378,1.7378,1.7209,1.6847,1.1099,0.5218,0.0,0.0,0.0,0.0,0.0,0.0,0.0,0.0,0.0,0.0,0.0,0.0,0.0,0.0,0.0,0.0,0.0,0.0,0.0,0.0,0.0,0.0,0.0,0.0,0.0,0.0,0.0,0.0,0.0,0.0,0.0,0.0,0.0,0.0,0.0,0.0,0.0,0.0,0.0,0.0,0.0,0.0,0.0,0.0,0.0,0.0,0.0,0.0,0.0,0.0,0.0,0.0,0.0,0.0,0.0,0.0,0.0,0.0,0.0,0.0,0.0,0.0,0.0,0.0,0.0,0.0,0.0,3.7425,3.7206,3.6896,0.0,0.0,0.0,0.0,0.0,0.0,0.0,0.0,0.0,0.0,0.0,0.0,0.0,0.0,0.0,0.0,0.0,1.5625,1.5625,1.5625,1.5625,1.5625,1.5625,1.5737,1.5981,1.5987,1.6126,1.6403,1.6409,1.6436,1.6488,1.6732,1.6844,1.6851,1.7095,1.7233,1.7293,1.7293,1.7157,1.6847,1.1099,0.5218,0.0,0.0,0.0,0.0,0.0,0.0,0.0,0.0,0.0,0.0,0.0,0.0,0.0,0.0,0.0,0.0,0.0,0.0,0.0,0.0,0.0,0.0,0.0,0.0,0.0,0.0,0.0,0.0,0.0,0.0,0.0,0.0,0.0,0.0,0.0,0.0,0.0,0.0,0.0,0.0,0.0,0.0,0.0,0.0,0.0,0.0,0.0,0.0,0.0,0.0,0.0,0.0,0.0,-0.1066,-0.1483,-0.1482,-0.1455,-0.1439,-0.1434,-0.1434,-0.1433,3.2473,3.2837,3.3957,0.0,0.0,0.0,4.0537,4.0661,0.0,0.0,0.0,0.0,0.0,0.0,0.0,0.0,0.0,0.0,0.0,0.0,0.0,0.0,0.0,0.0,0.0,0.0,1.5625,1.5625,1.5625,1.5625,1.5625,1.5625,1.5638,1.5677,1.5677,1.5822,1.6119,1.6119,1.6244,1.6488,1.6521,1.6534,1.6541,1.6567,1.6732,1.6976,1.6976,1.718,1.6847,1.1099,0.5218,0.0,0.0,0.0,0.0,0.0,0.0,0.0,0.0,0.0,0.0,0.0,0.0,0.0,0.0,0.0,0.0,0.0,0.0,0.0,0.0,0.0,0.0,0.0,0.0,0.0,0.0,0.0,0.0,0.0,0.0,0.0,0.0,0.0,0.0,0.0,0.0,0.0,0.0,0.0,0.0,0.0,0.0,0.0,0.0,0.0,0.0,0.0,0.0,0.0,0.0,0.0,0.0,0.0,-0.4583,-0.6874,-0.6874,-0.6924,-0.6988,-0.6876,-0.6876,-0.6876,3.3665,3.4009,3.4294,3.5109,0.0,0.0,3.9032,3.9788,0.0,0.0,0.0,0.0,0.0,0.0,0.0,0.0,0.0,0.0,0.0,0.0,0.0,0.0,0.0,0.0,0.0,0.0,0.0,0.0,1.5625,1.5625,1.5625,1.5625,1.5625,1.5625,1.5625,1.5684,1.5816,1.5816,1.5875,1.5987,1.6165,1.6251,1.6258,1.6416,1.6554,1.6673,1.6699,1.6917,1.6148,0.7206,0.2112,0.0,0.0,0.0,0.0,0.0,0.0,0.0,0.0,0.0,0.0,0.0,0.0,0.0,0.0,0.0,0.0,0.0,0.0,0.0,0.0,0.0,0.0,0.0,0.0,0.0,0.0,0.0,0.0,0.0,0.0,0.0,0.0,0.0,0.0,0.0,0.0,0.0,0.0,0.0,0.0,0.0,0.0,0.0,0.0,0.0,0.0,0.0,0.0,0.0,0.0,0.0,0.0,0.0,-0.8089,-1.074,-0.774,-1.0794,-1.2241,-1.2339,-1.2339,-1.2333,3.5064,0.0,0.0,0.0,0.0,0.0,0.0,0.0,0.0,0.0,0.0,0.0,0.0,0.0,0.0,0.0,0.0,0.0,0.0,0.0,0.0,0.0,0.0,0.0,0.0,0.0,0.0,0.0,1.5625,1.5625,1.5625,1.5625,1.5625,1.5625,1.5625,1.5625,1.5625,1.5625,1.5625,1.5631,1.5849,1.5954,1.5961,1.6159,1.6297,1.6376,1.6416,1.5523,1.3608,0.7014,0.2678,0.0,0.0,0.0,0.0,0.0,0.0,0.0,0.0,0.0,0.0,0.0,0.0,0.0,0.0,0.0,0.0,0.0,0.0,0.0,0.0,0.0,0.0,0.0,0.0,0.0,0.0,0.0,0.0,0.0,0.0,0.0,0.0,0.0,0.0,0.0,0.0,0.0,0.0,0.0,0.0,0.0,0.0,0.0,0.0,0.0,0.0,0.0,0.0,0.0,0.0,0.0,-0.0612,-0.2033,-1.1027,-1.3614,-0.9969,-1.3803,-1.5503,-1.5503,-1.5503,-1.5496,0.0,0.0,0.0,4.3727,4.2839,4.2389,4.5877,4.4532,4.2939,0.0,0.0,0.0,0.0,0.0,0.0,0.0,0.0,0.0,0.0,0.0,0.0,0.0,0.0,0.0,0.0,0.0,0.0,0.0,0.0,1.5625,1.5625,1.5625,1.5625,1.5625,1.5625,1.5625,1.5625,1.5625,1.5625,1.5625,1.5638,1.5638,1.5638,1.5651,1.5816,1.6093,1.6112,1.3076,0.8445,1.3152,0.9192,0.0,0.0,0.0,0.0,0.0,0.0,0.0,0.0,0.0,0.0,0.0,0.0,0.0,0.0,0.0,0.0,0.0,0.0,0.0,0.0,0.0,0.0,0.0,0.0,0.0,0.0,0.0,0.0,0.0,0.0,0.0,0.0,0.0,0.0,0.0,0.0,0.0,0.0,0.0,0.0,0.0,0.0,0.0,0.0,0.0,0.0,0.0,0.0,0.0,0.0,0.0,-0.2347,-0.7429,-1.276,-1.5555,-1.5341,-1.547,-1.5631,-1.5631,-1.5631,-1.5631,3.9042,4.0705,4.205,4.4222,4.511,4.5517,4.6018,4.6192,4.6056,0.0,0.0,0.0,0.0,0.0,0.0,0.0,0.0,0.0,0.0,0.0,0.0,0.0,0.0,0.0,0.0,0.0,0.0,0.0,0.0,0.0,1.5625,1.5625,1.5625,1.5625,1.5625,1.5625,1.5625,1.5625,1.5625,1.5625,1.5625,1.5625,1.5625,1.5625,1.5684,1.5776,1.5816,1.4659,1.25,0.7329,0.3181,0.0,0.0,0.0,0.0,0.0,0.0,0.0,0.0,0.0,0.0,0.0,0.0,0.0,0.0,0.0,0.0,0.0,0.0,0.0,0.0,0.0,0.0,0.0,0.0,0.0,0.0,0.0,0.0,0.0,0.0,0.0,0.0,0.0,0.0,0.0,0.0,0.0,0.0,0.0,0.0,0.0,0.0,0.0,0.0,0.0,0.0,0.0,-0.3157,-0.5112,-0.5075,-0.8407,-1.116,-1.2922,-1.4707,-1.5496,-1.5464,-1.5638,-1.5625,-1.5625,-1.5625,-1.5625,4.1464,4.2998,4.4097,4.6585,4.7695,4.8209,4.8322,4.7995,4.7343,0.0,0.0,0.0,0.0,0.0,0.0,0.0,0.0,0.0,0.0,0.0,0.0,0.0,0.0,0.0,0.0,0.0,0.0,0.0,0.0,0.0,1.5625,1.5625,1.5625,1.5625,1.5625,1.5625,1.5625,1.5625,1.5625,1.5625,1.5625,1.5625,1.5625,1.5644,1.5457,1.5457,1.3505,1.1754,0.9421,0.2743,0.0,0.0,0.0,0.0,0.0,0.0,0.0,0.0,0.0,0.0,0.0,0.0,0.0,0.0,0.0,0.0,0.0,0.0,0.0,0.0,0.0,0.0,0.0,0.0,0.0,0.0,0.0,0.0,0.0,0.0,0.0,0.0,0.0,0.0,0.0,0.0,0.0,0.0,0.0,0.0,0.0,0.0,0.0,0.0,0.0,0.0,-0.1584,-0.5281,-0.8797,-1.0558,-1.0554,-1.3722,-1.5503,-1.5477,-1.5477,-1.5464,-1.5625,-1.5625,-1.5625,-1.5625,-1.5625,-1.5625,4.3042,4.5583,4.7563,5.0867,5.0807,5.0448,5.2557,4.9821,4.7324,0.0,0.0,0.0,0.0,0.0,0.0,0.0,0.0,0.0,0.0,0.0,0.0,0.0,0.0,0.0,0.0,0.0,0.0,0.0,0.0,0.0,1.5625,1.5625,1.5625,1.5625,1.5625,1.5625,1.5625,1.5625,1.5625,1.5625,1.5625,1.5625,1.5625,1.5477,1.5302,1.4506,0.9572,0.449,0.0,0.0,0.0,0.0,0.0,0.0,0.0,0.0,0.0,0.0,0.0,0.0,0.0,0.0,0.0,0.0,0.0,0.0,0.0,0.0,0.0,0.0,0.0,0.0,0.0,0.0,0.0,0.0,0.0,0.0,0.0,0.0,0.0,0.0,0.0,0.0,0.0,0.0,0.0,0.0,0.0,0.0,0.0,0.0,-0.0202,-0.04,-0.0392,-0.0586,-0.508,-1.4932,-1.5529,-1.5516,-1.5496,-1.5496,-1.5477,-1.5625,-1.5625,-1.5625,-1.5625,-1.5625,-1.5625,-1.5625,-1.5625,-1.5625,4.5739,4.799,4.9564,5.2005,5.2397,5.2205,5.2042,5.1656,5.0995,0.0,0.0,0.0,0.0,0.0,0.0,0.0,0.0,0.0,0.0,0.0,0.0,0.0,0.0,0.0,0.0,0.0,0.0,0.0,0.0,0.0,1.5625,1.5625,1.5625,1.5625,1.5625,1.5625,1.5625,1.5625,1.5625,1.5625,1.5625,1.5625,1.5625,1.5477,1.1346,0.3907,0.2545,0.1176,0.0,0.0,0.0,0.0,0.0,0.0,0.0,0.0,0.0,0.0,0.0,0.0,0.0,0.0,0.0,0.0,0.0,0.0,0.0,0.0,0.0,0.0,0.0,0.0,0.0,0.0,0.0,0.0,0.0,0.0,0.0,0.0,0.0,0.0,0.0,0.0,0.0,0.0,0.0,0.0,0.0,0.0,0.0,0.0,-0.3543,-0.589,-0.5858,-0.9378,-1.2728,-1.5309,-1.5477,-1.5457,-1.5644,-1.5644,-1.5638,-1.5625,-1.5625,-1.5625,-1.5625,-1.5625,-1.5625,-1.5625,-1.5625,-1.5625,4.4823,4.7405,4.9613,5.1785,5.2322,5.2316,5.2232,5.2358,5.213,5.1454,0.0,0.0,0.0,0.0,0.0,0.0,0.0,0.0,0.0,0.0,0.0,0.0,0.0,0.0,0.0,0.0,0.0,0.0,0.0,0.0,1.5625,1.5625,1.5625,1.5625,1.5625,1.5625,1.5625,1.5625,1.5625,1.5625,1.5625,1.5638,1.5464,1.5496,0.9779,0.0,0.0,0.0,0.0,0.0,0.0,0.0,0.0,0.0,0.0,0.0,0.0,0.0,0.0,0.0,0.0,0.0,0.0,0.0,0.0,0.0,0.0,0.0,0.0,0.0,0.0,0.0,0.0,0.0,0.0,0.0,0.0,0.0,0.0,0.0,0.0,0.0,0.0,0.0,0.0,0.0,0.0,0.0,0.0,0.0,-0.178,-0.6274,-0.9393,-1.1151,-1.1142,-1.3905,-1.549,-1.547,-1.5638,-1.5625,-1.5625,-1.5625,-1.5625,-1.5625,-1.5625,-1.5625,-1.5625,-1.5625,-1.5625,-1.5625,-1.5625,-1.5625,4.2524,4.5347,4.8675,5.0931,5.1577,5.1797,5.2615,5.2327,5.2042,0.0,0.0,0.0,0.0,0.0,0.0,0.0,0.0,0.0,0.0,0.0,0.0,0.0,0.0,0.0,0.0,0.0,0.0,0.0,0.0,0.0,0.0,1.5625,1.5625,1.5625,1.5625,1.5625,1.5625,1.5625,1.5625,1.5625,1.5625,1.5457,1.5496,1.5516,1.0177,0.1172,0.1764,0.2159,0.1963,0.0589,0.0,0.0,0.0,0.0,0.0,0.0,0.0,0.0,0.0,0.0,0.0,0.0,0.0,0.0,0.0,0.0,0.0,0.0,0.0,0.0,0.0,0.0,0.0,0.0,0.0,0.0,0.0,0.0,0.0,0.0,0.0,0.0,0.0,0.0,0.0,0.0,0.0,0.0,0.0,-0.0587,-0.4693,-1.4579,-1.5548,-1.5509,-1.549,-1.549,-1.547,-1.5631,-1.5625,-1.5625,-1.5625,-1.5625,-1.5625,-1.5625,-1.5625,-1.5625,-1.5625,-1.5625,-1.5625,-1.5625,-1.5625,-1.5625,4.2891,4.575,4.7949,5.0835,5.1577,5.1601,5.1797,5.2243,5.3031,5.4094,5.3277,0.0,0.0,0.0,0.0,0.0,0.0,0.0,0.0,0.0,0.0,0.0,0.0,0.0,0.0,0.0,0.0,0.0,0.0,0.0,0.0,0.0,1.5625,1.5625,1.5625,1.5625,1.5625,1.5625,1.5625,1.5625,1.5625,1.5457,1.5496,1.5503,1.2134,0.6637,1.0998,1.2803,1.2205,0.3533,0.0,0.0,0.0,0.0,0.0,0.0,0.0,0.0,0.0,0.0,0.0,0.0,0.0,0.0,0.0,0.0,0.0,0.0,0.0,0.0,0.0,0.0,0.0,0.0,0.0,0.0,0.0,0.0,0.0,0.0,0.0,0.0,0.0,0.0,0.0,0.0,0.0,0.0,0.0,-0.371,-0.879,-1.492,-1.5477,-1.5644,-1.5638,-1.5638,-1.5631,-1.5625,-1.5625,-1.5625,-1.5625,-1.5625,-1.5625,-1.5625,-1.5625,-1.5625,-1.5625,-1.5625,-1.5625,-1.5625,-1.5625,-1.5625,4.0487,4.2814,4.5073,4.8419,5.0423,5.1577,5.1577,5.2273,5.3347,5.4421,5.292,5.1077,0.0,0.0,0.0,0.0,0.0,0.0,0.0,0.0,0.0,0.0,0.0,0.0,0.0,0.0,0.0,0.0,0.0,0.0,0.0,0.0,0.0,0.0,1.5625,1.5625,1.5625,1.5625,1.5625,1.5625,1.5625,1.5638,1.5464,1.549,1.4123,1.1974,1.4384,1.2406,0.7069,0.1963,0.0,0.0,0.0,0.0,0.0,0.0,0.0,0.0,0.0,0.0,0.0,0.0,0.0,0.0,0.0,0.0,0.0,0.0,0.0,0.0,0.0,0.0,0.0,0.0,0.0,0.0,0.0,0.0,0.0,0.0,0.0,0.0,0.0,0.0,0.0,0.0,0.0,0.0,0.0,-0.6835,-1.2722,-1.5296,-1.5457,-1.5625,-1.5625,-1.5625,-1.5625,-1.5625,-1.5625,-1.5625,-1.5625,-1.5625,-1.5625,-1.5625,-1.5625,-1.5625,-1.5625,-1.5625,-1.5625,-1.5625,-1.5625,-1.5625,3.727,3.9257,4.1389,4.4984,4.7676,4.9642,5.0786,5.1453,5.1969,5.2814,5.1664,5.0281,4.9411,0.0,0.0,0.0,0.0,0.0,0.0,0.0,0.0,0.0,0.0,0.0,0.0,0.0,0.0,0.0,0.0,0.0,0.0,0.0,0.0,0.0,0.0,1.5625,1.5625,1.5625,1.5625,0.0,1.5625,1.5625,1.5625,1.547,1.5516,1.5379,1.3188,0.7653,0.0,0.0,0.0,0.0,0.0,0.0,0.0,0.0,0.0,0.0,0.0,0.0,0.0,0.0,0.0,0.0,0.0,0.0,0.0,0.0,0.0,0.0,0.0,0.0,0.0,0.0,0.0,0.0,0.0,0.0,0.0,0.0,0.0,0.0,0.0,0.0,0.0,0.0,0.0,-0.0782,-0.3127,-1.0562,-1.5496,-1.5483,-1.5644,-1.5625,-1.5625,-1.5625,-1.5625,-1.5625,-1.5625,-1.5625,-1.5625,-1.5625,-1.5625,-1.5625,-1.5625,-1.5625,-1.5625,-1.5625,-1.5625,-1.5625,-1.5625,-1.5625,3.4059,3.5991,3.7746,4.0903,4.193,4.3364,4.8144,4.8431,4.7847,4.794,5.0557,5.1614,4.7974,4.7997,0.0,0.0,0.0,0.0,0.0,0.0,0.0,0.0,0.0,0.0,0.0,0.0,0.0,0.0,0.0,0.0,0.0,0.0,0.0,0.0,0.0,0.0,1.5625,1.5625,1.5625,0.0,1.5625,1.5625,1.5625,1.5631,1.5464,1.5108,0.5472,0.0782,0.0,0.0,0.0,0.0,0.0,0.0,0.0,0.0,0.0,0.0,0.0,0.0,0.0,0.0,0.0,0.0,0.0,0.0,0.0,0.0,0.0,0.0,0.0,0.0,0.0,0.0,0.0,0.0,0.0,0.0,0.0,0.0,0.0,0.0,0.0,0.0,0.0,0.0,0.0,-0.3518,-1.2944,-1.4913,-1.5483,-1.5638,-1.5631,-1.5625,-1.5625,-1.5625,-1.5625,-1.5625,-1.5625,-1.5625,-1.5625,-1.5625,-1.5625,-1.5625,-1.5625,-1.5625,-1.5625,-1.5625,-1.5625,-1.5625,-1.5625,-1.5625,2.7633,2.8128,2.8941,3.2491,3.4897,3.7401,4.1471,4.0276,3.9647,4.4029,4.7265,4.8625,4.5814,4.5681,0.0,0.0,0.0,0.0,0.0,0.0,0.0,0.0,0.0,0.0,0.0,0.0,0.0,0.0,0.0,0.0,0.0,0.0,0.0,0.0,0.0,0.0,1.5625,1.5625,1.5625,1.5625,1.5625,1.5638,1.547,1.547,1.549,1.492,0.4494,0.0,0.0,0.0,0.0,0.0,0.0,0.0,0.0,0.0,0.0,0.0,0.0,0.0,0.0,0.0,0.0,0.0,0.0,0.0,0.0,0.0,0.0,0.0,0.0,0.0,0.0,0.0,0.0,0.0,0.0,0.0,0.0,0.0,0.0,0.0,0.0,0.0,0.0,0.0,-0.2747,-0.7255,-1.4543,-1.549,-1.5644,-1.5631,-1.5625,-1.5625,-1.5625,-1.5625,-1.5625,-1.5625,-1.5625,-1.5625,-1.5625,-1.7154,-1.7916,-1.7916,-1.9434,-2.019,-2.019,-2.019,-2.019,-2.019,-2.019,-2.019,2.2771,2.237,2.2439,2.5528,2.806,3.0826,3.4106,3.3175,3.3234,3.9095,4.3732,4.6001,4.4075,4.4,0.0,0.0,0.0,0.0,0.0,0.0,0.0,0.0,0.0,0.0,0.0,0.0,0.0,0.0,0.0,0.0,0.0,0.0,0.0,0.0,0.0,0.0,1.5625,1.5625,1.5625,1.5625,1.5625,1.5457,1.5496,1.3911,1.2339,1.0571,0.3127,0.0,0.0,0.0,0.0,0.0,0.0,0.0,0.0,0.0,0.0,0.0,0.0,0.0,0.0,0.0,0.0,0.0,0.0,0.0,0.0,0.0,0.0,0.0,0.0,0.0,0.0,0.0,0.0,0.0,0.0,0.0,0.0,0.0,0.0,0.0,0.0,0.0,0.0,0.0,-0.4517,-0.9038,-1.2749,-1.4682,-1.5638,-1.5625,-1.5625,-1.5625,-1.5625,-1.5625,-1.5625,-1.5625,-1.5625,-1.5818,-1.6583,-1.9243,-2.0571,-2.0571,-2.2273,-2.3219,-2.3219,-2.3219,-2.3219,-2.3219,-2.3219,-2.3219,2.1109,2.0498,2.0168,2.1274,2.1965,2.3218,2.6926,2.8215,2.9772,3.2872,4.0076,4.5158,4.3131,4.3572,4.3445,4.158,0.0,0.0,0.0,0.0,0.0,0.0,0.0,0.0,0.0,0.0,0.0,0.0,0.0,0.0,0.0,0.0,0.0,0.0,0.0,0.0,1.5625,1.5625,1.5625,1.5625,1.5625,1.5457,1.5302,1.016,0.5073,0.0195,0.0,0.0,0.0,0.0,0.0,0.0,0.0,0.0,0.0,0.0,0.0,0.0,0.0,0.0,0.0,0.0,0.0,0.0,0.0,0.0,0.0,0.0,0.0,0.0,0.0,0.0,0.0,0.0,0.0,0.0,0.0,0.0,0.0,0.0,0.0,0.0,0.0,0.0,0.0,0.0,-0.4509,-0.7832,-0.7809,-1.2323,-1.5483,-1.5631,-1.5625,-1.5625,-1.5625,-1.5625,-1.5625,-1.5625,-1.5625,-1.6769,-1.9243,-2.1703,-2.303,-2.303,-2.303,-2.3219,-2.3219,-2.3219,-2.3219,-2.3219,-2.3219,-2.3219,1.8983,1.7172,1.5169,1.5442,1.7389,1.8888,1.7476,2.0187,2.4029,2.7057,3.2691,3.8101,4.1197,4.1463,4.1098,0.0,3.6731,0.0,0.0,0.0,0.0,0.0,0.0,0.0,0.0,0.0,0.0,0.0,0.0,0.0,0.0,0.0,0.0,0.0,0.0,0.0,1.5625,1.5625,1.5625,1.5625,1.5464,1.173,0.4882,0.3124,0.1564,0.0,0.0,0.0,0.0,0.0,0.0,0.0,0.0,0.0,0.0,0.0,0.0,0.0,0.0,0.0,0.0,0.0,0.0,0.0,0.0,0.0,0.0,0.0,0.0,0.0,0.0,0.0,0.0,0.0,0.0,0.0,0.0,0.0,0.0,0.0,0.0,0.0,0.0,0.0,0.0,0.0,-0.7451,-1.3172,-1.3122,-1.4506,-1.5483,-1.5631,-1.5625,-1.5625,-1.5625,-1.5625,-1.5625,-1.5625,-1.7147,-1.8484,-1.9434,-2.3587,-2.5844,-2.5844,-2.7362,-2.8317,-2.8317,-2.8317,-2.8317,-2.8317,-2.8317,-2.8317,1.8313,1.5662,1.2875,1.3113,1.3442,1.3075,1.051,1.4878,2.0283,2.2866,2.712,3.1987,3.6804,3.8586,3.9322,3.9168,3.6313,3.4015,0.0,0.0,0.0,0.0,0.0,0.0,0.0,0.0,0.0,0.0,0.0,0.0,0.0,0.0,0.0,0.0,0.0,1.5625,1.5625,1.5625,1.5638,1.547,1.1535,0.625,0.0,0.0,0.0,0.0,0.0,0.0,0.0,0.0,0.0,0.0,0.0,0.0,0.0,0.0,0.0,0.0,0.0,0.0,0.0,0.0,0.0,0.0,0.0,0.0,0.0,0.0,0.0,0.0,0.0,0.0,0.0,0.0,0.0,0.0,0.0,0.0,0.0,0.0,0.0,0.0,0.0,0.0,0.0,0.0,-0.8816,-1.5548,-1.5503,-1.5483,-1.5464,-1.5631,-1.5625,-1.5625,-1.5625,-1.5625,-1.5625,-1.5625,-1.8868,-2.1323,-2.2263,-2.6218,-2.849,-2.849,-3.001,-3.0774,-3.0774,-3.0774,-3.0774,-3.0774,-3.0774,-3.0774,1.8685,1.5646,1.2507,1.3339,1.0208,0.683,0.6243,1.2184,1.8488,1.9961,2.3235,2.7094,3.1047,3.5288,3.7972,3.7496,3.5854,3.4431,0.0,0.0,0.0,0.0,0.0,0.0,0.0,0.0,0.0,0.0,0.0,0.0,0.0,0.0,0.0,0.0,0.0,1.5578,1.5598,1.5598,1.5225,1.4282,0.4677,0.0,0.0,0.0,0.0,0.0,0.0,0.0,0.0,0.0,0.0,0.0,0.0,0.0,0.0,0.0,0.0,0.0,0.0,0.0,0.0,0.0,0.0,0.0,0.0,0.0,0.0,0.0,0.0,0.0,0.0,0.0,0.0,0.0,0.0,0.0,0.0,0.0,0.0,0.0,0.0,0.0,0.0,0.0,-0.0195,-0.0977,-0.9382,-1.5496,-1.5496,-1.5457,-1.5625,-1.5625,-1.5625,-1.5625,-1.5625,-1.5625,-1.5625,-1.5818,-2.0571,-2.454,-2.6977,-2.9442,-3.0774,-3.0774,-3.0774,-3.0774,-3.0774,-3.0774,-3.0774,-3.0774,-3.0774,-3.0774,1.8049,1.544,1.2711,1.2078,0.9441,0.6877,0.62,1.1887,1.7735,1.9233,2.2892,2.6858,3.0225,3.2854,3.4368,3.4027,3.3347,3.265,3.1983,0.0,0.0,0.0,0.0,0.0,0.0,0.0,0.0,0.0,0.0,0.0,0.0,0.0,0.0,0.0,1.4939,1.5091,1.5138,1.5145,1.1209,0.3559,0.114,0.0,0.0,0.0,0.0,0.0,0.0,0.0,0.0,0.0,0.0,0.0,0.0,0.0,0.0,0.0,0.0,0.0,0.0,0.0,0.0,0.0,0.0,0.0,0.0,0.0,0.0,0.0,0.0,0.0,0.0,0.0,0.0,0.0,0.0,0.0,0.0,0.0,0.0,0.0,0.0,0.0,0.0,0.0,-0.2735,-1.0753,-1.3911,-1.5483,-1.5644,-1.5631,-1.5625,-1.5625,-1.5625,-1.5625,-1.5625,-1.5625,-1.639,-1.8484,-2.3398,-2.6405,-2.6966,-2.9442,-3.0774,-3.0774,-3.0774,-3.0774,-3.0774,-3.0774,-3.0774,-3.0774,-3.0774,-3.0774,1.8011,1.549,1.2625,1.1974,0.8987,0.6561,0.784,1.1387,1.5419,1.8673,2.1088,2.3806,2.7551,2.9556,3.091,3.21,3.2012,3.1411,3.1077,2.864,2.5972,0.0,0.0,0.0,0.0,0.0,0.0,0.0,0.0,0.0,0.0,0.0,0.0,0.0,1.4702,1.4676,1.4666,1.0225,0.5363,0.0,0.0,0.0,0.0,0.0,0.0,0.0,0.0,0.0,0.0,0.0,0.0,0.0,0.0,0.0,0.0,0.0,0.0,0.0,0.0,0.0,0.0,0.0,0.0,0.0,0.0,0.0,0.0,0.0,0.0,0.0,0.0,0.0,0.0,0.0,0.0,0.0,0.0,0.0,0.0,0.0,0.0,0.0,0.0,-0.3907,-0.8992,-1.4707,-1.5483,-1.5457,-1.5631,-1.5625,-1.5625,-1.5625,-1.5625,-1.5625,-1.5625,-1.5625,-1.6583,-1.9243,-2.4143,-2.7537,-2.8676,-3.001,-3.0774,-3.0774,-3.0774,-3.0774,-3.0774,-3.0774,-3.0774,-3.0774,-3.0774,-3.0774,1.7772,1.5248,1.2447,1.2061,0.825,0.5552,0.9534,1.0471,1.2081,1.8198,1.8983,2.0034,2.4636,2.6334,2.7855,3.0535,3.0624,3.0249,3.0028,2.7373,2.39,2.0272,0.0,0.0,0.0,0.0,0.0,0.0,0.0,0.0,0.0,0.0,0.0,1.426,1.451,1.3911,1.2265,0.4134,0.0,0.0,0.0,0.0,0.0,0.0,0.0,0.0,0.0,0.0,0.0,0.0,0.0,0.0,0.0,0.0,0.0,0.0,0.0,0.0,0.0,0.0,0.0,0.0,0.0,0.0,0.0,0.0,0.0,0.0,0.0,0.0,0.0,0.0,0.0,0.0,0.0,0.0,0.0,0.0,-0.0196,-0.0981,-0.1174,-0.1368,-0.2344,-0.9771,-1.5496,-1.549,-1.5457,-1.5625,-1.5625,-1.5625,-1.5625,-1.5625,-1.5625,-1.5625,-1.5625,-1.6011,-1.7339,-2.038,-2.4718,-2.8107,-3.0577,-3.0774,-3.0774,-3.0774,-3.0774,-3.0774,-3.0774,-3.0774,-3.0946,-3.1314,-3.1314,-3.1485,1.4987,1.3178,1.1707,1.0881,0.5711,0.2506,0.9049,0.8213,0.8685,1.7646,1.8558,1.9304,2.4104,2.5211,2.5838,2.7732,2.7494,2.7282,2.7785,2.5636,2.2992,2.0454,1.82,0.0,0.0,0.0,0.0,0.0,0.0,0.0,0.0,0.0,0.0,1.395,1.3856,1.0177,0.2279,0.07,0.0,0.0,0.0,0.0,0.0,0.0,0.0,0.0,0.0,0.0,0.0,0.0,0.0,0.0,0.0,0.0,0.0,0.0,0.0,0.0,0.0,0.0,0.0,0.0,0.0,0.0,0.0,0.0,0.0,0.0,0.0,0.0,0.0,0.0,0.0,0.0,0.0,0.0,0.0,0.0,-0.1369,-0.5663,-0.6637,-0.8004,-1.2333,-1.4506,-1.5483,-1.5644,-1.5631,-1.5625,-1.5625,-1.5625,-1.5625,-1.5625,-1.5625,-1.5625,-1.5625,-1.7532,-2.0943,-2.5657,-2.6592,-2.8107,-3.0577,-3.0774,-3.0774,-3.0774,-3.0774,-3.0774,-3.0774,-3.0774,-3.1852,-3.3846,-3.3846,-3.4903,1.4126,1.2423,0.9972,0.5885,0.213,-0.0432,-0.0729,0.0878,0.5549,1.6413,1.8303,1.9067,2.3051,2.4383,2.5603,2.7502,2.7619,2.7437,2.7385,2.4566,2.1801,1.9593,1.7229,0.0,0.0,0.0,0.0,0.0,0.0,0.0,0.0,0.0,1.3745,1.3745,1.3771,0.9393,0.0174,0.0,0.0,0.0,0.0,0.0,0.0,0.0,0.0,0.0,0.0,0.0,0.0,0.0,0.0,0.0,0.0,0.0,0.0,0.0,0.0,0.0,0.0,0.0,0.0,0.0,0.0,0.0,0.0,0.0,0.0,0.0,0.0,0.0,0.0,0.0,0.0,0.0,0.0,0.0,0.0,-0.4494,-0.9195,-1.155,-1.1939,-1.2722,-1.5101,-1.5477,-1.5457,-1.5631,-1.5625,-1.5625,-1.5625,-1.5625,-1.5625,-1.5625,-1.5625,-1.6197,-1.7532,-2.1314,-2.4519,-2.6779,-2.8305,-2.9442,-3.059,-3.0774,-3.0774,-3.0774,-3.0774,-3.1314,-3.2767,-3.2767,-3.3998,-3.6311,-3.6311,-3.6831,1.3124,0.0,0.6948,0.1328,-0.1362,-0.4169,0.0,-0.496,0.3571,1.5646,1.8059,1.902,2.1859,2.3757,2.5512,2.7126,2.7645,2.7632,2.7061,2.4684,2.1751,1.9,1.6458,1.4399,0.0,0.0,0.0,0.0,0.0,0.0,0.0,0.0,1.3311,1.2614,1.3109,0.9119,0.0173,0.0,0.0,0.0,0.0,0.0,0.0,0.0,0.0,0.0,0.0,0.0,0.0,0.0,0.0,0.0,0.0,0.0,0.0,0.0,0.0,0.0,0.0,0.0,0.0,0.0,0.0,0.0,0.0,0.0,-0.0189,-0.1325,-0.1722,-0.155,-0.1556,-0.1558,-0.1755,-0.1762,-0.1761,-0.2148,-0.3319,-0.9978,-1.5522,-1.5509,-1.5496,-1.5483,-1.5483,-1.5457,-1.5625,-1.5625,-1.5625,-1.5625,-1.5625,-1.5625,-1.5625,-1.5625,-1.6004,-1.7347,-1.9243,-2.4143,-2.735,-2.7921,-2.9628,-3.0774,-3.0774,-3.0774,-3.0946,-3.1485,-3.1668,-3.2753,-3.5263,-3.5263,-3.6489,-3.8766,-3.8766,-3.8942,0.0,0.5894,0.1216,0.0257,-0.4448,-0.9229,-1.0284,-0.4749,0.0,1.5585,1.8059,1.8668,2.0772,2.3238,2.4976,2.5146,2.5931,2.645,2.5879,2.5982,2.4408,1.979,1.5375,0.0,0.0,0.0,0.0,0.0,0.0,0.0,0.0,0.0,1.214,0.9253,1.1296,0.8308,0.0,0.0,0.0,0.0,0.0,0.0,0.0,0.0,0.0,0.0,0.0,0.0,0.0,0.0,0.0,0.0,0.0,0.0,0.0,0.0,0.0,0.0,0.0,0.0,0.0,0.0,0.0,0.0,0.0,0.0,-0.0926,-0.5363,-0.6479,-0.6513,-0.6443,-0.6474,-0.6693,-0.7194,-0.7222,-0.8591,-1.3317,-1.5101,-1.549,-1.5644,-1.5631,-1.5631,-1.5631,-1.5631,-1.5625,-1.5625,-1.5625,-1.5625,-1.5625,-1.5625,-1.5625,-1.5625,-1.7724,-1.9251,-1.9434,-2.4143,-2.7921,-3.0392,-3.0577,-3.0774,-3.0774,-3.0774,-3.1852,-3.4027,-3.4208,-3.5249,-3.7721,-3.7721,-3.8942,-4.1216,-4.1216,-4.229,0.7215,0.3697,-0.0359,-0.4791,-0.8016,-1.0144,-0.9972,-0.4492,0.3202,1.2509,1.7055,1.9192,1.9245,2.2019,2.4477,2.5217,2.571,2.5566,2.4408,2.4419,2.2494,1.7585,1.4003,0.0,0.0,0.0,0.0,0.0,0.0,0.0,0.0,0.0,1.2338,1.1049,0.6837,0.3114,0.0,0.0,0.0,0.0,0.0,0.0,0.0,0.0,0.0,0.0,0.0,0.0,0.0,0.0,0.0,0.0,0.0,-0.174,-0.435,-0.4382,-0.4394,-0.4752,-0.766,-0.8584,-0.8049,-0.5366,-0.4328,-0.4369,-0.4369,-0.432,-0.5346,-0.9948,-1.1184,-1.1314,-1.1214,-1.1611,-1.186,-1.2084,-1.2125,-1.2923,-1.5063,-1.5477,-1.5644,-1.5631,-1.5625,-1.5625,-1.5625,-1.5625,-1.5625,-1.5625,-1.5625,-1.5625,-1.5625,-1.5625,-1.5625,-1.5625,-1.7916,-2.0007,-2.1523,-2.6417,-2.9813,-3.059,-3.0774,-3.0774,-3.0774,-3.2218,-3.3482,-3.4375,-3.5788,-3.7009,-3.7898,-3.9294,-4.1234,-4.3549,-4.3549,-4.4081,0.3589,0.0809,-0.2666,-0.8136,-0.9757,-0.9968,-0.9666,-0.4208,0.2568,0.8995,1.4881,1.8642,1.809,2.0693,2.3427,2.4833,2.5269,2.4839,2.3147,2.2818,2.1059,1.6098,1.4017,1.2628,0.0,0.0,0.0,0.0,0.0,0.0,0.0,1.2882,1.154,0.847,0.285,0.0,0.0,0.0,0.0,0.0,0.0,0.0,0.0,0.0,0.0,0.0,0.0,0.0,0.0,-0.2265,-0.2262,-0.2431,-0.3823,-0.6255,-0.9211,-0.9211,-0.9211,-0.9566,-1.277,-1.2782,-1.1186,-0.8033,-0.7048,-0.6946,-0.6946,-0.7923,-0.9758,-1.2951,-1.3864,-1.3842,-1.393,-1.4325,-1.4591,-1.4698,-1.493,-1.4988,-1.5275,-1.5506,-1.5513,-1.5611,-1.5625,-1.5625,-1.5625,-1.5625,-1.5625,-1.5625,-1.5625,-1.5625,-1.5625,-1.5625,-1.5625,-1.5625,-1.8676,-2.1332,-2.303,-2.7746,-3.0774,-3.0774,-3.0774,-3.113,-3.1852,-3.3482,-3.5083,-3.6668,-3.8252,-3.9294,-4.0188,-4.1772,-4.3359,-4.497,-4.497,-4.5291,-0.0,-0.2917,-0.6443,-0.8728,-0.925,-0.9168,-0.9424,-0.4033,0.2041,0.5332,1.1444,1.6536,1.7786,1.9662,2.1696,2.3606,2.4373,2.3952,2.1646,2.1873,2.0636,1.602,1.554,1.4522,1.188,0.0,0.0,0.0,0.0,0.0,0.0,1.248,0.8731,0.0305,0.0,0.0,0.0,0.0,0.0,0.0,0.0,0.0,0.0,0.0,-0.0,0.0,0.0,0.0,0.0,-0.7108,-0.7112,-0.7461,-1.2031,-1.3803,-1.3803,-1.3803,-1.3803,-1.3803,-1.3803,-1.0792,-0.7112,-0.7112,-0.7112,-0.7112,-0.7112,-1.0249,-1.3771,-1.3771,-1.3738,-1.395,-1.4247,-1.4326,-1.4398,-1.4695,-1.4768,-1.4847,-1.5117,-1.5183,-1.5275,-1.5565,-1.5625,-1.5625,-1.5625,-1.5625,-1.5625,-1.5625,-1.5625,-1.5625,-1.5625,-1.5625,-1.5625,-1.5625,-2.019,-2.3219,-2.3219,-2.7746,-3.0774,-3.0774,-3.0761,-3.1852,-3.439,-3.439,-3.6668,-4.139,-4.139,-4.2635,-4.497,-4.497,-4.497,-4.4989,-4.4989,-4.6096,-0.2474,-0.5373,-0.8322,-1.0314,-1.0735,-1.0347,-0.9281,-0.5662,-0.0954,0.4769,1.2157,1.7462,1.737,2.0153,2.2748,2.3321,2.2141,2.065,1.9006,1.7707,1.5659,1.268,1.2592,1.2362,0.0,0.0,0.0,0.0,0.0,0.0,0.0,0.6927,0.2689,0.0149,0.0,0.0,0.0,0.0,0.0,0.0,0.0,0.0,0.0,0.0,-0.3104,-0.8738,0.0,0.0,0.0,-1.119,-1.1244,-1.1583,-1.3171,-1.3764,-1.3738,-1.3738,-1.3738,-1.3738,-1.3771,-1.2895,-1.1835,-1.1846,-1.1852,-1.1813,-1.1611,-1.253,-1.3725,-1.3725,-1.3719,-1.3897,-1.399,-1.4009,-1.4089,-1.4392,-1.4458,-1.4543,-1.4833,-1.5044,-1.5209,-1.5295,-1.5486,-1.5625,-1.5625,-1.5625,-1.5625,-1.5625,-1.5625,-1.5625,-1.5625,-1.5625,-1.5625,-1.5625,-2.019,-2.3219,-2.3219,-2.7746,-3.0774,-3.0774,-3.2401,-3.3664,-3.439,-3.7543,-3.9979,-4.139,-4.2997,-4.4894,-4.7228,-4.7228,-4.8037,-4.9516,-4.9516,-4.9842,-0.5258,-0.8152,-1.0545,-1.1018,-1.107,-1.0592,-0.9147,-0.6416,-0.2261,0.461,1.1245,1.5991,1.6977,1.9492,2.1817,2.2291,2.0746,1.8759,1.6923,1.5178,1.3174,1.0823,1.0917,1.1069,0.0,0.0,0.0,0.0,0.0,0.0,0.0,0.2622,0.0,0.0,0.0,0.0,0.0,0.0,0.0,0.0,0.0,0.0,-0.0156,-0.3309,-0.7659,-1.2442,0.0,0.0,0.0,-1.2943,-1.3,-1.3159,-1.3341,-1.3561,-1.3535,-1.3535,-1.3535,-1.3541,-1.3568,-1.3413,-1.3413,-1.3426,-1.3432,-1.3393,-1.3357,-1.3489,-1.3713,-1.3713,-1.3792,-1.3878,-1.3878,-1.3878,-1.3924,-1.4108,-1.4148,-1.4234,-1.453,-1.4728,-1.488,-1.4998,-1.5249,-1.5447,-1.5447,-1.5545,-1.5625,-1.5625,-1.5625,-1.5625,-1.5625,-1.5625,-1.5625,-1.5625,-2.019,-2.3219,-2.3219,-2.7746,-3.0774,-3.0774,-3.3118,-3.4918,-3.5788,-3.947,-4.1927,-4.2825,-4.5064,-4.6895,-4.8182,-4.9168,-5.0146,-5.1479,-5.1479,-5.1937,-0.8384,-1.0968,-1.2481,-1.1196,-1.0667,-1.0205,-0.9071,-0.6239,-0.2042,0.469,0.9685,1.3716,1.6635,1.8421,1.9854,2.1232,2.002,1.7842,1.527,1.3888,1.2235,1.0085,1.0199,1.0383,1.0383,1.0654,0.0,0.0,0.0,0.0,0.0,0.0141,0.0,0.0,0.0,0.0,0.0,0.0,0.0,0.0,0.0,-0.0152,-0.0761,-0.8688,-1.2374,-1.2761,0.0,0.0,0.0,-1.2974,-1.2981,-1.2988,-1.3014,-1.3182,-1.3343,-1.3021,-1.3182,-1.3343,-1.3021,-1.3027,-1.3027,-1.3027,-1.3007,-1.2988,-1.3142,-1.3511,-1.3595,-1.3622,-1.3816,-1.4016,-1.3871,-1.3878,-1.3878,-1.3878,-1.3878,-1.3957,-1.4227,-1.4306,-1.4405,-1.4682,-1.4959,-1.515,-1.5183,-1.5407,-1.5598,-1.5625,-1.5625,-1.5625,-1.5625,-1.5625,-1.5625,-1.5625,-2.019,-2.3219,-2.3219,-2.7746,-3.0774,-3.0774,-3.3286,-3.5608,-3.7882,-4.0345,-4.2653,-4.48,-4.7061,-4.8347,-4.8512,-5.0792,-5.1937,-5.2119,-5.2119,-5.3048,-1.2184,-1.3046,-1.2807,-1.2481,-1.0756,-0.9052,-0.8823,-0.4694,0.0379,0.5127,1.1762,1.7056,1.7832,1.9252,2.0815,2.2383,1.8527,1.5226,1.5019,1.2348,1.0198,0.9658,0.9896,1.0067,1.0067,1.0344,0.0,0.0,0.0,0.0,0.4375,0.1492,0.0,0.0,0.0,0.0,0.0,0.0,0.0,0.0,0.0,-0.1674,-0.4857,-0.99,-1.2236,-1.2427,-1.2414,0.0,0.0,-1.2585,-1.2678,-1.2697,-1.2935,-1.3979,-1.5079,-1.3657,-1.3979,-1.5086,-1.3504,-1.3027,-1.3027,-1.3027,-1.2869,-1.2985,-1.4525,-1.5234,-1.5409,-1.5679,-1.5811,-1.5425,-1.416,-1.3878,-1.3878,-1.3878,-1.3878,-1.3897,-1.3963,-1.4161,-1.4352,-1.4412,-1.4662,-1.4932,-1.5143,-1.5236,-1.5354,-1.5592,-1.5625,-1.5625,-1.5625,-1.5625,-1.5625,-1.5625,-2.019,-2.3219,-2.3219,-2.7746,-3.0774,-3.0774,-3.4693,-3.7365,-3.7898,-4.1962,-4.4441,-4.48,-4.7061,-4.9004,-5.0814,-5.2868,-5.4815,-5.6601,-5.6601,-5.6778,-1.2931,-1.3782,-1.3531,-1.2156,-1.0219,-0.8373,-0.6907,-0.3158,0.1096,0.5149,1.1838,1.7179,1.8038,1.9135,2.0039,2.0881,1.7299,1.3791,1.2147,1.061,0.9504,0.9504,0.9632,0.9863,1.0125,1.0397,1.0546,0.0,0.0,0.0,0.294,-0.0658,-0.1742,-0.0,-0.3294,-0.3477,-0.0,0.0,0.0,0.0,0.0,-0.3156,-0.9123,-1.1278,-1.219,-1.2321,-1.3208,0.0,-1.3665,-1.4872,-1.5239,-1.5264,-1.5451,-1.6141,-1.6902,-1.5833,-1.6141,-1.6748,-1.5833,-1.4759,-1.4147,-1.5069,-1.5402,-1.5391,-1.6441,-1.701,-1.7212,-1.7257,-1.7451,-1.72,-1.5425,-1.501,-1.4884,-1.4016,-1.3779,-1.3719,-1.3851,-1.4003,-1.4115,-1.4115,-1.4352,-1.4649,-1.4939,-1.5097,-1.5288,-1.5585,-1.5625,-1.5625,-1.5625,-1.5625,-1.5625,-1.5625,-2.019,-2.3219,-2.3219,-2.7746,-3.0774,-3.0774,-3.5219,-3.7898,-3.7898,-4.2499,-4.546,-4.6412,-4.8697,-5.0792,-5.3026,-5.5125,-5.6754,-5.791,-5.8858,-5.9252,-1.2826,-1.3667,-1.373,-1.0976,-0.8823,-0.6614,-0.4145,-0.1362,0.1748,0.5148,1.0801,1.5669,1.7641,1.8415,1.8758,1.8862,1.6048,1.2563,0.8737,0.844,0.8641,0.8641,0.866,0.9029,0.9496,0.9547,0.0,0.0,0.0,0.0,0.0248,-0.3821,-0.4403,-0.091,-0.692,-0.7287,-0.0948,-0.0972,-0.0852,-0.0869,-0.1605,-0.5628,-1.2124,-1.2177,-1.219,-1.2321,0.0,0.0,-1.5277,-1.7334,-1.807,-1.807,-1.807,-1.8218,-1.8511,-1.8218,-1.8365,-1.8511,-1.8218,-1.7048,-1.6011,-1.7914,-1.8365,-1.807,-1.8511,-1.8753,-1.8894,-1.8964,-1.9099,-1.8856,-1.7192,-1.6812,-1.6393,-1.4511,-1.4051,-1.3782,-1.368,-1.3772,-1.3818,-1.3871,-1.4082,-1.4346,-1.4642,-1.4926,-1.5209,-1.5506,-1.5592,-1.5625,-1.5625,-1.5625,-1.5625,-1.5625,-2.019,-2.3219,-2.3219,-2.7746,-3.0774,-3.0774,-3.5219,-3.7898,-3.7898,-4.2499,-4.5947,-4.8182,-5.0329,-5.2573,-5.4614,-5.6906,-5.8036,-5.8461,-5.9935,-6.0871,-1.3939,-1.3086,-1.1479,-0.9483,-0.5064,-0.1082,-0.0654,0.1674,0.4003,0.5098,0.9716,1.4209,1.6299,1.7477,1.8036,1.8375,1.4684,1.0553,0.6747,0.5522,0.5025,0.5025,0.5513,0.5864,0.5889,0.5919,0.7245,1.0267,0.4841,0.1204,0.072,-0.5437,-0.7374,-0.3769,-0.7597,-0.7961,-0.4582,-0.4575,-0.4506,-0.4662,-0.8327,-1.0735,-1.1821,-1.2065,-1.2177,-1.2321,0.0,0.0,-1.5277,-1.7334,-1.807,-1.807,-1.807,-1.9088,-2.0391,-1.8648,-1.9088,-2.0391,-1.8648,-1.7923,-1.807,-1.9954,-1.9516,-1.8365,-2.01,-2.057,-2.0715,-2.1001,-2.1017,-2.0714,-1.9004,-1.8485,-1.8017,-1.6159,-1.5661,-1.5163,-1.3451,-1.3344,-1.3594,-1.3831,-1.3911,-1.4036,-1.4332,-1.4636,-1.4926,-1.5203,-1.5466,-1.5625,-1.5625,-1.5625,-1.5625,-1.5625,-2.019,-2.3219,-2.3219,-2.7746,-3.0774,-3.0774,-3.5219,-3.7898,-3.7898,-4.2499,-4.5947,-4.8182,-5.0329,-5.2573,-5.4614,-5.6906,-5.871,-6.0345,-6.0465,-6.1586,-0.9312,-0.8445,-0.7262,-0.3621,-0.0536,0.1941,0.2906,0.37,0.52,0.8454,1.159,1.4693,1.7203,1.7578,1.7345,0.0,0.0,0.0,0.56,0.314,0.1847,0.0,0.2092,0.0,0.228,0.591,0.8868,0.0,0.4242,-0.1162,-0.4762,-0.7598,-0.8569,-0.7304,-0.8709,-0.8962,-0.7884,-0.8125,-0.8304,-0.8562,-1.0452,-1.1346,-1.1498,-1.1788,-1.2495,-1.367,0.0,-1.7472,-1.8628,-2.0547,-2.1285,-2.1285,-2.1285,-2.1865,-2.2587,-2.2837,-2.2706,-2.2574,-2.2837,-2.2626,-2.2377,-2.2273,-2.1375,-2.0626,-2.1765,-2.2132,-2.2255,-2.265,-2.2796,-2.2464,-2.0703,-2.0207,-1.9807,-1.803,-1.6654,-1.5471,-1.4881,-1.379,-1.3376,-1.4805,-1.5184,-1.5465,-1.6151,-1.5309,-1.4675,-1.5117,-1.5295,-1.544,-1.5605,-1.5625,-1.5625,-1.5625,-1.886,-2.1703,-2.304,-2.6417,-2.9245,-3.0577,-3.5219,-3.7898,-3.7898,-4.2499,-4.66,-5.0004,-5.0975,-5.3228,-5.6425,-5.7433,-5.8858,-6.0609,-6.1702,-6.3106,-0.4756,-0.3056,-0.1374,0.4443,0.5863,0.6103,0.7256,0.725,0.8159,1.2452,1.4447,1.6219,1.8279,0.0,0.0,1.6027,1.4162,0.0,0.5087,0.1848,0.0,0.0,0.0,0.0,0.0,0.4756,0.0,0.0,0.1599,-0.4279,-0.892,-0.8906,-0.8929,-0.9447,-0.9451,-0.9631,-0.9871,-1.0238,-1.0502,-1.0919,-1.0992,-1.1126,-1.1181,-1.1897,-1.3021,-1.4588,-1.7418,-1.9491,-2.0933,-2.3112,-2.3918,-2.3905,-2.4478,-2.462,-2.475,-2.6718,-2.6563,-2.5589,-2.7391,-2.7111,-2.5638,-2.4287,-2.3079,-2.2295,-2.2724,-2.2957,-2.3152,-2.3581,-2.3802,-2.3577,-2.234,-2.199,-2.1484,-1.9243,-1.7389,-1.604,-1.5859,-1.454,-1.4028,-1.6148,-1.6826,-1.7283,-1.8097,-1.6646,-1.52,-1.4998,-1.5137,-1.5262,-1.5486,-1.5578,-1.5625,-1.5625,-1.7916,-2.038,-2.2841,-2.5577,-2.8484,-3.1697,-3.6,-3.8706,-3.9078,-4.3151,-4.7153,-5.1479,-5.1479,-5.3566,-5.791,-5.791,-5.9154,-6.1444,-6.2688,-6.4615,-0.2736,0.2177,0.6679,1.4229,1.4897,1.3418,1.266,1.3397,1.4658,1.6335,1.7728,1.8646,0.0,0.0,1.804,1.5334,1.374,1.0789,0.5087,0.1848,0.0,0.0,0.0,0.0,0.0,0.0,0.0,0.0545,0.0,-0.8417,-0.8729,-0.8722,-0.8847,-0.9131,-0.9157,-0.9428,-0.9968,-0.9988,-1.0146,-1.0579,-1.0733,-1.0871,-1.1032,-1.2815,-1.3783,-1.4084,-1.8226,-2.0124,-2.0439,-2.2961,-2.3918,-2.4049,-2.5872,-2.6437,-2.6704,-2.8645,-2.9337,-2.9475,-3.1374,-2.928,-2.5774,-2.5774,-2.4146,-2.2217,-2.2243,-2.2633,-2.3074,-2.3113,-2.3503,-2.3918,-2.3801,-2.3814,-2.2793,-1.9013,-1.7972,-1.7371,-1.5617,-1.5272,-1.5945,-1.7946,-1.8606,-1.8888,-1.9651,-1.8531,-1.6878,-1.5106,-1.5018,-1.5189,-1.5203,-1.5453,-1.5625,-1.5625,-1.7916,-2.038,-2.2841,-2.5879,-2.9949,-3.5076,-3.822,-4.0707,-4.2421,-4.4921,-4.7957,-5.1479,-5.1479,-5.3566,-5.791,-5.791,-5.9693,-6.3218,-6.3356,-6.5344,-0.3968,0.6363,1.3651,1.7131,1.867,1.8936,1.8106,1.891,1.9987,2.0534,2.107,2.1362,2.1362,2.0084,1.8127,1.5196,1.4273,1.1549,0.5199,0.5006,0.4912,0.2946,0.448,0.5581,0.0,0.0,0.0,-0.2601,-0.6526,-0.8722,-0.8797,-0.8783,-0.883,-0.8937,-0.9019,-0.9217,-0.9421,-0.979,-1.0027,-1.014,-1.0436,-1.1221,-1.2248,-1.3118,-1.4882,-1.7179,-1.8846,-2.0964,-2.3163,-2.408,-2.5323,-2.6764,-2.731,-2.7981,-2.8783,-3.0557,-3.0557,-2.975,-3.1645,-3.0703,-2.826,-2.6089,-2.4065,-2.2778,-2.3042,-2.3307,-2.3655,-2.4476,-2.4727,-2.4698,-2.41,-2.3918,-2.3188,-2.0536,-1.9954,-1.937,-1.7481,-1.715,-1.769,-1.975,-2.0444,-2.0679,-2.0839,-2.0988,-2.0169,-1.7031,-1.6872,-1.6614,-1.5344,-1.544,-1.5625,-1.5625,-1.639,-1.8763,-2.342,-2.4736,-2.8411,-3.5683,-3.8546,-4.1004,-4.3371,-4.5254,-4.8085,-5.2208,-5.1762,-5.3566,-5.791,-5.791,-5.9839,-6.3356,-6.3356,-6.5344,-0.3919,0.7549,1.5463,1.9045,2.0779,2.1633,2.1553,2.2129,2.2892,2.3373,2.3505,2.3409,2.2895,2.1085,1.8617,1.5299,1.4608,1.2327,0.6609,0.664,0.6546,0.447,0.6898,0.0,0.0,0.0,0.0,-0.4439,-0.7288,-0.8715,-0.8783,-0.8783,-0.8783,-0.8783,-0.8867,-0.9012,-0.9118,-0.9493,-0.9784,-0.9975,-1.0179,-1.0948,-1.2192,-1.3578,-1.551,-1.7876,-1.9283,-2.1354,-2.3646,-2.4365,-2.5604,-2.7187,-2.8584,-2.9491,-3.0224,-3.2385,-3.2742,-3.2438,-3.3642,-3.2357,-2.9656,-2.6875,-2.4558,-2.2956,-2.3377,-2.3528,-2.4002,-2.5266,-2.5574,-2.5344,-2.464,-2.4189,-2.3475,-2.1407,-2.0961,-2.067,-1.937,-1.9088,-1.9673,-2.1563,-2.2297,-2.2447,-2.2614,-2.2732,-2.2115,-1.9869,-1.8541,-1.7218,-1.5191,-1.5387,-1.5625,-1.5625,-1.5625,-1.7851,-2.3644,-2.4201,-2.8325,-3.744,-3.9801,-4.2107,-4.5468,-4.7039,-4.9382,-5.2708,-5.2582,-5.4349,-5.791,-5.791,-5.9839,-6.3356,-6.3356,-6.5344,-0.2531,0.5738,1.2206,2.0372,2.1821,2.1444,2.2614,2.2886,2.3289,2.4716,2.5019,2.4622,2.3175,2.1802,1.9588,1.5492,1.4492,1.299,0.924,0.6296,0.4446,0.4446,0.6985,0.866,0.0,0.5656,0.1188,-0.541,-0.7708,-0.8696,-0.8783,-0.8783,-0.8783,-0.8783,-0.8783,-0.8814,-0.9098,-0.9111,-0.9401,-0.9962,-0.9968,-1.0133,-1.0545,-1.3959,-1.5476,-1.5874,-1.9691,-2.136,-2.1642,-2.3776,-2.4815,-2.5266,-2.9256,-3.0994,-3.1395,-3.41,-3.6109,-3.7473,-3.7514,-3.4299,-3.0032,-2.8393,-2.5666,-2.3124,-2.3124,-2.3427,-2.4174,-2.5697,-2.5796,-2.5488,-2.5517,-2.4739,-2.3475,-2.1407,-2.0961,-2.1106,-2.0961,-2.0961,-2.1696,-2.3475,-2.3918,-2.4087,-2.4806,-2.3523,-2.2627,-2.2958,-2.0,-1.7031,-1.5079,-1.5255,-1.5605,-1.5625,-1.5625,-1.7859,-2.3654,-2.4666,-2.9586,-4.0595,-4.1896,-4.4129,-4.8601,-5.0029,-5.1349,-5.2751,-5.4019,-5.5765,-5.791,-5.8061,-5.9814,-6.3356,-6.3356,-6.5478,-0.4595,0.6272,1.4752,2.2157,2.4704,2.4817,2.2752,2.2635,2.2727,2.2107,2.2764,2.3296,2.2877,2.0987,1.8516,1.5299,1.3928,1.2202,0.9133,0.8049,0.7504,0.7538,0.8201,0.7083,0.2817,-0.2164,-0.5967,-0.7822,-0.848,-0.8696,-0.8783,-0.8783,-0.8783,-0.8783,-0.8783,-0.8823,-0.8903,-0.9006,-0.9309,-0.9678,-0.9876,-1.0133,-1.0552,-1.2687,-1.5088,-1.7538,-2.0213,-2.1871,-2.2713,-2.4843,-2.6494,-2.8014,-3.0326,-3.2593,-3.4775,-3.5575,-3.6764,-3.8087,-3.7651,-3.5831,-3.3237,-3.039,-2.8005,-2.6313,-2.6313,-2.6447,-2.6731,-2.7646,-2.7224,-2.6367,-2.5658,-2.4739,-2.3475,-2.1407,-2.2142,-2.2731,-2.1262,-2.2142,-2.3319,-2.3762,-2.3918,-2.3957,-2.4126,-2.4176,-2.3194,-2.0394,-1.8355,-1.7078,-1.6823,-1.5848,-1.5163,-1.5585,-1.5625,-1.7949,-2.4073,-2.4836,-2.974,-4.1099,-4.217,-4.4366,-4.949,-5.0366,-5.1639,-5.3538,-5.4199,-5.5765,-5.791,-5.9252,-6.1041,-6.3356,-6.475,-6.6726,-0.8273,0.3583,1.3881,2.2613,2.2833,2.0852,2.0277,2.0867,2.1302,2.0521,2.0318,2.0142,1.9551,1.8231,1.6347,0.0,1.2443,1.1214,0.9011,0.8696,0.8709,0.8742,0.7618,0.4109,-0.2921,-0.5634,-0.7379,-0.8689,-0.8696,-0.8797,-0.8783,-0.8783,-0.8783,-0.8783,-0.8783,-0.8783,-0.8783,-0.8847,-0.9144,-0.9566,-0.9724,-1.0021,-1.0545,-1.156,-1.3451,-1.6136,-1.9053,-2.1155,-2.282,-2.5155,-2.6683,-2.792,-3.036,-3.2852,-3.5227,-3.6996,-3.8,-3.8334,-3.8577,-3.6284,-3.2945,-3.0746,-2.8717,-2.7087,-2.7483,-2.7628,-2.7716,-2.8054,-2.7611,-2.6711,-2.5428,-2.4547,-2.3619,-2.2443,-2.3019,-2.3619,-2.2443,-2.3175,-2.3918,-2.3918,-2.3918,-2.3918,-2.3918,-2.38,-2.2142,-1.8102,-1.6237,-1.5471,-1.5976,-1.5512,-1.5224,-1.5598,-1.5457,-1.8009,-2.4428,-2.4905,-2.9424,-3.9817,-4.1494,-4.4062,-4.8236,-5.1124,-5.3157,-5.3736,-5.575,-5.7031,-5.791,-5.9789,-6.156,-6.3356,-6.4479,-6.5612,-1.1518,-0.1367,0.9097,1.9654,1.6612,1.2074,0.0,0.0,1.8508,1.8777,1.7537,1.6065,1.4978,1.4678,1.3834,1.1091,1.0667,1.025,0.8884,0.8783,0.879,0.8709,0.5832,0.0538,-0.796,-0.6384,-0.5931,-0.8562,-0.8783,-0.8783,-0.8783,-0.8783,-0.8783,-0.8783,-0.8783,-0.8783,-0.8783,-0.8783,-0.8973,-0.9559,-0.9559,-0.9863,-1.0552,-1.0552,-1.1453,-1.3264,-1.6995,-1.9867,-2.211,-2.4841,-2.5899,-2.6421,-2.9756,-3.2106,-3.4025,-3.7782,-3.8908,-3.8686,-3.9379,-3.5834,-3.1018,-3.0153,-2.8267,-2.643,-2.7371,-2.7744,-2.7859,-2.7628,-2.7333,-2.6524,-2.5076,-2.4246,-2.384,-2.3606,-2.3762,-2.3918,-2.3619,-2.3762,-2.3918,-2.3918,-2.3918,-2.3762,-2.3619,-2.2551,-2.0154,-1.5775,-1.3867,-1.2955,-1.3182,-1.4111,-1.4897,-1.5444,-1.5496,-1.7813,-2.331,-2.4448,-2.865,-3.7463,-4.0703,-4.3264,-4.6035,-5.2228,-5.5096,-5.3928,-5.752,-5.9113,-5.8186,-6.008,-6.1844,-6.3356,-6.3659,-6.3275,0.0,0.0,0.0,0.0,0.0,0.0,0.0,1.0631,1.1402,1.368,1.3831,1.376,1.4358,1.4467,1.368,1.1141,1.0667,1.025,0.8884,0.8783,0.8797,0.8729,0.4096,-0.1721,-0.8074,-0.8253,-0.812,-0.8669,-0.8783,-0.8783,-0.8783,-0.8783,-0.8783,-0.8783,-0.8783,-0.8783,-0.8783,-0.8783,-0.8973,-0.9559,-0.9559,-0.9863,-1.0552,-1.0552,-1.1576,-1.3509,-1.5814,-1.8303,-2.0878,-2.3703,-2.5342,-2.6372,-2.9029,-3.1737,-3.4234,-3.6002,-3.776,-3.8818,-3.7023,-3.4967,-3.2321,-2.8976,-2.8035,-2.8026,-2.7739,-2.8435,-2.9255,-2.7975,-2.6949,-2.6041,-2.4959,-2.3931,-2.3054,-2.189,-2.2731,-2.3475,-2.1853,-2.2731,-2.3918,-2.3918,-2.3918,-2.3462,-2.1853,-2.1343,-1.9296,-1.3699,-1.2823,-1.1861,-0.9245,-0.9122,-1.0886,-1.5044,-1.5496,-1.6106,-1.7328,-2.1947,-2.865,-3.7463,-4.0703,-4.3264,-4.6035,-5.2228,-5.5096,-5.3928,-5.752,-5.9673,-6.0055,-6.1985,-6.2967,-6.3356,-6.4885,-6.2739,0.0,0.0,0.0,0.0,0.0,0.0,0.0,0.0,0.0,0.0,0.0,0.8673,0.0,0.0,1.1126,0.9897,0.975,0.9533,0.8797,0.879,0.8797,0.8735,0.3561,-0.2264,-0.8194,-0.8729,-0.8709,-0.8709,-0.8696,-0.8797,-0.8797,-0.879,-0.8783,-0.8783,-0.8783,-0.8783,-0.8783,-0.879,-0.8986,-0.9454,-0.9836,-1.0147,-1.0436,-1.0436,-1.1104,-1.2318,-1.5408,-1.7622,-1.9248,-2.2884,-2.5193,-2.6638,-2.8329,-3.0182,-3.2348,-3.5012,-3.5847,-3.5513,-3.4759,-3.2542,-2.9791,-2.8226,-2.7805,-2.7851,-2.8076,-2.8678,-2.8914,-2.724,-2.6191,-2.5124,-2.4219,-2.3537,-2.3065,-2.2607,-2.3175,-2.3619,-2.2731,-2.3175,-2.3918,-2.3918,-2.3175,-2.2142,-2.1117,-1.8587,-1.5617,-1.2668,-0.8976,-0.5836,-0.4087,-0.3831,-0.6894,-1.4708,-1.5631,-1.5624,-1.5619,-2.1078,-2.6609,-3.1132,-3.8282,-4.2676,-4.4062,-5.082,-5.437,-5.3949,-5.683,-5.9171,-6.0609,-6.156,-6.2548,-6.3356,-6.0673,-5.6636,0.0,0.0,0.0,0.0,0.0,0.0,0.0,0.0,0.0,0.0,0.0,0.0,0.0,0.0,0.0,0.7987,0.7896,0.8043,0.8702,0.8696,0.8702,0.8742,0.3027,-0.2919,-0.8213,-0.8194,-0.7852,-0.7852,-0.7834,-0.8157,-0.8709,-0.8797,0.0,-0.8783,-0.8783,-0.8783,-0.8783,-0.8696,-0.8776,-0.8742,0.0,0.0,-0.9531,-1.0191,-1.0641,-1.1235,-1.5386,-1.7326,-1.8141,-2.2272,-2.4797,-2.6338,-2.6775,-2.7717,-2.9004,-3.2883,-3.3064,-3.1487,-3.1539,-2.911,-2.6153,-2.645,-2.6417,-2.636,-2.7314,-2.79,0.0,-2.6099,-2.5215,-2.4476,-2.3467,-2.2923,-2.2647,-2.3192,-2.3319,-2.3319,-2.3319,-2.3619,-2.3918,-2.3918,-2.2286,-2.0816,-2.0536,-1.5942,-1.2039,-1.1088,-0.4638,0.0167,0.0,0.1642,-0.2043,-1.4324,-1.4695,-1.4506,-1.539,-2.0908,-2.4336,-2.4875,-3.4524,-4.0754,-4.1861,-4.9675,-5.3895,-5.369,-5.6522,-5.8816,-6.0609,-6.0269,-6.0794,-6.1968,-5.4181,-4.8712,0.0,0.0,0.0,0.0,0.0,0.0,0.0,0.0,0.0,0.0,0.0,0.0,0.0,0.0,0.0,0.0,0.4766,0.5751,0.8379,0.8722,0.8742,0.8768,0.13,-0.5106,-0.8436,-0.6315,-0.4774,-0.4774,-0.4771,-0.5967,-0.8595,0.0,0.0,0.0,0.0,-0.8783,-0.8783,-0.8696,-0.8089,-0.6686,-0.6096,-0.5794,-0.5987,-0.9131,-1.0886,-1.1824,-1.5514,-1.7506,-1.8295,-2.2286,-2.3811,-2.3577,-2.3028,-2.3438,-2.4724,-2.7436,-2.8946,0.0,0.0,0.0,0.0,-2.1759,-2.1954,-2.3188,-2.4034,-2.5616,-2.6751,-2.4602,-2.4321,-2.4476,-2.3467,-2.1788,-2.0637,-2.1135,-2.1251,-2.1251,-2.1251,-2.2731,-2.3918,-2.3918,-2.2286,-2.038,-1.8648,-1.4987,-1.097,-0.7314,-0.2528,0.0,0.0,0.7253,0.5065,-1.3465,0.0,0.0,-1.5206,-2.0406,-2.3642,-2.4856,-3.0361,-3.5745,-4.0722,-5.018,-5.4642,-5.2881,-5.7009,-5.9747,-6.0609,-5.8658,-5.7844,-5.7746,-4.7414,-4.1272,0.0,0.0,0.0,0.0,0.0,0.0,0.0,0.0,0.0,0.0,0.0,0.0,0.0,0.0,0.0,0.0,0.469,0.5862,0.3084,0.6118,0.7482,0.4035,0.0434,-0.228,-0.3597,-0.2502,-0.174,-0.174,-0.4897,-0.6645,-0.6188,-0.7828,-0.8696,-0.8783,-0.8783,-0.8783,-0.8783,-0.8764,-0.7562,-0.5135,-0.3166,-0.4396,-0.8245,-0.7695,-0.9002,0.0,-1.4311,-1.641,-1.8218,-2.1129,-2.2564,0.0,0.0,0.0,0.0,0.0,-2.2624,-2.3213,-2.1511,-2.083,-2.0324,-1.9282,-1.9858,-2.089,-2.126,-2.2775,-2.4155,-2.3242,-2.3404,-2.3796,-2.3552,-2.1881,-2.0637,-2.2308,-2.1853,-2.1262,-2.2443,-2.3319,-2.3918,-2.3918,0.0,0.0,-1.8385,-1.4999,-1.0505,-0.5595,-0.1941,0.2172,0.0,1.1422,0.8589,-0.5116,-0.7075,-0.9577,-1.5041,-2.0761,0.0,0.0,0.0,-3.7455,-4.1426,-4.8346,0.0,0.0,0.0,0.0,0.0,0.0,0.0,0.0,-4.0316,-3.5693,0.0,0.0,0.0,0.0,0.0,0.0,0.0,0.0,0.0,0.0,0.0,0.0,0.0,0.0,0.0,0.0,0.0,0.1636,-0.3493,-0.0,0.2214,0.023,0.0,0.0,0.0,0.0,0.0,0.0,-0.398,-0.6108,-0.5584,-0.7604,-0.8836,-0.8926,-0.892,-0.892,-0.8926,-0.8943,-0.6945,-0.3024,-0.0992,-0.2674,-0.7604,-0.6925,-0.8474,-1.1613,-1.3652,-1.5864,-1.8218,-2.0245,-2.1627,-2.2278,-1.9714,-1.856,-1.8428,-1.7424,-1.7609,-1.8309,-1.7884,-1.7524,-1.7334,-1.7334,-1.7825,-1.8485,-1.8772,-2.0113,-2.1339,-2.1184,-2.171,-2.2671,-2.3074,-2.171,-2.0952,-2.3373,-2.243,-2.1552,-2.3475,-2.3918,-2.3918,-2.3918,-2.0256,-1.7122,-1.6778,-1.2931,-0.8257,-0.3399,0.0,0.0,1.2904,1.2816,1.013,0.4892,-0.2659,-0.9531,-1.513,-2.0753,-2.4306,0.0,-3.2913,-3.895,-4.207,-4.6776,-5.1484,-5.6487,-5.5888,-5.5059,0.0,0.0,0.0,0.0,0.0,0.0,0.0,0.0,0.0,0.0,0.0,0.0,0.0,0.0,0.0,0.0,0.0,0.0,0.0,0.0,0.0,0.0,0.0,0.0,-1.0185,-1.0974,-0.8745,-0.0909,0.0,0.0,0.0,0.0,0.0,0.0,-0.0114,-0.2666,-0.8278,-0.8635,-0.898,-0.9323,-0.9422,-0.9422,-0.9323,-0.9474,-0.6318,-0.0125,-0.0,-0.0127,-0.0524,-0.7212,-1.0698,-1.1513,-1.4264,-1.6485,-1.8218,-2.0245,-2.0949,-2.0603,-1.6413,-1.5687,-1.6881,-1.469,-1.4965,-1.6255,-1.483,-1.4791,-1.5277,-1.5277,-1.5269,-1.5481,-1.6796,-1.7687,-1.8109,-1.7501,-1.9123,-2.1094,-2.1106,-2.1106,-2.1528,-2.3462,-2.243,-2.1552,-2.3475,-2.3918,-2.3918,-2.3918,-1.9234,-1.4665,-1.2838,-0.7692,-0.2796,0.0152,0.7877,0.0,1.383,1.0473,0.9776,1.4543,0.1364,-0.9957,-1.5101,-2.0232,-2.3603,-2.4856,-3.2178,-3.8199,-4.2022,-4.6254,-5.0188,-5.3928,-5.4357,-5.3795,-5.2171,0.0,0.0,0.0,0.0,0.0,0.0,0.0,0.0,0.0,0.0,0.0,0.0,0.0,0.0,0.0,0.0,0.0,0.0,0.0,0.0,0.0,0.0,0.0,0.0,0.0,-0.8274,-0.0914,0.0,0.0,0.0,0.0,0.0,0.0,0.0,-0.2587,-0.8422,-0.688,-0.6823,-0.923,-0.9454,-0.9573,-0.9718,-0.7699,-0.4459,0.0,0.0,0.0,-0.0262,-0.7343,-0.946,-0.7921,-1.144,-1.4202,-1.616,-1.6882,-1.7177,-1.702,-1.5569,-1.4346,-1.3412,-1.2599,-1.2702,-1.2973,-1.2599,-1.2648,-1.2922,-1.3137,-1.3208,-1.3337,-1.3806,-1.4873,-1.6133,-1.5846,-1.7358,-1.938,-2.0682,-1.9067,-1.8345,-2.2887,-2.1419,-1.9965,-2.3188,-2.2875,-2.1997,-2.1997,-1.8426,-1.484,-1.3125,-0.7865,-0.2233,0.2693,0.9365,1.3908,1.4113,1.3464,1.3677,1.5366,0.156,-0.9966,-1.5133,-2.0889,-2.4389,-2.4885,-3.4558,-4.0809,-4.207,-4.9192,-5.3744,-5.4901,-5.5491,-5.3889,-5.0327,0.0,0.0,0.0,0.0,0.0,0.0,0.0,0.0,0.0,0.0,0.0,0.0,0.0,0.0,0.0,0.0,0.0,0.0,0.0,0.0,0.0,0.0,0.0,0.0,0.0,0.0,-0.0672,0.0,0.0,0.0,0.0,0.0,0.0,0.0,-0.1605,-0.5389,-0.4967,-0.6237,-0.9663,-0.9882,-1.0005,-1.0167,-0.6921,-0.3426,0.0,0.0,0.0,-0.0131,-0.4712,-0.7287,-0.8363,-1.0778,-1.3239,-1.5459,-1.4548,-1.4092,-1.4092,-1.4092,-1.3228,-1.188,-1.188,-1.1761,-1.1623,-1.1814,-1.188,-1.1913,-1.2111,-1.2098,-1.2025,-1.2137,-1.298,-1.3931,-1.4061,-1.5574,-1.7334,-1.8638,-1.8051,-1.8051,-2.114,-2.0402,-1.9673,-2.143,-2.0838,-1.9705,-1.9117,-1.6643,-1.4251,-1.3194,-0.7318,-0.0969,0.4044,1.002,1.4077,1.4546,1.5183,1.4757,1.2955,0.039,-0.9966,-1.5133,-2.1319,-2.4905,-2.4905,-3.5704,-4.1958,-4.1717,-4.981,-5.3882,-5.3034,-5.3058,-5.106,0.0,0.0,0.0,0.0,0.0,0.0,0.0,0.0,0.0,0.0,0.0,0.0,0.0,0.0,0.0,0.0,0.0,0.0,0.0,0.0,0.0,0.0,0.0,0.0,0.0,0.0,0.0,-0.0423,0.0,0.0,0.0,0.0,0.0,0.0,0.0,0.0,0.0,-0.3528,-0.698,-1.0366,-1.0463,-1.0456,-1.0489,-0.7042,-0.365,-0.0524,-0.0131,0.0,0.0,0.0,-0.446,-1.2286,-1.199,-1.345,-1.5808,-1.323,-1.2177,-1.2177,-1.2177,-1.2163,-1.215,-1.2163,-1.2163,-1.215,-1.2163,-1.2321,-1.217,-1.215,-1.1952,-1.1774,-1.2045,-1.1939,0.0,0.0,-1.3636,-1.4979,-1.5128,-1.7904,-2.0089,-1.8511,-1.938,-2.0245,-1.8501,-1.7943,-1.7475,0.0,-1.4054,-1.2922,-1.2808,0.0,0.1127,0.4669,1.0443,1.4431,1.4715,1.5132,1.3534,0.8393,-0.1557,-0.9966,-1.5133,-2.1302,-2.4885,-2.4905,-3.5649,-4.1685,-4.0851,-4.8021,-5.0814,-4.7997,-4.7662,0.0,0.0,0.0,0.0,0.0,0.0,0.0,0.0,0.0,0.0,0.0,0.0,0.0,0.0,0.0,0.0,0.0,0.0,0.0,0.0,0.0,0.0,0.0,0.0,0.0,0.0,-0.7476,-0.3973,-0.0423,0.0,0.0,0.0,0.0,0.0,0.0,0.0,0.0,0.0,-0.5866,-0.9583,-1.0522,-1.0548,-1.0548,-1.0489,-0.7042,-0.6132,-0.7739,-0.2487,0.0,0.0,0.0,-0.4542,-1.2011,-0.897,-0.9773,-1.3258,-1.2498,-1.2196,-1.2196,-1.2216,-1.2071,-1.1887,-1.2111,-1.2038,-1.1867,-1.2091,-1.2183,-1.2157,-1.1913,0.0,-1.1715,-1.1727,0.0,0.0,0.0,0.0,-1.3358,-1.483,0.0,-1.512,-1.7481,-1.7334,-1.6891,-1.7923,-1.712,-1.5683,0.0,-1.3107,-1.2701,-1.2377,0.0,0.0,0.0,0.0,1.4741,1.4438,1.5196,1.3534,0.8393,-0.1557,-0.9966,-1.5133,-2.0863,-2.4566,-2.4885,-3.4663,-4.0674,-4.0819,-4.6326,-4.8029,-4.513,0.0,0.0,0.0,0.0,0.0,0.0,0.0,0.0,0.0,0.0,0.0,0.0,0.0,0.0,0.0,0.0,0.0,0.0,0.0,0.0,0.0,0.0,0.0,0.0,0.0,0.0,0.0,-0.7468,-0.3905,-0.0417,0.0,0.0,0.0,0.0,0.0,0.0,0.0,0.0,0.0,0.0,0.0,-1.0448,-0.8947,-0.8942,-1.0429,-0.8553,-0.6929,-0.5895,-0.1833,0.0,0.0,0.0,-0.2464,-0.6818,-0.6317,-0.841,-1.2249,-1.2229,-1.1127,-0.9582,0.0,0.0,0.0,0.0,0.0,-1.1926,-1.2127,0.0,0.0,0.0,0.0,0.0,0.0,0.0,0.0,0.0,0.0,0.0,0.0,0.0,0.0,-1.5277,-1.5277,-1.5277,-1.5426,-1.4705,-1.3537,0.0,-1.2308,-1.2414,-1.212,0.0,0.0,0.0,0.0,0.0,1.4491,1.5229,1.3534,0.8393,-0.1557,-0.9966,-1.5133,-2.0777,-2.4171,-2.4606,-3.4234,-3.9888,-3.9477,-4.3097,-4.3837,0.0,0.0,0.0,0.0,0.0,0.0,0.0,0.0,0.0,0.0,0.0,0.0,0.0,0.0,0.0,0.0,0.0,0.0,0.0,0.0,0.0,0.0,0.0,0.0,0.0,0.0,0.0,0.0,0.0,-0.4479,-0.0408,0.0,0.0,0.0,0.0,0.0,0.0,0.0,0.0,0.0,0.0,0.0,0.0,0.0,0.0,-1.0464,-0.9639,-0.6067,0.0,0.0,0.0,0.0,0.0,0.0,-0.0283,-0.4822,0.0,-1.2202,-1.1071,0.0,0.0,0.0,0.0,0.0,0.0,0.0,0.0,0.0,0.0,0.0,0.0,0.0,0.0,0.0,0.0,0.0,0.0,0.0,0.0,0.0,0.0,-1.4305,-1.2505,-1.3406,-1.4156,0.0,-1.1873,-1.1709,-1.1669,0.0,0.0,0.0,0.0,0.0,0.0,0.0,0.0,1.4609,1.5288,1.3339,0.7416,-0.1947,-0.9966,-1.5133,-2.0734,-2.4003,-2.4062,-3.3644,-3.8473,-3.7093,-3.9149,0.0,0.0,0.0,0.0,0.0,0.0,0.0,0.0,0.0,0.0,0.0,0.0,0.0,0.0,0.0,0.0,0.0,0.0,0.0,0.0,0.0,0.0,0.0,0.0,0.0,0.0,0.0,0.0,0.0,0.0,0.0,0.0,0.0,0.0,0.0,0.0,0.0,0.0,0.0,0.0,0.0,0.0,0.0,0.0,0.0,0.0,0.0,0.0,0.0,0.0,0.0,0.0,0.0,0.0,0.0,-0.0425,-0.784,-1.1498,-1.1705,0.0,0.0,0.0,0.0,0.0,0.0,0.0,0.0,0.0,0.0,0.0,0.0,0.0,0.0,0.0,0.0,0.0,0.0,0.0,0.0,0.0,0.0,0.0,0.0,0.0,-1.1904,-1.2157,0.0,0.0,0.0,0.0,0.0,0.0,0.0,0.0,0.0,0.0,0.0,0.0,1.4444,1.5058,1.1954,0.2344,-0.4097,-0.9966,-1.5133,-2.0301,-2.3485,-2.4042,-3.0658,-3.446,0.0,0.0,0.0,0.0,0.0,0.0,0.0,0.0,0.0,0.0,0.0,0.0,0.0,0.0,0.0,0.0,0.0,0.0,0.0,0.0,0.0,0.0,0.0,0.0,0.0,0.0,0.0,0.0,0.0,0.0,0.0,0.0,0.0,0.0,0.0,0.0,0.0,0.0,0.0,0.0,0.0,0.0,0.0,0.0,0.0,0.0,0.0,0.0,0.0,0.0,0.0,0.0,0.0,0.0,0.0,0.0,0.0,0.0,0.0,-0.5892,0.0,0.0,0.0,0.0,0.0,0.0,0.0,0.0,0.0,0.0,0.0,0.0,0.0,0.0,0.0,0.0,0.0,0.0,0.0,0.0,0.0,0.0,0.0,0.0,0.0,0.0,0.0,0.0,0.0,0.0,0.0,0.0,0.0,0.0,0.0,0.0,0.0,0.0,0.0,0.0,1.4728,1.2862,0.8599,0.0782,-0.4683,-0.9966,-1.5133,-2.0241,-2.321,-2.318,-2.9687,0.0,0.0,0.0,0.0,0.0,0.0,0.0,0.0,0.0,0.0,0.0,0.0,0.0,0.0,0.0,0.0,0.0,0.0,0.0,0.0,0.0,0.0,0.0,0.0,0.0,0.0,0.0,0.0,0.0,0.0,0.0,0.0,0.0,0.0,0.0,0.0,0.0,0.0,0.0,0.0,0.0,0.0,0.0,0.0,0.0,0.0,0.0,0.0,0.0,0.0,0.0,0.0,0.0,0.0,0.0,0.0,0.0,0.0,0.0,0.0,0.0,0.0,0.0,0.0,0.0,0.0,0.0,0.0,0.0,0.0,0.0,0.0,0.0,0.0,0.0,0.0,0.0,0.0,0.0,0.0,0.0,0.0,0.0,0.0,0.0,0.0,0.0,0.0,0.0,0.0,0.0,0.0,0.0,0.0,0.0,0.0,0.0,0.0,0.0,0.0,0.0,1.5052,0.9906,0.449,0.0391,-0.4685,-0.9966,-1.5133,-2.0241,-2.2845,-2.2387,0.0,0.0,0.0,0.0,0.0,0.0,0.0,0.0,0.0,0.0,0.0,0.0,0.0,0.0,0.0,0.0,0.0,0.0,0.0,0.0,0.0,0.0,0.0,0.0,0.0,0.0,0.0,0.0,0.0,0.0,0.0,0.0,0.0,0.0,0.0,0.0,0.0,0.0,0.0,0.0,0.0,0.0,0.0,0.0,0.0,0.0,0.0,0.0,0.0,0.0,0.0,0.0,0.0,0.0,0.0,0.0,0.0,0.0,0.0,0.0,0.0,0.0,0.0,0.0,0.0,0.0,0.0,0.0,0.0,0.0,0.0,0.0,0.0,0.0,0.0,0.0,0.0,0.0,0.0,0.0,0.0,0.0,0.0,0.0,0.0,0.0,0.0,0.0,0.0,0.0,0.0,0.0,0.0,0.0,0.0,0.0,0.0,0.0,0.0,0.0,0.0,0.0,1.5414,0.6815,0.0587,0.0,-0.4691,-0.9966,-1.5133,-2.0241,-2.2845,-2.2387,0.0,0.0,0.0,0.0,0.0,0.0,0.0,0.0,0.0,0.0,0.0,0.0,0.0,0.0,0.0,0.0,0.0,0.0,0.0,0.0,0.0,0.0,0.0,0.0,0.0,0.0,0.0,0.0,0.0,0.0,0.0,0.0,0.0,0.0,0.0,0.0,0.0,0.0,0.0,0.0,0.0,0.0,0.0,0.0,0.0,0.0,0.0,0.0,0.0,0.0,0.0,0.0,0.0,0.0,0.0,0.0,0.0,0.0,0.0,0.0,0.0,0.0,0.0,0.0,0.0,0.0,0.0,0.0,0.0,0.0,0.0,0.0,0.0,0.0,0.0,0.0,0.0,0.0,0.0,0.0,0.0,0.0,0.0,0.0,0.0,0.0,0.0,0.0,0.0,0.0,0.0,0.0,0.0,0.0,0.0,0.0,0.0,0.0,0.0,0.0,0.0,0.0,0.6929,0.2663,0.0,0.0,-0.4691,-0.9966,-1.5133,-2.0241,-2.2728,-2.2017,0.0,0.0,0.0,0.0,0.0,0.0,0.0,0.0,0.0,0.0,0.0,0.0,0.0,0.0,0.0,0.0,0.0,0.0,0.0,0.0,0.0,0.0,0.0,0.0,0.0,0.0,0.0,0.0,0.0,0.0,0.0,0.0,0.0,0.0,0.0,0.0,0.0,0.0,0.0,0.0,0.0,0.0,0.0,0.0,0.0,0.0,0.0,0.0,0.0,0.0,0.0,0.0,0.0,0.0,0.0,0.0,0.0,0.0,0.0,0.0,0.0,0.0,0.0,0.0,0.0,0.0,0.0,0.0,0.0,0.0,0.0,0.0,0.0,0.0,0.0,0.0,0.0,0.0,0.0,0.0,0.0,0.0,0.0,0.0,0.0,0.0,0.0,0.0,0.0,0.0,0.0,0.0,0.0,0.0,0.0,0.0,0.0,0.0,0.0,0.0,0.0,0.0,0.0,0.0,0.0,0.0,-0.4691,-0.9966,-1.5133,-2.0241,-2.266,-2.1604,0.0,0.0,0.0,0.0,0.0,0.0,0.0,0.0,0.0,0.0,0.0,0.0,0.0,0.0,0.0,0.0,0.0,0.0,0.0,0.0,0.0,0.0,0.0,0.0,0.0,0.0,0.0,0.0,0.0,0.0,0.0,0.0,0.0,0.0,0.0,0.0,0.0,0.0,0.0,0.0,0.0,0.0,0.0,0.0,0.0,0.0,0.0,0.0,0.0,0.0,0.0,0.0,0.0,0.0,0.0,0.0,0.0,0.0,0.0,0.0,0.0,0.0,0.0,0.0,0.0,0.0,0.0,0.0,0.0,0.0,0.0,0.0,0.0,0.0,0.0,0.0,0.0,0.0,0.0,0.0,0.0,0.0,0.0,0.0,0.0,0.0,0.0,0.0,0.0,0.0,0.0,0.0,0.0,0.0,0.0,0.0,0.0,0.0,0.0,0.0,0.0,0.0,-0.1106,0.0,0.0,0.0,-0.4691,-0.9966,-1.5133,-2.0241,-2.266,0.0,0.0,0.0,0.0,0.0,0.0,0.0,0.0,0.0,0.0,0.0,0.0,0.0,0.0,0.0,0.0,0.0,0.0,0.0,0.0,0.0,0.0,0.0,0.0,0.0,0.0,0.0,0.0,0.0,0.0,0.0,0.0,0.0,0.0,0.0,0.0,0.0,0.0,0.0,0.0,0.0,0.0,0.0,0.0,0.0,0.0,0.0,0.0,0.0,0.0,0.0,0.0,0.0,0.0,0.0,0.0,0.0,0.0,0.0,0.0,0.0,0.0,0.0,0.0,0.0,0.0,0.0,0.0,0.0,0.0,0.0,0.0,0.0,0.0,0.0,0.0,0.0,0.0,0.0,0.0,0.0,0.0,0.0,0.0,0.0,0.0,0.0,0.0,0.0,0.0,0.0,0.0,0.0,0.0,0.0,0.0,0.0,0.0,0.0,0.0,0.0,0.0,0.0,-0.1104,0.0,0.0,0.0,-0.4691,-0.9966,-1.5133,-2.0241,-2.266,-2.1604,0.0,0.0,0.0,0.0,0.0,0.0,0.0,0.0,0.0,0.0,0.0,0.0,0.0,0.0,0.0,0.0,0.0,0.0,0.0,0.0,0.0,0.0,0.0,0.0,0.0,0.0,0.0,0.0,0.0,0.0,0.0,0.0,0.0,0.0,0.0,0.0,0.0,0.0,0.0,0.0,0.0,0.0,0.0,0.0,0.0,0.0,0.0,0.0,0.0,0.0,0.0,0.0,0.0,0.0,0.0,0.0,0.0,0.0,0.0,0.0,0.0,0.0,0.0,0.0,0.0,0.0,0.0,0.0,0.0,0.0,0.0,0.0,0.0,0.0,0.0,0.0,0.0,0.0,0.0,0.0,0.0,0.0,0.0,0.0,0.0,0.0,0.0,0.0,0.0,0.0,0.0,0.0,0.0,0.0,0.0,0.0,0.0,0.0,0.0,0.0,0.0,0.0,0.0,-0.2087,0.0,0.0,-0.4691,-0.9966,-1.5133,-1.9291,-2.1728,-2.1604,0.0,0.0,0.0,0.0,0.0,0.0,0.0,0.0,0.0,0.0,0.0,0.0,0.0,0.0,0.0,0.0,0.0,0.0,0.0,0.0,0.0,0.0,0.0,0.0,0.0,0.0,0.0,0.0,0.0,0.0,0.0,0.0,0.0,0.0,0.0,0.0,0.0,0.0,0.0,0.0,0.0,0.0,0.0,0.0,0.0,0.0,0.0,0.0,0.0,0.0,0.0,0.0,0.0,0.0,0.0,0.0,0.0,0.0,0.0,0.0,0.0,0.0,0.0,0.0,0.0,0.0,0.0,0.0,0.0,0.0,0.0,0.0,0.0,0.0,0.0,0.0,0.0,0.0,0.0,0.0,0.0,0.0,0.0,0.0,0.0,0.0,0.0,0.0,0.0,0.0,0.0,0.0,0.0,0.0,0.0,0.0,0.0,0.0,0.0,0.0,0.0,0.0,0.0,-0.633,-0.0784,-0.0,-0.4691,-0.9966,-1.5133,-1.7962,-2.0053,-2.1425,-2.3869,0.0,0.0,0.0,0.0,0.0,0.0,0.0,0.0,0.0,0.0,0.0,0.0,0.0,0.0,0.0,0.0,0.0,0.0,0.0,0.0,0.0,0.0,0.0,0.0,0.0,0.0,0.0,0.0,0.0,0.0,0.0,0.0,0.0,0.0,0.0,0.0,0.0,0.0,0.0,0.0,0.0,0.0,0.0,0.0,0.0,0.0,0.0,0.0,0.0,0.0,0.0,0.0,0.0,0.0,0.0,0.0,0.0,0.0,0.0,0.0,0.0,0.0,0.0,0.0,0.0,0.0,0.0,0.0,0.0,0.0,0.0,0.0,0.0,0.0,0.0,0.0,0.0,0.0,0.0,0.0,0.0,0.0,0.0,0.0,0.0,0.0,0.0,0.0,0.0,0.0,0.0,0.0,0.0,0.0,0.0,0.0,0.0,0.0,0.0,0.0,0.0,0.0,-1.3238,-0.8897,-0.0784,-0.4691,-0.9966,-1.5133,-1.7962,-2.0053,-2.1425,-2.3869,0.0,0.0,0.0,0.0,0.0,0.0,0.0,0.0,0.0,0.0,0.0,0.0,0.0,0.0,0.0,0.0,0.0,0.0,0.0,0.0,0.0,0.0,0.0,0.0,0.0,0.0,0.0,0.0,0.0,0.0,0.0,0.0,0.0,0.0,0.0,0.0,0.0,0.0,0.0,0.0,0.0,0.0,0.0,0.0,0.0,0.0,0.0,0.0,0.0,0.0,0.0,0.0,0.0,0.0,0.0,0.0,0.0,0.0,0.0,0.0,0.0,0.0,0.0,0.0,0.0,0.0,0.0,0.0,0.0,0.0,0.0,0.0,0.0,0.0,0.0,0.0,0.0,0.0,0.0,0.0,0.0,0.0,0.0,0.0,0.0,0.0,0.0,0.0,0.0,0.0,0.0,0.0,0.0,0.0,0.0,0.0,0.0,0.0,0.0,0.0,0.0,0.0,-1.5044,-1.1248,-0.1174,-0.4691,-0.9966,-1.5133,-1.6811,-1.8368,-1.9817,-2.1198,0.0,0.0,0.0,0.0,0.0,0.0,0.0,0.0,0.0,0.0,0.0,0.0,0.0,0.0,0.0,0.0,0.0,0.0,0.0,0.0,0.0,0.0,0.0,0.0,0.0,0.0,0.0,0.0,0.0,0.0,0.0,0.0,0.0,0.0,0.0,0.0,0.0,0.0,0.0,0.0,0.0,0.0,0.0,0.0,0.0,0.0,0.0,0.0,0.0,0.0,0.0,0.0,0.0,0.0,0.0,0.0,0.0,0.0,0.0,0.0,0.0,0.0,0.0,0.0,0.0,0.0,0.0,0.0,0.0,0.0,0.0,0.0,0.0,0.0,0.0,0.0,0.0,0.0,0.0,0.0,0.0,0.0,0.0,0.0,0.0,0.0,0.0,0.0,0.0,0.0,0.0,0.0,0.0,0.0,0.0,0.0,0.0,0.0,0.0,0.0,0.0,0.0,0.0,-1.1318,-0.2141,-0.5073,-0.9966,-1.5127,-1.547,-1.631,-1.8028,0.0,0.0,0.0,0.0,0.0,0.0,0.0,0.0,0.0,0.0,0.0,0.0,0.0,0.0,0.0,0.0,0.0,0.0,0.0,0.0,0.0,0.0,0.0,0.0,0.0,0.0,0.0,0.0,0.0,0.0,0.0,0.0,0.0,0.0,0.0,0.0,0.0,0.0,0.0,0.0,0.0,0.0,0.0,0.0,0.0,0.0,0.0,0.0,0.0,0.0,0.0,0.0,0.0,0.0,0.0,0.0,0.0,0.0,0.0,0.0,0.0,0.0,0.0,0.0,0.0,0.0,0.0,0.0,0.0,0.0,0.0,0.0,0.0,0.0,0.0,0.0,0.0,0.0,0.0,0.0,0.0,0.0,0.0,0.0,0.0,0.0,0.0,0.0,0.0,0.0,0.0,0.0,0.0,0.0,0.0,0.0,0.0,0.0,0.0,0.0,0.0,0.0,0.0,0.0,0.0,-0.6488,-0.6964,-0.9961,-1.5101,-1.5457,-1.631,-1.8028,0.0,0.0,0.0,0.0,0.0,0.0,0.0,0.0,0.0,0.0,0.0,0.0,0.0,0.0]}]]]